[[{"header":{"parameterUnit":"m.s-1","parameterCategory":1,"la1":30.6,"la2":29.2853,"lo1":-89.7004,"lo2":-87.6739,"dy":0.0162,"dx":0.0183,"nx":112,"ny":82,"refTime":"2026-04-21T00:00:00:Z","depth":0,"parameterNumber":2,"parameterNumberName":"U-component_of_WINDS"},"data":[0.0,0.0,0.0,0.0,0.0,0.0,0.0,0.0,0.0,0.0,0.0,0.0,0.0,0.0,0.0,0.0,0.0,0.0,0.0,0.0,0.0,0.0,0.0,0.0,0.0,0.0,0.0,0.0,0.0,0.0,0.0,0.0,0.0,0.0,0.0,0.0,0.0,0.0,0.0,0.0,0.0,0.0,0.0,0.0,0.0,0.0,0.0,0.0,0.0,0.0,0.0,0.0,0.0,0.0,0.0,0.0,0.0,0.0,0.0,0.0,0.0,0.0,0.0,0.0,0.0,0.0,0.0,0.0,0.0,0.0,0.0,0.0,0.0,0.0,0.0,0.0,0.0,0.0,0.0,0.0,0.0,0.0,0.0,0.0,0.0,0.0,0.0,0.0,0.0,0.0,-5.2873,-5.2429,-5.4087,-5.5254,-5.5254,-5.561,-5.4378,-5.0916,0.0,0.0,0.0,0.0,0.0,0.0,0.0,0.0,0.0,0.0,0.0,0.0,0.0,0.0,0.0,0.0,0.0,0.0,0.0,0.0,0.0,0.0,0.0,0.0,0.0,0.0,0.0,0.0,0.0,0.0,0.0,0.0,0.0,0.0,0.0,0.0,0.0,0.0,0.0,0.0,0.0,0.0,0.0,0.0,0.0,0.0,0.0,0.0,0.0,0.0,0.0,0.0,0.0,0.0,0.0,0.0,0.0,0.0,0.0,0.0,0.0,0.0,0.0,0.0,0.0,0.0,0.0,0.0,0.0,0.0,0.0,0.0,0.0,0.0,0.0,0.0,0.0,0.0,0.0,0.0,0.0,0.0,0.0,0.0,0.0,0.0,0.0,0.0,0.0,0.0,0.0,0.0,0.0,0.0,0.0,0.0,0.0,0.0,0.0,0.0,0.0,0.0,0.0,0.0,-5.1908,-5.308,-5.4071,-5.4652,-5.4652,-5.4156,-5.2944,-5.0827,0.0,0.0,0.0,0.0,0.0,0.0,0.0,0.0,0.0,0.0,0.0,0.0,0.0,0.0,0.0,0.0,0.0,0.0,0.0,0.0,0.0,0.0,0.0,0.0,0.0,0.0,0.0,0.0,0.0,0.0,0.0,0.0,0.0,0.0,0.0,0.0,0.0,0.0,0.0,0.0,0.0,0.0,0.0,0.0,0.0,0.0,0.0,0.0,0.0,0.0,0.0,0.0,0.0,0.0,0.0,0.0,0.0,0.0,0.0,0.0,0.0,0.0,0.0,0.0,0.0,0.0,0.0,0.0,0.0,0.0,0.0,0.0,0.0,0.0,0.0,0.0,0.0,0.0,0.0,0.0,0.0,0.0,0.0,0.0,0.0,0.0,0.0,0.0,0.0,0.0,0.0,0.0,0.0,0.0,0.0,0.0,0.0,0.0,0.0,0.0,0.0,0.0,0.0,-5.1977,-5.2287,-5.3839,-5.4322,-5.4494,-5.4494,-5.4184,-5.3103,-5.1049,-5.1144,0.0,0.0,0.0,0.0,0.0,0.0,0.0,0.0,0.0,0.0,0.0,0.0,0.0,0.0,0.0,0.0,0.0,0.0,0.0,0.0,0.0,0.0,0.0,0.0,0.0,0.0,0.0,0.0,0.0,0.0,0.0,0.0,0.0,0.0,0.0,0.0,0.0,0.0,0.0,0.0,0.0,0.0,0.0,0.0,0.0,0.0,0.0,0.0,0.0,0.0,0.0,0.0,0.0,0.0,0.0,0.0,0.0,0.0,0.0,0.0,0.0,0.0,0.0,0.0,0.0,0.0,0.0,0.0,0.0,0.0,0.0,0.0,0.0,0.0,0.0,0.0,0.0,0.0,0.0,0.0,0.0,0.0,0.0,0.0,0.0,0.0,0.0,0.0,0.0,0.0,0.0,0.0,0.0,0.0,0.0,0.0,0.0,0.0,0.0,0.0,0.0,0.0,-5.254,-5.295,-5.4293,-5.4463,-5.4494,-5.4494,-5.4184,-5.3149,-5.1218,-5.0252,0.0,0.0,0.0,0.0,0.0,0.0,0.0,0.0,0.0,0.0,0.0,0.0,0.0,0.0,0.0,0.0,0.0,0.0,0.0,0.0,0.0,0.0,0.0,0.0,0.0,0.0,0.0,0.0,0.0,0.0,0.0,0.0,0.0,0.0,0.0,0.0,0.0,0.0,0.0,0.0,0.0,0.0,0.0,0.0,0.0,0.0,0.0,0.0,0.0,0.0,0.0,0.0,0.0,0.0,0.0,0.0,0.0,0.0,0.0,0.0,0.0,0.0,0.0,0.0,0.0,0.0,0.0,0.0,0.0,0.0,0.0,0.0,0.0,0.0,0.0,0.0,0.0,0.0,0.0,0.0,0.0,0.0,0.0,0.0,0.0,0.0,0.0,0.0,0.0,0.0,0.0,0.0,0.0,0.0,0.0,0.0,0.0,0.0,0.0,0.0,0.0,0.0,-5.2118,-5.3344,-5.4136,-5.4367,-5.4494,-5.4494,-5.3218,-5.1981,-5.1149,-4.9706,0.0,0.0,0.0,0.0,0.0,0.0,0.0,0.0,0.0,0.0,0.0,0.0,0.0,0.0,0.0,0.0,0.0,0.0,0.0,0.0,0.0,0.0,0.0,0.0,0.0,0.0,0.0,0.0,0.0,0.0,0.0,0.0,0.0,0.0,0.0,0.0,0.0,0.0,0.0,0.0,0.0,0.0,0.0,0.0,0.0,0.0,0.0,0.0,0.0,0.0,0.0,0.0,0.0,0.0,0.0,0.0,0.0,0.0,0.0,0.0,0.0,0.0,0.0,0.0,0.0,0.0,0.0,0.0,0.0,0.0,0.0,0.0,0.0,0.0,0.0,0.0,0.0,0.0,0.0,0.0,0.0,0.0,0.0,0.0,0.0,0.0,0.0,0.0,0.0,0.0,0.0,0.0,0.0,0.0,0.0,0.0,0.0,0.0,0.0,0.0,0.0,0.0,-5.1548,-5.2709,-5.3941,-5.4143,-5.4004,-5.3524,-5.3386,-5.2423,-5.0381,0.0,0.0,0.0,0.0,0.0,0.0,0.0,0.0,0.0,0.0,0.0,0.0,0.0,0.0,0.0,0.0,0.0,0.0,0.0,0.0,0.0,0.0,0.0,0.0,0.0,0.0,0.0,0.0,0.0,0.0,0.0,0.0,0.0,0.0,0.0,0.0,0.0,0.0,0.0,0.0,0.0,0.0,0.0,0.0,0.0,0.0,0.0,0.0,0.0,0.0,0.0,0.0,0.0,0.0,0.0,0.0,0.0,0.0,0.0,0.0,0.0,0.0,0.0,0.0,0.0,0.0,0.0,0.0,0.0,0.0,0.0,0.0,0.0,0.0,0.0,0.0,0.0,0.0,0.0,0.0,0.0,0.0,0.0,0.0,0.0,0.0,0.0,0.0,0.0,0.0,0.0,0.0,0.0,0.0,0.0,0.0,0.0,0.0,0.0,0.0,0.0,0.0,-4.9661,-5.0881,-5.2109,-5.3437,-5.3811,-5.3775,-5.3263,-5.3058,-5.2096,-5.0099,0.0,0.0,0.0,0.0,0.0,0.0,0.0,0.0,0.0,0.0,0.0,0.0,0.0,0.0,0.0,0.0,0.0,0.0,0.0,0.0,0.0,0.0,0.0,0.0,0.0,0.0,0.0,0.0,0.0,0.0,0.0,0.0,0.0,0.0,0.0,0.0,0.0,0.0,0.0,0.0,0.0,0.0,0.0,0.0,0.0,0.0,0.0,0.0,0.0,0.0,0.0,0.0,0.0,0.0,0.0,0.0,0.0,0.0,0.0,0.0,0.0,0.0,0.0,0.0,0.0,0.0,0.0,0.0,0.0,0.0,0.0,0.0,0.0,0.0,0.0,0.0,0.0,0.0,0.0,0.0,0.0,0.0,0.0,0.0,0.0,0.0,0.0,0.0,0.0,0.0,0.0,0.0,0.0,0.0,0.0,0.0,0.0,0.0,0.0,0.0,0.0,0.0,-4.7906,-4.9989,-5.1747,-5.2495,-5.3406,-5.398,-5.398,-5.1899,-5.0602,0.0,0.0,0.0,0.0,0.0,0.0,0.0,0.0,0.0,0.0,0.0,0.0,0.0,0.0,0.0,0.0,0.0,0.0,0.0,0.0,0.0,0.0,0.0,0.0,0.0,0.0,0.0,0.0,0.0,0.0,0.0,0.0,0.0,0.0,0.0,0.0,0.0,0.0,0.0,0.0,0.0,0.0,0.0,0.0,0.0,0.0,0.0,0.0,0.0,0.0,0.0,0.0,0.0,0.0,0.0,0.0,0.0,0.0,0.0,0.0,0.0,0.0,0.0,0.0,0.0,0.0,0.0,0.0,0.0,0.0,0.0,0.0,0.0,0.0,0.0,0.0,0.0,0.0,0.0,0.0,0.0,0.0,0.0,0.0,0.0,0.0,0.0,0.0,0.0,0.0,0.0,0.0,0.0,0.0,0.0,0.0,0.0,0.0,0.0,0.0,0.0,0.0,0.0,-4.7111,-4.9015,-5.0659,-5.1451,-5.2283,-5.2566,-5.1998,-5.1864,-5.0968,-4.8984,0.0,0.0,0.0,0.0,0.0,0.0,0.0,0.0,0.0,0.0,0.0,0.0,0.0,0.0,0.0,0.0,0.0,0.0,0.0,0.0,0.0,0.0,0.0,0.0,0.0,0.0,0.0,0.0,0.0,0.0,0.0,0.0,0.0,0.0,0.0,0.0,0.0,0.0,0.0,0.0,0.0,0.0,0.0,0.0,0.0,0.0,0.0,0.0,0.0,0.0,0.0,0.0,0.0,0.0,0.0,0.0,0.0,0.0,0.0,0.0,0.0,0.0,0.0,0.0,0.0,0.0,0.0,0.0,0.0,0.0,0.0,0.0,0.0,0.0,0.0,0.0,0.0,0.0,0.0,0.0,0.0,0.0,0.0,0.0,0.0,0.0,0.0,0.0,0.0,0.0,0.0,0.0,0.0,0.0,0.0,0.0,0.0,0.0,0.0,0.0,0.0,0.0,-4.634,-4.8443,-5.0094,-5.0584,-5.1353,-5.1609,-5.1149,-5.1014,-4.9993,-4.7725,0.0,0.0,0.0,0.0,0.0,0.0,0.0,0.0,0.0,0.0,0.0,0.0,0.0,0.0,0.0,0.0,0.0,0.0,0.0,0.0,0.0,0.0,0.0,0.0,0.0,0.0,0.0,0.0,0.0,0.0,0.0,0.0,0.0,0.0,0.0,0.0,0.0,0.0,0.0,0.0,0.0,0.0,0.0,0.0,0.0,0.0,0.0,0.0,0.0,0.0,0.0,0.0,0.0,0.0,0.0,0.0,0.0,0.0,0.0,0.0,0.0,0.0,0.0,0.0,0.0,0.0,0.0,0.0,0.0,0.0,0.0,0.0,0.0,0.0,0.0,0.0,0.0,0.0,0.0,0.0,0.0,0.0,0.0,0.0,0.0,0.0,0.0,0.0,0.0,0.0,0.0,0.0,0.0,0.0,0.0,0.0,0.0,0.0,0.0,0.0,0.0,0.0,-4.5586,-4.8003,-4.9705,-4.9769,-5.0532,-5.0995,-5.0995,-4.9706,-4.835,-4.6955,0.0,0.0,0.0,0.0,0.0,0.0,0.0,0.0,0.0,0.0,0.0,0.0,0.0,0.0,0.0,0.0,0.0,0.0,0.0,0.0,0.0,0.0,0.0,0.0,0.0,0.0,0.0,0.0,0.0,0.0,0.0,0.0,0.0,0.0,0.0,0.0,0.0,0.0,0.0,0.0,0.0,0.0,0.0,0.0,0.0,0.0,0.0,0.0,0.0,0.0,0.0,0.0,0.0,0.0,0.0,0.0,0.0,0.0,0.0,0.0,-4.6634,-4.6163,0.0,0.0,0.0,0.0,0.0,0.0,0.0,0.0,0.0,0.0,0.0,0.0,0.0,0.0,0.0,0.0,0.0,0.0,0.0,0.0,0.0,0.0,0.0,0.0,0.0,0.0,0.0,0.0,0.0,0.0,0.0,0.0,0.0,0.0,0.0,0.0,0.0,0.0,0.0,0.0,-4.4787,-4.6742,-4.8298,-4.8827,-4.9655,-5.0182,-5.0182,-4.9373,-4.8508,-4.7632,-4.5144,0.0,0.0,0.0,0.0,0.0,0.0,0.0,0.0,0.0,0.0,0.0,0.0,0.0,0.0,0.0,0.0,0.0,0.0,0.0,0.0,0.0,0.0,0.0,0.0,0.0,0.0,0.0,0.0,0.0,0.0,0.0,0.0,0.0,0.0,0.0,0.0,0.0,0.0,0.0,0.0,0.0,0.0,0.0,0.0,0.0,0.0,0.0,0.0,0.0,0.0,0.0,0.0,0.0,0.0,0.0,0.0,0.0,0.0,0.0,-4.7856,-4.7069,0.0,0.0,0.0,0.0,0.0,0.0,0.0,0.0,0.0,0.0,0.0,0.0,0.0,0.0,0.0,0.0,0.0,0.0,0.0,0.0,0.0,0.0,0.0,0.0,0.0,0.0,0.0,0.0,0.0,0.0,0.0,0.0,0.0,0.0,0.0,0.0,0.0,0.0,0.0,0.0,-4.4358,-4.6199,-4.7702,-4.8377,-4.8934,-4.9269,-4.9269,-4.8655,-4.7852,-4.6803,-4.4499,0.0,0.0,0.0,0.0,0.0,0.0,0.0,0.0,0.0,0.0,0.0,0.0,0.0,0.0,0.0,0.0,0.0,0.0,0.0,0.0,0.0,0.0,0.0,0.0,0.0,0.0,0.0,0.0,0.0,0.0,0.0,0.0,0.0,0.0,0.0,0.0,0.0,0.0,0.0,0.0,0.0,0.0,0.0,0.0,0.0,0.0,0.0,0.0,0.0,0.0,0.0,0.0,0.0,-5.078,-5.1391,-5.2067,-5.1977,-5.1858,-5.1618,-4.9314,-4.8446,-4.8536,-4.7339,0.0,0.0,0.0,0.0,0.0,0.0,0.0,0.0,0.0,0.0,0.0,0.0,0.0,0.0,0.0,0.0,0.0,0.0,0.0,0.0,0.0,0.0,-4.5233,-4.4043,-4.515,-4.5927,-4.3904,0.0,0.0,0.0,0.0,0.0,0.0,0.0,0.0,0.0,0.0,0.0,-4.4311,-4.5999,-4.7374,-4.8168,-4.8427,-4.851,-4.851,-4.7866,-4.6975,-4.5756,-4.3782,-4.2093,0.0,0.0,0.0,0.0,0.0,0.0,0.0,0.0,0.0,0.0,0.0,0.0,0.0,0.0,0.0,0.0,0.0,0.0,0.0,0.0,0.0,0.0,0.0,0.0,0.0,0.0,0.0,0.0,0.0,0.0,0.0,0.0,-4.906,-4.906,0.0,0.0,0.0,0.0,0.0,0.0,0.0,0.0,0.0,0.0,0.0,0.0,0.0,-4.9643,-5.069,-5.1439,-5.2396,-5.3563,-5.4221,-5.488,-5.5508,-5.494,-5.4371,-5.3773,-5.2815,0.0,-4.9867,-4.9194,0.0,0.0,0.0,0.0,0.0,0.0,0.0,0.0,0.0,0.0,0.0,0.0,0.0,0.0,0.0,0.0,0.0,0.0,0.0,0.0,0.0,0.0,-4.6395,-4.5638,-4.6313,-4.692,-4.6035,-4.5109,-4.4167,-4.2872,-4.2698,-4.2334,0.0,0.0,0.0,0.0,0.0,0.0,-4.4664,-4.5677,-4.6681,-4.7927,-4.8049,-4.8091,-4.8091,-4.7471,-4.6772,-4.6021,-4.3996,-4.2538,-4.1748,-3.9773,0.0,0.0,0.0,0.0,0.0,0.0,0.0,0.0,0.0,0.0,0.0,0.0,0.0,0.0,0.0,0.0,0.0,0.0,0.0,0.0,0.0,0.0,0.0,0.0,0.0,0.0,0.0,0.0,0.0,-4.8709,-4.9221,-4.879,-4.9094,-4.8925,0.0,0.0,0.0,0.0,0.0,0.0,0.0,0.0,0.0,-5.1456,-5.0437,-5.069,-5.2364,-5.2317,-5.2612,-5.3189,-5.3848,-5.4364,-5.4595,-5.3988,-5.3526,-5.3184,-5.2601,-5.1648,-5.0485,-5.0384,-4.9763,-4.879,0.0,0.0,0.0,0.0,-4.6285,-4.5933,-4.573,-4.519,-4.4464,-4.4425,0.0,0.0,0.0,0.0,0.0,0.0,0.0,-4.2492,-4.284,-4.3885,-4.4875,-4.4932,-4.5614,-4.5974,-4.5338,-4.5094,-4.4734,-4.3838,-4.3386,-4.2724,-4.1437,-4.1301,0.0,0.0,0.0,-4.3339,-4.4609,-4.5666,-4.6705,-4.7704,-4.7922,-4.8007,-4.8007,-4.7722,-4.7266,-4.6598,-4.502,-4.3736,-4.3039,-4.1098,-3.9768,0.0,0.0,0.0,0.0,0.0,0.0,0.0,0.0,0.0,0.0,0.0,0.0,0.0,0.0,0.0,0.0,0.0,0.0,0.0,0.0,0.0,0.0,0.0,0.0,0.0,0.0,0.0,0.0,-4.8605,-4.902,-4.8299,-4.8982,-4.8942,0.0,0.0,0.0,0.0,0.0,0.0,-5.0033,-5.0357,-5.118,-5.275,-5.1396,-5.1368,-5.2857,-5.2452,-5.235,-5.2491,-5.2939,-5.3304,-5.3444,-5.2827,-5.2546,-5.2518,-5.1955,-5.1337,-5.0716,-5.0793,-5.0188,-4.9127,-4.8479,-4.792,-4.7446,-4.6957,-4.6476,-4.6049,-4.6031,-4.549,-4.483,-4.4601,-4.4268,-4.3685,-4.1852,0.0,0.0,0.0,0.0,-4.1085,-4.2242,-4.2851,-4.3333,-4.3779,-4.4508,-4.4922,-4.4425,-4.4537,-4.4617,-4.4147,-4.3637,-4.2901,-4.1607,-4.1371,0.0,-4.0926,-4.2188,-4.3538,-4.4512,-4.5747,-4.6786,-4.7435,-4.7709,-4.7794,-4.7794,-4.7794,-4.7522,-4.6845,-4.5889,-4.5011,-4.4276,-4.2644,-4.1375,-4.0631,0.0,0.0,0.0,0.0,0.0,0.0,0.0,0.0,0.0,0.0,0.0,0.0,0.0,0.0,0.0,0.0,0.0,0.0,0.0,0.0,0.0,0.0,0.0,0.0,0.0,0.0,0.0,0.0,0.0,-4.806,-4.9028,0.0,0.0,0.0,0.0,-4.7696,-4.8902,-4.9603,-4.9603,-5.0696,-5.1451,-5.1699,-5.1616,-5.159,-5.1783,-5.1785,-5.2012,-5.2657,-5.274,-5.3078,-5.367,-5.3022,-5.2712,-5.2629,-5.201,-5.1337,-5.0719,-5.0045,-4.9422,-4.8826,-4.8185,-4.7954,-4.7891,-4.7228,-4.6954,-4.6841,-4.6238,-4.5327,-4.461,-4.518,-4.4532,-4.321,-4.1376,-4.1471,0.0,0.0,-4.0873,-4.1551,-4.0773,-4.1656,-4.2834,-4.2889,-4.3634,-4.434,-4.4312,-4.3845,-4.3395,-4.3375,-4.3318,-4.2896,-4.1543,0.0,-4.073,-4.1206,-4.1722,-4.2756,-4.4545,-4.5677,-4.6561,-4.7219,-4.7352,-4.7352,-4.7352,-4.7352,-4.7083,-4.6352,-4.6262,-4.5903,-4.5256,-4.4537,-4.3588,-4.2491,-4.1196,0.0,0.0,0.0,0.0,0.0,0.0,0.0,0.0,0.0,0.0,0.0,0.0,0.0,0.0,0.0,0.0,0.0,0.0,0.0,0.0,0.0,0.0,0.0,0.0,0.0,0.0,0.0,0.0,-4.8434,-4.9497,0.0,-4.8977,-4.9054,-4.9249,-4.9392,-5.0647,-5.1232,-5.0895,-5.1651,-5.2154,-5.2319,-5.1515,-5.1314,-5.1756,-5.098,-5.0681,-5.0896,-5.0896,-5.1003,-5.125,-5.0685,-5.0201,-4.9771,-4.915,-4.8559,-4.7995,-4.7725,-4.8353,-4.9483,-4.9182,-4.8845,-4.8453,-4.7457,-4.6895,-4.6459,-4.5493,-4.4916,-4.4573,-4.4494,-4.3381,-4.1954,-4.1297,-4.0872,-4.0522,-4.0304,-4.0552,-4.0927,-4.0979,-4.139,-4.1819,-4.1819,-4.2115,-4.2382,-4.2382,-4.2172,-4.1904,-4.1528,-4.1828,-4.1864,-4.0994,-4.0994,-4.105,-4.0811,-4.1959,-4.3101,-4.3754,-4.4526,-4.5096,-4.5343,-4.5372,-4.5372,-4.5372,-4.5372,-4.5286,-4.501,-4.5215,-4.4938,-4.4062,-4.3656,-4.2777,-4.1299,-3.9992,-3.8822,0.0,0.0,0.0,0.0,0.0,0.0,0.0,0.0,0.0,0.0,0.0,0.0,0.0,0.0,0.0,0.0,0.0,0.0,0.0,0.0,0.0,0.0,0.0,0.0,0.0,-4.684,-4.7907,-4.8301,-4.9204,-4.9653,-4.9118,-4.9145,-4.9309,-4.9637,-5.0566,-5.0976,-5.0763,-5.1311,-5.153,-5.1338,-5.0505,-5.0148,-5.0249,-4.9389,-4.8997,-4.8997,-4.8997,-4.8997,-4.8997,-4.8633,-4.8165,-4.7594,-4.7146,-4.6664,-4.61,-4.6491,-4.7362,-4.8543,-4.8571,-4.8268,-4.7695,-4.6975,-4.633,-4.5715,-4.4884,-4.4559,-4.4481,-4.3801,-4.2787,-4.1801,-4.1412,-4.0763,-4.0218,-4.0374,-4.0426,-4.0504,-4.0919,-4.1123,-4.1147,-4.1147,-4.1198,-4.1324,-4.1324,-4.1324,-4.1089,-4.0305,-4.067,-4.1005,-4.0594,-4.0539,-4.0539,-4.0466,-4.1469,-4.2352,-4.2546,-4.338,-4.3975,-4.3975,-4.4172,-4.4312,-4.4312,-4.3947,-4.3825,-4.3975,-4.3849,-4.3567,-4.3076,-4.2908,-4.2167,-4.0603,-3.8891,-3.7585,-3.6699,0.0,0.0,0.0,0.0,0.0,0.0,0.0,0.0,0.0,0.0,0.0,0.0,0.0,0.0,0.0,0.0,0.0,0.0,0.0,0.0,0.0,0.0,0.0,-4.4715,-4.6148,-4.7316,-4.7637,-4.8187,-4.8436,-4.8244,-4.749,-4.7328,-4.8166,-4.8477,-4.8729,-4.9027,-4.9584,-4.9429,-4.8558,-4.8558,-4.8094,-4.7205,-4.7205,-4.7205,-4.7205,-4.7205,-4.7205,-4.7205,-4.718,-4.6898,-4.6385,-4.636,-4.5891,-4.5274,-4.6363,-4.6461,-4.5995,-4.6386,-4.6159,-4.5607,-4.5607,-4.5216,-4.4613,-4.4341,-4.4287,-4.4155,-4.3236,-4.3003,-4.2798,-4.1643,-4.1285,-4.1157,-4.067,-4.0517,-4.0517,-4.0517,-4.0694,-4.0896,-4.0896,-4.1097,-4.1274,-4.1274,-4.1274,-4.0934,-3.9786,-3.9969,-4.0334,-4.0357,-3.9442,-3.9102,-4.0226,-4.0268,0.0,-4.0993,-4.2371,-4.3283,-4.3283,-4.377,-4.4163,-4.4191,-4.3143,-4.2739,-4.3255,-4.2294,-4.19,-4.2503,-4.2503,-4.1912,-4.0603,-3.8187,-3.6536,-3.5843,0.0,0.0,0.0,0.0,0.0,0.0,0.0,0.0,0.0,0.0,0.0,0.0,0.0,0.0,0.0,0.0,0.0,0.0,0.0,0.0,0.0,-4.4314,-4.5508,-4.5272,-4.6378,-4.741,-4.794,-4.8814,-4.9415,-4.9383,-4.9106,-4.9081,-4.9358,-4.9029,-4.872,-4.8403,-4.8532,-4.8292,-4.7581,-4.7555,-4.7478,-4.7205,-4.7205,-4.7205,-4.7205,-4.7205,-4.7205,-4.718,-4.6795,-4.6334,-4.577,-4.536,-4.4827,-4.4241,-4.463,-4.5089,-4.5814,-4.6927,-4.6642,-4.5618,-4.5618,-4.4944,-4.4042,-4.3496,-4.365,-4.383,-4.28,-4.2413,-4.2362,-4.2054,-4.1388,-4.0799,-4.0978,-4.0824,-4.0517,-4.0517,-4.0542,-4.0593,-4.0593,-4.0669,-4.072,-4.072,-4.072,-4.0359,-3.9249,-3.9146,-3.9217,-3.9164,-3.8919,-3.8972,-3.973,-3.9786,-3.9817,-3.9976,-4.0372,-4.0642,-4.0642,-4.0802,-4.1069,-4.1469,-4.0829,-4.0642,-4.1202,-4.1237,-4.1022,-4.0448,-4.0713,-3.9942,-3.8069,-3.7485,-3.6428,0.0,0.0,0.0,0.0,0.0,0.0,0.0,0.0,0.0,0.0,0.0,0.0,0.0,0.0,0.0,0.0,0.0,0.0,0.0,0.0,0.0,0.0,-4.5574,-4.6677,-4.6552,-4.712,-4.7714,-4.8227,-4.8815,-4.9285,-4.9409,-4.9285,-4.9183,-4.9076,-4.8646,-4.8212,-4.7744,-4.7718,-4.7504,-4.7078,-4.7053,-4.6993,-4.6815,-4.6815,-4.6815,-4.6815,-4.6815,-4.6815,-4.6789,-4.6256,-4.5697,-4.5138,-4.4554,-4.4107,-4.3734,-4.3964,-4.4449,-4.5195,0.0,0.0,0.0,0.0,-4.4463,-4.3823,-4.307,-4.3041,-4.3169,-4.2169,-4.1811,-4.176,-4.1531,-4.1023,-4.0515,-4.0617,-4.0388,-4.0134,-4.0134,-4.0236,-4.0338,-4.0338,-4.0389,-4.0517,-4.0517,-4.0312,-3.9876,-3.8953,-3.8595,0.0,-3.8411,-3.8381,-3.8558,-3.9038,-3.9042,-3.9012,-3.8919,-3.9076,-3.9233,-3.9233,-3.9651,-4.0069,-4.0383,-3.9677,0.0,0.0,0.0,-3.9229,-3.8893,-3.8891,0.0,0.0,0.0,0.0,0.0,-3.5224,0.0,0.0,-3.5291,-3.5251,0.0,0.0,0.0,0.0,0.0,0.0,0.0,0.0,0.0,0.0,0.0,0.0,0.0,0.0,0.0,0.0,-4.6979,-4.8008,-4.8008,-4.7958,-4.8032,-4.8393,-4.8368,-4.8517,-4.8815,-4.8629,-4.8339,-4.8084,-4.7739,-4.7399,-4.7112,-4.7087,0.0,0.0,0.0,-4.6626,-4.6301,-4.6301,-4.6301,-4.6301,-4.6301,-4.6301,-4.6276,-4.5673,-4.5121,-4.4593,-4.3966,-4.3582,-4.3376,-4.3964,-4.4218,-4.432,-4.5164,-4.5482,-4.5303,-4.4249,-4.384,-4.3687,-4.2801,0.0,0.0,-4.1433,-4.115,-4.11,-4.0651,-4.0526,-4.0425,-3.9923,-3.9798,-3.9772,-3.9722,-3.9878,-4.0032,-4.0032,-4.0236,-4.0415,-4.0415,-4.0005,-3.9442,-3.8853,-3.8268,-3.7859,-3.7807,-3.7881,-3.8002,-3.8312,-3.8312,-3.8152,-3.784,-3.8277,-3.8616,-3.8616,-3.9581,0.0,-4.036,-3.9316,-3.8924,-3.9573,-3.8031,-3.7351,-3.7874,-3.7403,-3.7063,-3.7011,-3.6541,-3.6253,-3.6096,-3.6175,-3.6201,-3.6175,-3.4607,-3.4424,0.0,0.0,0.0,0.0,0.0,0.0,0.0,0.0,0.0,0.0,0.0,0.0,0.0,0.0,0.0,-4.6702,-4.7832,-4.8611,-4.8611,-4.8209,-4.7908,-4.797,-4.797,-4.8208,-4.875,-4.8737,-4.8485,-4.7993,-4.7478,-4.7,-4.6506,-4.6481,-4.6421,-4.6361,-4.6361,-4.6386,-4.6301,-4.6301,-4.6301,-4.6301,-4.6301,0.0,-4.6276,-4.5246,-4.4719,-4.4568,-4.3564,-4.3143,-4.3098,-4.3199,-4.3501,-4.3979,-4.4591,-4.4515,-4.4112,-4.3885,-4.3532,-4.3002,-4.1965,-4.189,-4.2041,-4.0475,-4.03,-4.0651,-4.0551,-4.0526,0.0,-4.0375,-4.035,-4.0249,-3.9798,-3.9749,-3.98,-3.98,-3.9852,-3.9852,-3.9852,-3.9398,-3.8894,-3.8264,-3.7709,-3.7253,-3.6799,-3.7362,-3.7954,-3.8075,-3.8027,-3.7796,-3.7325,-3.7689,-3.8049,-3.8049,-3.8666,-3.9355,-3.999,-3.9055,-3.8735,-3.9573,-3.8423,-3.7769,-3.79,-3.7795,-3.7508,-3.7011,-3.7351,-3.7063,-3.6096,-3.6593,-3.6828,-3.6802,-3.5992,-3.573,0.0,0.0,0.0,0.0,0.0,0.0,0.0,0.0,0.0,0.0,0.0,-4.4066,-4.4895,0.0,-4.6677,-4.7782,-4.841,-4.8761,-4.8761,-4.8259,-4.7908,-4.7908,-4.7908,-4.8134,-4.8711,-4.9012,-4.8837,-4.7983,-4.7657,-4.7179,-4.6351,-4.6301,-4.6301,-4.6301,-4.6301,-4.6301,-4.6301,-4.6301,-4.6301,-4.6301,-4.6301,-4.6175,-4.5874,-4.502,-4.4468,-4.4166,-4.3338,-4.2986,-4.2986,-4.2986,-4.3137,-4.3438,-4.3991,-4.4217,-4.4141,-4.3589,-4.3388,-4.3237,-4.2133,-4.1756,-4.1555,-4.0475,-4.0099,-4.0099,-4.0099,-4.03,-4.045,-4.0174,-4.03,-4.04,-3.9848,-3.9697,-3.9697,-3.9697,-3.9697,-3.9697,-3.9697,-3.927,-3.8693,-3.8115,-3.7563,-3.701,-3.6505,-3.7048,-3.7619,-3.7789,-3.8018,-3.8095,-3.7957,-3.8162,-3.8341,-3.8341,-3.8853,-3.9338,-3.9769,-3.8997,-3.8501,-3.8359,-3.7816,-3.7505,-3.7505,-3.7505,-3.7376,-3.7065,-3.7514,-3.7358,-3.6625,-3.7027,-3.7248,-3.7248,-3.68,-3.676,0.0,0.0,0.0,0.0,0.0,0.0,0.0,-4.4141,-4.4468,-4.4568,-4.4769,-4.5347,-4.6702,-4.6954,-4.738,-4.8711,-4.8937,-4.8937,-4.8937,-4.8435,-4.8109,-4.8234,-4.8134,-4.8309,-4.8887,-4.9339,-4.9113,-4.7983,-4.7908,-4.7431,-4.6376,-4.6301,-4.6301,-4.6301,-4.6301,-4.6301,-4.6301,-4.6301,-4.6301,-4.6301,-4.62,-4.5924,-4.5472,-4.4769,-4.4217,-4.3765,-4.3212,-4.2986,-4.2986,-4.2986,-4.2986,-4.3011,-4.3463,-4.3991,-4.4342,-4.3463,-4.3338,-4.3489,-4.2564,-4.1781,-4.12,-4.0701,-4.0149,-3.9697,-3.9697,-4.0149,-4.0551,-3.9873,-4.0174,-4.0526,-3.9873,-3.9697,-3.9697,-3.9697,-3.9697,-3.9697,-3.9697,-3.927,-3.8693,-3.8115,-3.7563,-3.701,-3.6505,-3.6782,-3.7132,-3.7324,-3.7906,-3.8383,-3.8477,-3.8656,-3.8809,-3.8809,-3.9267,-3.9547,-3.9392,-3.9007,-3.8313,-3.7185,-3.7108,-3.7108,-3.7108,-3.7108,-3.7108,-3.7108,-3.732,-3.732,-3.7108,-3.732,-3.7413,-3.7413,-3.7201,-3.7413,-4.1752,-4.1656,-4.2489,-4.3966,-4.4016,-4.4242,0.0,-4.6728,-4.6903,-4.7355,-4.8259,-4.9012,-4.9188,-4.9213,-4.9289,-4.9464,-4.9515,-4.9515,-4.9515,-4.9012,-4.8862,-4.9339,-4.8962,-4.8887,-4.9439,-4.9565,-4.9113,-4.7983,-4.7908,-4.7431,-4.6376,-4.6301,-4.6301,-4.6301,-4.6301,-4.6301,-4.6301,-4.6301,-4.6301,-4.6301,-4.5824,-4.5547,-4.5447,-4.4392,-4.3865,-4.3765,-4.3212,-4.2986,-4.2986,-4.2986,-4.2986,-4.2986,-4.3037,-4.3413,-4.3865,-4.374,-4.3438,-4.2986,-4.2414,-4.1781,-4.12,-4.0701,-4.0149,-3.9697,-3.9697,-4.0425,-4.0974,-3.9998,-4.045,-4.0949,-3.9973,-3.9697,-3.9697,-3.9697,-3.9697,-3.9697,-3.9697,-3.927,-3.8693,-3.8115,-3.7563,-3.701,-3.6505,-3.6455,-3.6505,-3.6553,-3.7385,-3.7888,-3.7434,-3.8265,-3.8869,-3.8869,-3.9372,-3.9398,-3.8586,-3.8679,-3.8313,-3.7185,-3.7108,-3.7108,-3.7108,-3.7108,-3.7108,-3.7108,-3.7108,-3.7108,-3.7108,-3.7108,-3.7155,-3.7155,-3.7108,-3.7413,-4.2936,-4.3413,-4.4342,-4.5347,-4.615,-4.6928,-4.7883,-4.8586,-4.9012,-4.8912,-4.9264,-4.959,-4.959,-4.9339,-4.9213,-4.954,-4.959,-4.959,-4.959,-4.9389,-4.9339,-4.9565,-4.9389,-4.9339,-4.9565,-4.959,-4.9113,-4.7983,-4.7908,-4.7431,-4.6376,-4.6301,-4.6301,-4.6301,-4.6301,-4.6301,-4.6301,-4.6301,-4.615,-4.5824,-4.5598,-4.5146,-4.4493,-4.4016,-4.3639,-4.3313,-4.3087,-4.2986,-4.2986,-4.2986,-4.2986,-4.2986,-4.2986,-4.3112,-4.3313,-4.3313,-4.3388,-4.3388,-4.2866,-4.2057,-4.125,-4.1025,-4.04,-3.9697,-3.9697,-4.0475,-4.105,-3.9998,-4.0501,-4.1025,-3.9973,-3.9697,-3.9697,-3.9697,-3.9697,-3.9697,-3.9697,-3.9521,-3.917,-3.8617,-3.804,-3.7487,-3.6935,-3.6631,-3.6405,-3.6405,-3.7036,-3.7688,-3.8115,-3.8617,-3.9045,-3.932,-3.9546,-3.9422,-3.8743,-3.8438,-3.8005,-3.7219,-3.6865,-3.6687,-3.6687,-3.6687,-3.6687,-3.6687,-3.6828,-3.6828,-3.6687,-3.6828,-3.6875,-3.6875,-3.6734,-3.7147,-4.3865,-4.4844,-4.5874,-4.6577,-4.7883,-4.9038,-4.9188,-5.0092,-5.077,-5.0368,-5.0293,-5.0243,-5.0092,-4.9615,-4.9314,-4.9565,-4.959,-4.959,-4.959,-4.959,-4.959,-4.959,-4.959,-4.959,-4.959,-4.9464,-4.8962,-4.7983,-4.7782,-4.728,-4.6351,-4.6301,-4.6301,-4.6301,-4.6301,-4.6301,-4.6301,-4.6301,-4.6024,-4.5497,-4.5321,-4.4744,-4.379,-4.3639,-4.3363,-4.2986,-4.2986,-4.2986,-4.2986,-4.2986,-4.2986,-4.2986,-4.2986,-4.2986,-4.2986,-4.2986,-4.3237,-4.3514,-4.3112,-4.2359,-4.153,-4.1326,-4.0701,-3.9898,-3.9747,-4.0475,-4.105,-3.9998,-4.0501,-4.1025,-3.9973,-3.9697,-3.9697,-3.9697,-3.9697,-3.9697,-3.9697,-3.9697,-3.9521,-3.8969,-3.8542,-3.8015,-3.7312,-3.6908,-3.6581,-3.643,-3.6757,-3.7362,-3.8492,-3.8768,-3.8969,-3.9195,-3.922,-3.9069,-3.8668,-3.8241,-3.7764,-3.7211,-3.6857,-3.6556,-3.6405,-3.6405,-3.6405,-3.6405,-3.6546,-3.6546,-3.6405,-3.6698,-3.6868,-3.6868,-3.683,-3.7228,-4.4443,-4.5422,-4.6527,-4.7606,-4.8711,-4.9715,-5.0243,-5.1247,-5.2051,-5.2026,-5.2026,-5.1875,-5.1322,-5.077,-5.0193,-4.9665,-4.959,-4.959,-4.959,-4.959,-4.959,-4.959,-4.959,-4.959,-4.959,-4.9113,-4.856,-4.7958,-4.7431,-4.6903,-4.6351,-4.6301,-4.6301,-4.6301,-4.6301,-4.6301,-4.6301,-4.6301,-4.6024,-4.5472,-4.492,-4.4342,-4.379,-4.3237,-4.2986,-4.2986,-4.2986,-4.2986,-4.2986,-4.2986,-4.2986,-4.2986,-4.2986,-4.2986,-4.2986,-4.2986,-4.2986,-4.3011,-4.2986,-4.2665,-4.2112,-4.1505,-4.0953,-4.04,-3.9848,-4.0475,-4.105,-3.9998,-4.0501,-4.1025,-3.9973,-3.9697,-3.9697,-3.9697,-3.9697,-3.9697,-3.9697,-3.9697,-3.9521,-3.8969,-3.8919,-3.8542,-3.7387,-3.7161,-3.6985,-3.648,-3.643,-3.6832,-3.7889,-3.8517,-3.8668,-3.8115,-3.8065,-3.804,-3.804,-3.8015,-3.7764,-3.7211,-3.7161,-3.691,-3.643,-3.6405,-3.6405,-3.6405,-3.6405,-3.6405,-3.6405,-3.6958,-3.7209,-3.7235,-3.7713,-3.7965,-4.441,-4.5833,-4.7556,-4.8309,-4.9615,-5.077,-5.0946,-5.185,-5.2553,-5.2176,-5.1498,-5.082,-5.0268,-5.0017,-4.969,-4.9138,-4.9665,-5.0017,-4.964,-4.959,-4.959,-4.959,-4.959,-4.959,-4.959,-4.9088,-4.8535,-4.7958,-4.7431,-4.6903,-4.6351,-4.6301,-4.6301,-4.6301,-4.6301,-4.6301,-4.6301,-4.6301,-4.5849,-4.4895,-4.3991,-4.3438,-4.3237,-4.3062,-4.2986,-4.2986,-4.2986,-4.2986,-4.2986,-4.2986,-4.2986,-4.2986,-4.2986,-4.2986,-4.2986,-4.2986,-4.2986,-4.2986,-4.2986,-4.2665,-4.2187,-4.1932,-4.1254,-4.0551,-4.0727,-4.1,-4.1125,-4.045,-4.0777,-4.1025,-3.9973,-3.9697,-3.9697,-3.9697,-3.9697,-3.9697,-3.9697,-3.9697,-3.9647,-3.9446,-3.912,-3.8793,-3.8416,-3.799,-3.7538,-3.6985,-3.6958,-3.7036,-3.7412,-3.7939,-3.8216,-3.8015,-3.8341,-3.8567,-3.8567,-3.8567,-3.8492,-3.8366,-3.7588,-3.7111,-3.6958,-3.6606,-3.6405,-3.6405,-3.6782,-3.6958,-3.691,-3.7462,-3.7739,-3.7739,-3.7914,-3.8015,-4.3778,-4.5158,-4.6761,-4.7386,-4.8854,-5.0263,-5.0461,-5.1462,-5.2302,-5.2126,-5.1197,-5.0243,-4.969,-4.9439,-4.9188,-4.8837,-4.954,-4.9992,-4.964,-4.9766,-4.9816,-4.9615,-4.959,-4.9515,-4.9314,-4.8786,-4.8309,-4.7933,-4.7255,-4.6677,-4.6326,-4.6301,-4.6301,-4.6301,-4.6301,-4.6301,-4.6301,-4.6125,-4.5447,-4.4317,-4.3413,-4.2986,-4.2986,-4.2986,-4.2986,-4.2986,-4.2986,-4.2986,-4.2986,-4.2986,-4.2986,-4.2986,-4.2986,-4.2986,-4.2986,-4.2986,-4.2986,-4.2986,-4.2986,-4.2735,-4.2464,-4.2263,-4.1681,-4.1128,-4.1225,-4.148,-4.148,-4.0727,-4.0902,-4.1025,-3.9973,-3.9697,-3.9697,-3.9697,-3.9697,-3.9697,-3.9697,-3.9697,-3.9697,-3.9697,-3.9396,-3.9094,-3.8944,-3.8391,-3.7814,-3.7262,-3.7186,-3.7111,-3.6958,-3.7362,-3.7638,-3.7437,-3.7813,-3.8089,-3.829,-3.8442,-3.8567,-3.8567,-3.8065,-3.7688,-3.7487,-3.7136,-3.6983,-3.6983,-3.7287,-3.7487,-3.7487,-3.804,-3.8316,-3.8316,-3.8316,-3.8316,-4.2784,-4.372,-4.4635,-4.5117,-4.6735,-4.843,-4.8936,-5.0216,-5.1423,-5.195,-5.1147,-5.0167,-4.969,-4.9163,-4.8812,-4.8786,-4.9289,-4.9665,-4.9615,-5.0042,-5.0167,-4.9665,-4.959,-4.9389,-4.8837,-4.8234,-4.7908,-4.7883,-4.6903,-4.6301,-4.6301,-4.6301,-4.6301,-4.6301,-4.6301,-4.6301,-4.6301,-4.5723,-4.4895,-4.379,-4.3237,-4.2986,-4.2986,-4.2986,-4.2986,-4.2986,-4.2986,-4.2986,-4.2986,-4.2986,-4.2986,-4.2986,-4.2986,-4.2986,-4.2986,-4.2986,-4.2986,-4.2986,-4.2986,-4.2986,-4.2886,-4.2414,-4.2238,-4.2112,-4.158,-4.1756,-4.1986,-4.0902,-4.0924,-4.1075,-4.0023,-3.9747,-3.9722,-3.9697,-3.9697,-3.9697,-3.9697,-3.9697,-3.9697,-3.9697,-3.9697,-3.9521,-3.9045,-3.8442,-3.7864,-3.7312,-3.7211,-3.6985,-3.648,-3.681,-3.6935,-3.6455,-3.643,-3.6656,-3.7136,-3.7688,-3.8015,-3.804,-3.8542,-3.8592,-3.8065,-3.8015,-3.8015,-3.8015,-3.804,-3.804,-3.8015,-3.8592,-3.8894,-3.8818,-3.8818,-3.8869,-4.2883,-4.4499,-4.6371,-4.5412,-4.6735,-4.8334,-4.8479,-4.9921,-5.1322,-5.1473,-5.0268,-4.9264,-4.954,-4.949,-4.9264,-4.8837,-4.9941,-5.0544,-4.9715,-4.9715,-4.9741,-4.9615,-4.959,-4.9389,-4.8837,-4.8234,-4.7732,-4.7355,-4.6702,-4.6301,-4.6301,-4.6301,-4.6301,-4.6301,-4.6301,-4.6301,-4.6301,-4.5347,-4.4493,-4.379,-4.3237,-4.2986,-4.2986,-4.2986,-4.2986,-4.2986,-4.2986,-4.2986,-4.2986,-4.2986,-4.2986,-4.2986,-4.2986,-4.2986,-4.2986,-4.2986,-4.2986,-4.2986,-4.2986,-4.2986,-4.2961,-4.2811,-4.2539,-4.2263,-4.2484,-4.2359,-4.2162,-4.1861,-4.1886,-4.1681,-4.0601,-4.03,-4.0199,-3.9798,-3.9697,-3.9697,-3.9697,-3.9697,-3.9697,-3.9697,-3.9697,-3.9647,-3.9496,-3.9019,-3.8467,-3.7889,-3.7437,-3.6985,-3.648,-3.6531,-3.6556,-3.643,-3.6782,-3.7036,-3.7186,-3.7688,-3.8191,-3.8617,-3.8391,-3.8341,-3.8642,-3.8241,-3.8015,-3.8015,-3.8442,-3.8442,-3.8015,-3.8592,-3.8642,-3.8216,-3.8216,-3.8015,-4.27,-4.3939,-4.5323,-4.4504,-4.5598,-4.687,-4.6634,-4.845,-5.0042,-4.9565,-4.8711,-4.8083,-4.8134,-4.836,-4.8586,-4.8736,-4.9766,-5.0393,-5.0017,-4.9967,-4.9866,-4.9615,-4.959,-4.9289,-4.846,-4.8109,-4.7581,-4.6828,-4.6476,-4.6301,-4.6301,-4.6301,-4.6301,-4.6301,-4.6301,-4.6075,-4.5573,-4.4945,-4.4217,-4.3438,-4.3112,-4.2986,-4.2986,-4.2986,-4.2986,-4.2986,-4.2986,-4.2986,-4.2986,-4.2986,-4.2986,-4.2986,-4.2986,-4.2986,-4.2986,-4.2986,-4.2986,-4.2986,-4.2986,-4.2986,-4.2986,-4.2986,-4.2816,-4.264,-4.2886,-4.276,-4.2514,-4.2288,-4.2213,-4.2011,-4.1103,-4.0701,-4.045,-4.0124,-3.9873,-3.9697,-3.9697,-3.9697,-3.9697,-3.9697,-3.9697,-3.9697,-3.9697,-3.9446,-3.9044,-3.8467,-3.7914,-3.7337,-3.6832,-3.6556,-3.6405,-3.6405,-3.6681,-3.6883,-3.6883,-3.7337,-3.7789,-3.8115,-3.8065,-3.814,-3.8492,-3.8191,-3.8015,-3.8015,-3.8316,-3.8341,-3.8015,-3.8341,-3.8316,-3.799,-3.7764,-3.7487,-4.2598,-4.309,-4.3631,-4.3445,-4.4436,-4.5364,-4.472,-4.673,-4.836,-4.7255,-4.6968,-4.6928,-4.6577,-4.6979,-4.7707,-4.8812,-4.9464,-4.9967,-5.0368,-5.0419,-5.0218,-4.9665,-4.959,-4.9138,-4.8008,-4.7908,-4.7456,-4.6401,-4.6301,-4.6301,-4.6301,-4.6301,-4.6301,-4.6301,-4.6301,-4.5773,-4.4644,-4.4618,-4.4066,-4.2986,-4.2986,-4.2986,-4.2986,-4.2986,-4.2986,-4.2986,-4.2986,-4.2986,-4.2986,-4.2986,-4.2986,-4.2986,-4.2986,-4.2986,-4.2986,-4.2986,-4.2986,-4.2986,-4.2986,-4.2986,-4.2986,-4.2986,-4.2986,-4.2986,-4.2986,-4.2986,-4.2886,-4.2464,-4.2313,-4.2187,-4.158,-4.1103,-4.0701,-4.0551,-4.0149,-3.9798,-3.9722,-3.9697,-3.9697,-3.9697,-3.9697,-3.9697,-3.9697,-3.9697,-3.9496,-3.8994,-3.8442,-3.7889,-3.7262,-3.6757,-3.6405,-3.6405,-3.6405,-3.6405,-3.6405,-3.6857,-3.7111,-3.7186,-3.7638,-3.7939,-3.8015,-3.8015,-3.8015,-3.8015,-3.8015,-3.7965,-3.7889,-3.7889,-3.7864,-3.7789,-3.7287,-3.7086,-4.3665,-4.5096,-4.6335,-4.5119,-4.5932,-4.6764,-4.5787,-4.6812,-4.7757,-4.6677,-4.6451,-4.6702,-4.7481,-4.8109,-4.8862,-4.9967,-5.0619,-5.0845,-5.0469,-5.0419,-5.0218,-4.9665,-4.959,-4.9138,-4.8008,-4.7908,-4.7456,-4.6401,-4.6301,-4.6301,-4.6301,-4.6301,-4.6301,-4.6301,-4.6301,-4.5773,-4.4644,-4.4618,-4.4066,-4.2986,-4.2986,-4.2986,-4.2986,-4.2986,-4.2986,-4.2986,-4.2986,-4.2986,-4.2986,-4.2986,-4.2986,-4.2986,-4.2986,-4.2986,-4.2986,-4.2986,-4.2986,-4.2986,-4.2986,-4.2986,-4.2986,-4.2986,-4.2986,-4.2986,-4.2986,-4.2986,-4.2961,-4.2861,-4.2836,-4.2766,-4.2213,-4.1986,-4.1685,-4.0727,-4.045,-4.0249,-3.9798,-3.9697,-3.9697,-3.9697,-3.9697,-3.9697,-3.9697,-3.9697,-3.9496,-3.8994,-3.8844,-3.8341,-3.7312,-3.6757,-3.6405,-3.6405,-3.6405,-3.6405,-3.6405,-3.6505,-3.6757,-3.7161,-3.7287,-3.7538,-3.799,-3.8015,-3.8015,-3.8015,-3.8015,-3.7789,-3.7337,-3.7337,-3.7086,-3.6681,-3.6606,-3.6556,-4.5183,-4.6377,-4.7628,-4.6607,-4.668,-4.659,-4.5206,-4.6044,-4.6602,-4.492,-4.502,-4.5497,-4.5723,-4.6476,-4.7431,-4.8535,-4.8937,-4.9414,-5.0293,-4.9916,-4.9665,-4.9992,-4.9766,-4.9138,-4.8008,-4.7908,-4.7456,-4.6401,-4.6301,-4.6301,-4.6301,-4.6301,-4.6301,-4.6301,-4.6024,-4.5472,-4.4644,-4.4342,-4.379,-4.2986,-4.2986,-4.2986,-4.2986,-4.2986,-4.2986,-4.2986,-4.2986,-4.2986,-4.2986,-4.2986,-4.2986,-4.2986,-4.2986,-4.2986,-4.2986,-4.2986,-4.2986,-4.2986,-4.2986,-4.2986,-4.2986,-4.2986,-4.2986,-4.2986,-4.2986,-4.2986,-4.2986,-4.2986,-4.2986,-4.2911,-4.2715,-4.2414,-4.2087,-4.148,-4.0927,-4.0375,-3.9823,-3.9697,-3.9697,-3.9697,-3.9697,-3.9697,-3.9697,-3.9697,-3.9597,-3.9346,-3.9095,-3.8668,-3.8115,-3.736,-3.6732,-3.643,-3.6405,-3.6405,-3.6405,-3.6405,-3.6531,-3.6782,-3.6807,-3.6933,-3.7136,-3.7161,-3.6894,-3.6358,-3.6894,-3.6769,-3.5965,-3.6495,-3.6656,-3.6405,-3.6405,-3.6405,-4.6817,-4.7614,-4.8616,-4.8179,-4.7571,-4.6609,-4.4946,-4.539,-4.5522,-4.3413,-4.3765,-4.4342,-4.4041,-4.4794,-4.5874,-4.7104,-4.7305,-4.8033,-5.0117,-4.9565,-4.9314,-5.0293,-4.9941,-4.9138,-4.8008,-4.7908,-4.7456,-4.6401,-4.6301,-4.6301,-4.6301,-4.6301,-4.6301,-4.6301,-4.5773,-4.5221,-4.4644,-4.4091,-4.3514,-4.2986,-4.2986,-4.2986,-4.2986,-4.2986,-4.2986,-4.2986,-4.2986,-4.2986,-4.2986,-4.2986,-4.2986,-4.2986,-4.2986,-4.2986,-4.2986,-4.2986,-4.2986,-4.2986,-4.2986,-4.2986,-4.2986,-4.2986,-4.2986,-4.2986,-4.2986,-4.2986,-4.2905,-4.2681,-4.2569,-4.2569,-4.2569,-4.2078,-4.1515,-4.1293,-4.0424,-3.9639,-3.9382,-3.931,-3.931,-3.931,-3.9517,-3.9517,-3.9025,-3.9154,-3.9258,-3.8973,-3.8576,-3.8306,-3.8183,-3.7568,-3.6971,-3.6424,-3.6388,-3.6405,-3.6405,-3.6405,-3.6405,-3.6405,-3.6405,-3.6405,-3.6405,-3.6405,-3.5906,-3.4824,-3.5619,-3.5619,-3.4775,-3.5667,-3.6218,-3.6581,-3.6581,-3.6656,-4.8403,-4.9414,-5.0197,-5.0147,-4.9346,-4.8146,-4.6495,-4.5805,-4.507,-4.3338,-4.3463,-4.4016,-4.4468,-4.507,-4.5999,-4.7581,-4.7832,-4.8435,-5.0167,-4.9891,-4.9741,-5.0343,-4.9941,-4.9138,-4.8008,-4.7908,-4.7456,-4.6401,-4.6301,-4.6301,-4.6301,-4.6301,-4.6301,-4.6301,-4.5773,-4.5221,-4.4644,-4.4091,-4.3514,-4.2986,-4.2986,-4.2986,-4.2986,-4.2986,-4.2986,-4.2986,-4.2986,-4.2986,-4.2986,-4.2986,-4.2986,-4.2986,-4.2986,-4.2986,-4.2986,-4.2986,-4.2986,-4.2986,-4.2986,-4.2986,-4.2986,-4.2986,-4.2986,-4.2986,-4.2986,-4.2986,-4.2737,-4.1615,-4.1272,-4.1272,-4.1272,-4.0361,-3.9267,-3.8341,-3.7636,-3.7356,-3.794,-3.8056,-3.8056,-3.8056,-3.8921,-3.9025,-3.6911,-3.7394,-3.7713,-3.6673,-3.6487,-3.6279,-3.5763,-3.654,-3.6922,-3.6392,-3.6356,-3.6405,-3.6405,-3.6405,-3.6405,-3.6405,-3.6405,-3.6405,-3.6405,-3.6405,-3.5906,-3.4824,-3.4872,-3.4872,-3.4775,-3.4872,-3.5721,-3.7111,-3.7111,-3.7387,-4.886,-5.0155,-5.1272,-5.0594,-4.9841,-4.8761,-4.6778,-4.5874,-4.502,-4.3313,-4.3162,-4.3363,-4.3589,-4.3815,-4.4418,-4.5723,-4.5924,-4.6627,-4.8636,-4.8711,-4.8912,-4.9816,-4.9439,-4.8786,-4.7983,-4.7631,-4.7129,-4.6376,-4.6301,-4.6301,-4.6301,-4.6301,-4.615,-4.5824,-4.5271,-4.4694,-4.4141,-4.3589,-4.3187,-4.2986,-4.2986,-4.2986,-4.2986,-4.2986,-4.2986,-4.2986,-4.2986,-4.2986,-4.2986,-4.2986,-4.2986,-4.2986,-4.2986,-4.2986,-4.2986,-4.2986,-4.2986,-4.2986,-4.2986,-4.2986,-4.2986,-4.2986,-4.2513,-4.1866,-4.1866,-4.24,-4.2569,-4.05,-4.0524,-4.0928,-4.0152,-3.9569,-3.9055,-3.8263,-3.7713,-3.7376,-3.7309,-3.7068,-3.6911,-3.6911,-3.7287,-3.7287,-3.6348,-3.6565,-3.6727,-3.624,-3.6185,-3.6117,-3.591,-3.6008,-3.6279,-3.6713,-3.7146,-3.7337,-3.7337,-3.7337,-3.7337,-3.7337,-3.7337,-3.7045,-3.6382,-3.6996,-3.6184,-3.3714,-3.5011,-3.5011,-3.3663,-3.5011,-3.6057,-3.6651,-3.7369,-3.7444,-4.9554,-5.0592,-5.1448,-5.082,-4.9866,-4.8611,-4.6728,-4.5748,-4.4794,-4.3288,-4.2986,-4.2986,-4.2986,-4.2986,-4.3288,-4.4217,-4.4518,-4.5347,-4.738,-4.7682,-4.8083,-4.9213,-4.8862,-4.8284,-4.7732,-4.7205,-4.6728,-4.6351,-4.6301,-4.6225,-4.6075,-4.6075,-4.5899,-4.5497,-4.4769,-4.4192,-4.379,-4.3263,-4.2986,-4.2986,-4.2986,-4.2986,-4.2986,-4.2986,-4.2986,-4.2986,-4.2986,-4.2986,-4.2986,-4.2986,-4.2986,-4.2986,-4.2986,-4.2986,-4.2986,-4.2986,-4.2986,-4.2986,-4.2986,-4.2737,-4.2457,-4.2457,-4.1558,-4.0442,-4.0094,-4.0846,-4.1444,-3.9275,-3.9275,-3.9663,-3.8387,-3.8387,-3.843,-3.7546,-3.6996,-3.6598,-3.6387,-3.6002,-3.5717,-3.5717,-3.5968,-3.5968,-3.5278,-3.5443,-3.5608,-3.5223,-3.5168,-3.5168,-3.5168,-3.5128,-3.5466,-3.6267,-3.6984,-3.7463,-3.7518,-3.7494,-3.7494,-3.7494,-3.7494,-3.7144,-3.6312,-3.7093,-3.6033,-3.2952,-3.4484,-3.4484,-3.2899,-3.4537,-3.5718,-3.6552,-3.7365,-3.7412,-5.067,-5.087,-5.0569,-5.1122,-4.959,-4.7631,-4.6552,-4.5447,-4.4317,-4.3212,-4.2986,-4.2986,-4.2986,-4.2986,-4.3162,-4.3714,-4.4267,-4.5221,-4.6842,-4.7093,-4.7556,-4.8661,-4.8259,-4.7707,-4.7143,-4.6652,-4.6326,-4.6301,-4.6301,-4.6075,-4.5522,-4.5497,-4.5497,-4.5497,-4.4392,-4.3815,-4.379,-4.3263,-4.2986,-4.2986,-4.2986,-4.2986,-4.2986,-4.2986,-4.2986,-4.2986,-4.2986,-4.2986,-4.2986,-4.2986,-4.2986,-4.2986,-4.2986,-4.2986,-4.2986,-4.2986,-4.2986,-4.2986,-4.2986,-4.215,-4.11,-4.11,-4.0268,-3.898,-3.773,-3.8268,-3.898,-3.767,-3.7309,-3.7067,-3.5767,-3.6359,-3.6898,-3.5223,-3.4463,-3.4341,-3.4991,-3.4818,-3.4525,-3.4525,-3.5443,-3.5443,-3.3161,-3.3706,-3.4099,-3.2898,-3.2727,-3.2727,-3.2727,-3.3762,-3.4525,-3.4525,-3.553,-3.6254,-3.6306,-3.6312,-3.6312,-3.6312,-3.6312,-3.6312,-3.6312,-3.6312,-3.5263,-3.2952,-3.2899,-3.2899,-3.2899,-3.2899,-3.4366,-3.7104,-3.7104,-3.7368,-4.8159,-4.9138,-4.9715,-4.9113,-4.8736,-4.8008,-4.6175,-4.5472,-4.4794,-4.3288,-4.2986,-4.2986,-4.2986,-4.2986,-4.3288,-4.4217,-4.4518,-4.507,-4.6401,-4.6903,-4.7193,-4.7606,-4.7481,-4.7154,-4.6627,-4.6401,-4.6301,-4.6301,-4.5974,-4.5673,-4.5497,-4.4744,-4.4342,-4.4342,-4.3991,-4.3614,-4.3237,-4.3062,-4.2986,-4.2986,-4.2986,-4.2986,-4.2986,-4.2986,-4.2986,-4.2986,-4.2986,-4.2986,-4.2986,-4.2986,-4.2986,-4.2986,-4.2986,-4.2986,-4.2986,-4.2986,-4.2986,-4.2849,-4.198,-4.1444,-4.0985,-4.0094,-3.8921,-3.785,-3.7429,-3.8209,-3.8921,-3.7648,-3.6642,-3.589,-3.5479,-3.5726,-3.5848,-3.5375,-3.4631,-3.4149,-3.4395,-3.3822,-3.3275,-3.3275,-3.3537,-3.3593,-3.2841,-3.3012,-3.3161,-3.2784,-3.2669,-3.2669,-3.2669,-3.3069,-3.3614,-3.4413,-3.4803,-3.5363,-3.6177,-3.626,-3.6579,-3.734,-3.7392,-3.7392,-3.7392,-3.7392,-3.6314,-3.4065,-3.401,-3.359,-3.2777,-3.359,-3.4843,-3.644,-3.5708,-3.5831,-4.7054,-4.7883,-4.8335,-4.8259,-4.7883,-4.7179,-4.5799,-4.5171,-4.4493,-4.3237,-4.2986,-4.2986,-4.2986,-4.2986,-4.3212,-4.389,-4.4342,-4.4794,-4.5296,-4.62,-4.6828,-4.6828,-4.6828,-4.6702,-4.6351,-4.6301,-4.6225,-4.6024,-4.5673,-4.5296,-4.4869,-4.4192,-4.3714,-4.3489,-4.3489,-4.3313,-4.2986,-4.2986,-4.2986,-4.2986,-4.2986,-4.2986,-4.2986,-4.2986,-4.2986,-4.2986,-4.2986,-4.2986,0.0,-4.2986,-4.2986,-4.2986,-4.2986,-4.2986,-4.2986,-4.2986,-4.2986,-4.2793,-4.1558,-4.0813,-4.0152,-3.8921,-3.761,-3.6603,-3.6603,-3.7149,-3.761,-3.6785,-3.6013,-3.5418,-3.5418,-3.5418,-3.5376,-3.5211,-3.461,-3.4069,-3.3844,-3.3244,-3.2669,-3.2669,-3.2669,-3.2669,-3.2669,-3.2669,-3.2669,-3.2669,-3.2669,-3.2669,-3.2669,-3.2669,-3.3012,-3.3706,-3.3818,-3.4099,-3.4836,-3.5278,-3.5881,-3.6588,-3.6642,-3.6642,-3.6642,-3.6642,-3.5717,-3.3875,-3.3818,-3.3445,-3.2669,-3.3931,-3.4858,-3.5553,-3.4858,-3.4914,0.0,-4.6928,-4.6552,-4.8033,-4.6903,-4.5422,-4.5372,-4.4543,0.0,-4.3087,-4.2986,-4.2986,-4.2986,-4.2986,-4.2986,-4.3037,-4.394,-4.4443,-4.394,-4.5246,-4.6276,-4.6301,-4.6301,-4.6301,-4.6301,-4.6301,-4.6075,-4.5522,-4.5447,-4.497,-4.3915,-4.379,-4.3539,-4.3062,-4.2986,-4.2986,-4.2986,-4.2986,-4.2986,-4.2986,-4.2986,-4.2986,-4.2986,-4.2986,-4.2986,-4.2986,-4.2986,-4.2986,-4.2986,-4.2986,-4.2986,-4.2986,-4.2986,-4.2905,-4.2849,-4.2849,-4.2793,-4.2569,-4.1272,-4.0036,-3.8862,-3.761,-3.6359,-3.5418,-3.5418,-3.5418,-3.5418,-3.5418,-3.5418,-3.5418,-3.5376,-3.5376,-3.5273,-3.4878,-3.4422,-3.3966,-3.3472,-3.3037,-3.2669,-3.2669,-3.2669,-3.2669,-3.2669,-3.2669,-3.2669,-3.2669,-3.2669,-3.2669,-3.2669,-3.2669,-3.2669,-3.2669,-3.2669,-3.2669,-3.2669,-3.3706,-3.4435,-3.4469,-3.4469,-3.4525,-3.4636,-3.4525,-3.3987,-3.2841,-3.2727,-3.2669,-3.2669,-3.3818,-3.4357,-3.4357,-3.4357,-3.4357,-4.4468,0.0,-4.502,-4.497,-4.4895,-4.4719,0.0,-4.3991,-4.3639,-4.3087,-4.2986,-4.2986,-4.2986,-4.2986,-4.3112,-4.3539,-4.4192,-4.4568,-4.4443,-4.5146,-4.5849,-4.625,-4.6301,-4.6301,-4.6301,-4.6301,-4.6075,-4.5522,-4.507,-4.4719,-4.4443,-4.3639,-4.3313,-4.3589,-4.3187,-4.2986,-4.2986,-4.2986,-4.2986,-4.2986,-4.2986,-4.2986,-4.2986,-4.2986,-4.2986,-4.2986,-4.2986,-4.2986,-4.2986,-4.2986,-4.2986,-4.2986,-4.2986,-4.24,-4.1558,-4.1558,-4.0928,-3.9919,-3.8602,-3.8007,-3.755,-3.6237,-3.5665,-3.5418,-3.5418,-3.5418,-3.5418,-3.5418,-3.5418,-3.5335,-3.5004,-3.4921,-3.4857,-3.4401,-3.3945,-3.3513,-3.341,-3.3037,-3.2669,-3.2669,-3.2669,-3.2669,-3.2669,-3.2669,-3.2669,-3.2669,-3.2669,-3.2669,-3.2669,-3.2669,-3.2669,-3.2669,-3.2669,-3.2669,-3.2669,-3.2955,-3.3501,-3.4413,-3.4469,-3.4914,-3.5749,-3.4969,-3.4379,-3.4099,-3.3161,-3.2669,-3.2669,-3.2991,-3.3105,-3.3105,-3.3105,-3.3105,-4.3338,-4.3815,-4.4292,-4.4518,-4.4418,-4.4242,-4.4192,-4.379,-4.3338,-4.3037,-4.2986,-4.2774,-4.1941,-4.1977,-4.2174,-4.2199,-4.2403,-4.285,-4.3979,-4.4693,-4.5397,-4.62,-4.6301,-4.6301,-4.6301,-4.6075,-4.5698,-4.5121,-4.4568,-4.4242,-4.4242,-4.3438,-4.3237,-4.379,-4.3263,-4.2986,-4.2986,-4.2986,-4.2986,-4.2986,-4.2986,-4.2986,-4.2986,-4.2986,-4.2986,-4.2986,-4.2986,-4.2986,-4.2986,-4.2986,-4.2986,-4.2986,-4.2986,-4.2569,-4.1923,-4.1329,-4.0673,-3.9803,-3.7947,-3.6946,-3.6298,-3.5582,-3.5418,-3.5418,-3.5418,-3.5418,-3.5418,-3.5418,-3.5418,-3.5376,-3.5128,-3.49,-3.4691,-3.4235,-3.372,-3.3327,-3.312,-3.2892,-3.2669,-3.2669,-3.2669,-3.2789,-3.2996,-3.2851,-3.2789,-3.2996,-3.2851,-3.2669,-3.2669,-3.2669,-3.2669,-3.2669,-3.2669,-3.2669,-3.2669,-3.2669,-3.3012,-3.3614,-3.3649,-3.3931,-3.4558,-3.3987,-3.3649,-3.3649,-3.3069,-3.2669,-3.2669,-3.2669,-3.2669,-3.2669,-3.2669,-3.2669,-4.3087,-4.3375,-4.3886,-4.4861,-4.4443,-4.389,-4.4292,-4.3469,-4.2712,-4.2861,-4.2631,-4.1977,-4.0628,-4.0626,-4.0751,-4.0652,-4.0469,-4.1121,-4.3092,-4.3804,-4.4507,-4.5547,-4.5853,-4.5914,-4.5671,-4.556,-4.5187,-4.4378,-4.4001,-4.384,-4.3915,-4.3313,-4.3263,-4.3915,-4.3313,-4.2986,-4.2986,-4.2986,-4.2986,-4.2986,-4.2986,-4.2986,-4.2986,-4.2986,-4.2986,-4.2986,-4.2986,-4.2986,-4.2986,-4.2986,-4.2986,-4.2986,-4.2793,-4.2569,-4.2263,-4.0985,-4.0384,-3.9919,-3.7768,-3.6298,-3.5418,-3.5418,-3.5418,-3.5418,-3.5418,-3.5418,-3.5418,-3.5418,-3.5418,-3.5397,-3.5335,-3.5045,-3.4691,-3.4235,-3.372,-3.3265,-3.2913,-3.2768,-3.269,-3.2809,-3.283,-3.2975,-3.341,-3.312,-3.2954,-3.3327,-3.3016,-3.2669,-3.2669,-3.2669,-3.2669,-3.2669,-3.2669,-3.2669,-3.2669,-3.2669,-3.2669,-3.2669,-3.2669,-3.2669,-3.2669,-3.2669,-3.2669,-3.2669,-3.2669,-3.2669,-3.2669,-3.2669,-3.2669,-3.2669,-3.2669,-3.2669,-4.3539,-4.3234,-4.2871,-4.3255,-4.3589,-4.3689,-4.3313,-4.2273,-4.155,-4.2193,-4.0958,-3.9872,-4.0233,-3.9857,-3.9978,-4.1407,-4.1981,-4.2242,-4.2411,-4.2087,-4.2118,-4.2762,-4.3855,-4.4127,-4.2918,-4.4487,-4.4749,-4.3033,-4.3457,-4.4016,-4.4468,-4.3539,-4.3438,-4.4468,-4.3514,-4.2986,-4.2986,-4.2986,-4.2986,-4.2986,-4.2986,-4.2986,-4.2986,-4.2986,-4.2986,-4.2986,-4.2986,-4.2986,-4.2986,-4.2986,-4.2986,-4.2905,-4.181,-4.0755,-3.9627,-3.8365,-3.7188,-3.6197,-3.5828,-3.5541,-3.5418,-3.5418,-3.5418,-3.5418,-3.5418,-3.5418,-3.5418,-3.5418,-3.5418,-3.5335,-3.4962,-3.4878,-3.4691,-3.4235,-3.372,-3.3348,-3.3285,-3.2996,-3.2851,-3.3203,-3.3285,-3.343,-3.3886,-3.3575,-3.3306,-3.3368,-3.3016,-3.2669,-3.2669,-3.2669,-3.2669,-3.2669,-3.2669,-3.2669,-3.2669,-3.2669,-3.2669,-3.2669,-3.2669,-3.2669,-3.2669,-3.2669,-3.2669,-3.2669,-3.2669,-3.2669,-3.2669,-3.2669,-3.2669,-3.2669,-3.2669,-3.2669,-4.0998,-4.1355,-4.1787,-4.1707,-4.1899,-4.2053,-4.179,-4.0903,-4.0163,-4.0502,-3.9814,-3.902,-3.8377,-3.8453,-3.8707,-3.9076,-4.0449,-4.1352,-4.0837,-4.1103,-4.1587,-4.2155,-4.2537,-4.256,-4.185,-4.2892,-4.3193,-4.2279,-4.2955,-4.3589,-4.4141,-4.3413,-4.3338,-4.4141,-4.3388,-4.2986,-4.2986,-4.2986,-4.2986,-4.2986,-4.2986,-4.2986,-4.2986,-4.2986,-4.2986,-4.2986,-4.2986,-4.2986,-4.2986,-4.2986,-4.2569,-4.1923,-4.1329,-4.0326,-3.9039,-3.779,-3.6481,-3.5418,-3.5418,-3.5418,-3.5418,-3.5418,-3.5418,-3.5418,-3.5418,-3.5418,-3.5418,-3.5418,-3.5418,-3.5376,-3.5169,-3.4941,-3.4774,-3.4546,-3.4152,-3.38,-3.38,-3.3389,-3.3223,-3.3658,-3.3555,-3.3596,-3.438,-3.4111,-3.3844,-3.4152,-3.3741,-3.3451,-3.3451,-3.3244,-3.3078,-3.3078,-3.2871,-3.2669,-3.2669,-3.2934,-3.2975,-3.2747,-3.2669,-3.2669,-3.2669,-3.2669,-3.2669,-3.2669,-3.2669,-3.2669,-3.2669,-3.2954,-3.3078,-3.3078,-3.3348,-3.3451,-3.8711,-3.9279,-4.0048,-4.0076,-4.0304,-4.0617,-4.09,-3.9878,-3.9007,-3.9419,-3.8956,-3.8134,-3.6931,-3.751,-3.79,-3.6935,-3.8906,-4.0132,-3.9194,-3.9853,-4.0639,-4.0886,-4.0887,-4.0723,-4.041,-4.1024,-4.1342,-4.0987,-4.1988,-4.2793,-4.334,-4.315,-4.3237,-4.379,-4.3263,-4.2986,-4.2986,-4.2986,-4.2986,-4.2986,-4.2986,-4.2986,-4.2986,-4.2986,-4.2986,-4.2986,-4.2986,-4.2849,-4.2569,-4.2569,-4.181,-4.0639,-4.0326,-3.9451,-3.8209,-3.7188,-3.6237,-3.5418,-3.5418,-3.5418,-3.5418,-3.5418,-3.5418,-3.5418,-3.5418,-3.5418,-3.5418,-3.5418,-3.5418,-3.5418,-3.5418,-3.5169,-3.4921,-3.4921,-3.4569,-3.4297,-3.4297,-3.3924,-3.3679,-3.4194,-3.3948,-3.3969,-3.4776,-3.4527,-3.4401,-3.4774,-3.4422,-3.4132,-3.4132,-3.3762,-3.3534,-3.3534,-3.3244,-3.3037,-3.3037,-3.3348,-3.3389,-3.3058,-3.3037,-3.3037,-3.3037,-3.3037,-3.3037,-3.3037,-3.3037,-3.3037,-3.3037,-3.3368,-3.3534,-3.3555,-3.3906,-3.4132,-3.8689,-3.7807,-3.7132,-3.8099,-3.9257,-4.0387,-4.1514,-3.9909,-3.8525,-4.0037,-3.8189,-3.6477,-3.7032,-3.8011,-3.8352,-3.6976,-3.8701,-3.965,-3.7856,-3.7749,-3.7668,-3.725,-3.827,-3.8501,-3.7274,-3.8953,-3.9613,-3.8398,-4.0141,-4.1456,-4.2045,-4.2616,-4.3237,-4.379,-4.3263,-4.2986,-4.2986,-4.2986,-4.2986,-4.2986,-4.2986,-4.2986,-4.2986,-4.2986,-4.2986,-4.2986,-4.2986,-4.2319,-4.1215,-4.1215,-4.05,-3.9216,-3.8029,-3.6785,-3.5665,-3.5541,-3.5479,-3.5418,-3.5418,-3.5418,-3.5418,-3.5418,-3.5418,-3.5418,-3.5418,-3.5418,-3.5418,-3.5418,-3.5418,-3.5418,-3.5418,-3.5397,-3.5376,-3.5376,-3.5045,-3.4774,-3.4774,-3.4401,-3.4214,-3.4671,-3.4733,-3.4817,-3.5293,-3.5004,-3.4774,-3.4816,-3.4422,-3.4132,-3.4132,-3.409,-3.4069,-3.4069,-3.3989,-3.3969,-3.3969,-3.4049,-3.4069,-3.3969,-3.3969,-3.3969,-3.3969,-3.3969,-3.3969,-3.3969,-3.3969,-3.3969,-3.3969,-3.401,-3.4069,-3.4069,-3.4051,-3.4132,-3.5598,-3.5938,-3.6611,-3.6848,-3.7269,-3.7859,-3.8938,-3.8402,-3.7975,-3.883,-3.7908,-3.6954,-3.6918,-3.7298,-3.7508,-3.7242,-3.8196,-3.86,-3.7615,-3.7488,-3.7322,-3.6867,-3.6981,-3.6918,-3.6433,-3.757,-3.8116,-3.7571,-3.9012,-4.0363,-4.1331,-4.1679,-4.2248,-4.3288,-4.3087,-4.2986,-4.2986,-4.2986,-4.2986,-4.2986,-4.2986,-4.2986,-4.2986,-4.2986,-4.2986,-4.2986,-4.2986,-4.2263,-4.11,-4.11,-3.9861,-3.791,-3.6603,-3.5828,-3.5418,-3.5418,-3.5418,-3.5418,-3.5418,-3.5418,-3.5418,-3.5418,-3.5418,-3.5418,-3.5418,-3.5418,-3.5418,-3.5418,-3.5418,-3.5418,-3.5418,-3.5418,-3.5418,-3.5418,-3.5293,-3.5169,-3.5169,-3.4817,-3.4691,-3.5086,-3.4941,-3.4961,-3.5335,-3.5273,-3.5169,-3.5169,-3.5024,-3.4921,-3.4921,-3.4672,-3.4567,-3.4567,-3.4297,-3.4256,-3.4526,-3.4567,-3.461,-3.49,-3.4383,-3.4132,-3.4132,-3.4132,-3.4132,-3.4132,-3.4132,-3.4132,-3.4132,-3.4422,-3.4567,-3.4567,-3.4776,-3.4921,-3.3643,-3.4471,-3.5482,-3.5457,-3.5624,-3.5973,-3.7044,-3.7394,-3.7682,-3.8347,-3.8063,-3.7488,-3.6722,-3.6701,-3.6867,-3.7032,-3.7446,-3.7591,-3.7115,-3.7053,-3.6887,-3.6411,-3.608,-3.5894,-3.5894,-3.6387,-3.6703,-3.6703,-3.791,-3.898,-3.9861,-4.0268,-4.11,-4.2375,-4.24,-4.2569,-4.2986,-4.2986,-4.2986,-4.2986,-4.2986,-4.2986,-4.2986,-4.2986,-4.2986,-4.2986,-4.2569,-4.1672,-4.0442,-4.0094,-3.8602,-3.6603,-3.5705,-3.5418,-3.5418,-3.5418,-3.5418,-3.5418,-3.5418,-3.5418,-3.5418,-3.5418,-3.5418,-3.5418,-3.5418,-3.5418,-3.5418,-3.5418,-3.5418,-3.5418,-3.5418,-3.5418,-3.5418,-3.5418,-3.5418,-3.5418,-3.5418,-3.519,-3.5066,-3.5355,-3.5169,-3.5066,-3.5376,-3.5418,-3.5418,-3.5418,-3.5418,-3.5418,-3.5418,-3.5148,-3.4962,-3.4962,-3.4693,-3.4631,-3.4941,-3.4962,-3.5107,-3.5397,-3.4838,-3.4486,-3.4486,-3.4486,-3.4486,-3.4486,-3.4486,-3.4486,-3.4507,-3.4817,-3.4962,-3.4983,-3.5273,-3.5418,-3.3492,-3.3389,-3.3492,-3.3969,-3.4512,-3.5289,-3.6571,-3.7223,-3.7881,-3.8779,-3.8541,-3.7757,-3.639,-3.6494,-3.666,-3.6183,-3.6515,-3.6639,-3.6183,-3.6121,-3.5935,-3.548,-3.5418,-3.5418,-3.5418,-3.5418,-3.5418,-3.5418,-3.6603,-3.7309,-3.7309,-3.8506,-3.9744,-4.1043,-4.11,-4.1696,-4.2986,-4.2986,-4.2986,-4.2986,-4.2986,-4.2986,-4.2986,-4.2986,-4.2986,-4.293,-4.1615,-4.0326,-3.9098,-3.779,-3.6542,-3.5418,-3.5418,-3.5418,-3.5418,-3.5418,-3.5418,-3.5418,-3.5418,-3.5418,-3.5418,-3.5418,-3.5418,-3.5418,-3.5418,-3.5418,-3.5418,-3.5418,-3.5418,-3.5418,-3.5418,-3.5418,-3.5418,-3.5418,-3.5418,-3.5418,-3.5418,-3.5418,-3.5418,-3.5418,-3.5418,-3.5418,-3.5418,-3.5418,-3.5418,-3.5418,-3.5418,-3.5418,-3.5418,-3.5418,-3.5418,-3.5418,-3.5418,-3.5418,-3.5418,-3.5418,-3.5418,-3.5418,-3.5418,-3.5418,-3.5418,-3.5418,-3.5418,-3.5418,-3.5418,-3.5418,-3.5418,-3.5418,-3.5418,-3.5418,-3.5418,-3.5418,-3.3141,-3.3617,-3.4383,-3.4205,-3.5025,-3.5936,-3.6142,-3.7018,-3.7827,-3.811,-3.7977,-3.7545,-3.6807,-3.6982,-3.7136,-3.668,-3.6991,-3.7011,-3.6225,-3.6121,-3.5935,-3.548,-3.5418,-3.5418,-3.5418,-3.5418,-3.5418,-3.5418,-3.5767,-3.6359,-3.7248,-3.7648,-3.8839,-4.1043,-4.11,-4.1696,-4.2986,-4.2986,-4.2986,-4.2986,-4.2986,-4.2986,-4.2986,-4.2093,-4.1672,-4.1558,-4.0326,-3.9039,-3.779,-3.6481,-3.5705,-3.5418,-3.5418,-3.5418,-3.5418,-3.5418,-3.5418,-3.5418,-3.5418,-3.5418,-3.5418,-3.5418,-3.5418,-3.5418,-3.5418,-3.5418,-3.5418,-3.5418,-3.5418,-3.5418,-3.5418,-3.5418,-3.5418,-3.5418,-3.5418,-3.5418,-3.5418,-3.5418,-3.5418,-3.5418,-3.5418,-3.5418,-3.5418,-3.5418,-3.5418,-3.5418,-3.5418,-3.5418,-3.5418,-3.5418,-3.5418,-3.5418,-3.5418,-3.5418,-3.5418,-3.5418,-3.5418,-3.5418,-3.5418,-3.5418,-3.5418,-3.5418,-3.5418,-3.5418,-3.5418,-3.5418,-3.5418,-3.5418,-3.5418,-3.5418,-3.5418,-3.5418,-3.3637,-3.4139,-3.4779,-3.4513,-3.5159,-3.5867,-3.5909,-3.6765,-3.7537,-3.7557,-3.7609,-3.7496,-3.6978,-3.6865,-3.6749,-3.6534,-3.649,-3.6346,-3.5852,-3.5832,-3.5728,-3.5459,-3.5418,-3.5418,-3.5418,-3.5418,-3.5418,-3.5418,-3.5418,-3.5705,-3.6481,-3.6542,-3.7489,-3.9545,-4.0094,-4.0985,-4.2206,-4.2737,-4.2986,-4.2961,-4.2289,-4.1941,-4.1941,-4.1185,-4.044,-3.977,-3.8445,-3.7237,-3.5986,-3.5162,-3.4983,-3.5148,-3.5148,-3.5273,-3.5418,-3.5418,-3.5418,-3.5418,-3.5418,-3.5418,-3.5418,-3.5418,-3.5418,-3.5418,-3.5418,-3.5418,-3.5418,-3.5418,-3.5418,-3.5418,-3.5418,-3.5418,-3.5418,-3.5418,-3.5418,-3.5418,-3.5418,-3.5418,-3.5418,-3.5418,-3.5418,-3.5418,-3.5418,-3.5418,-3.5418,-3.5418,-3.5418,-3.5418,-3.5418,-3.5418,-3.5418,-3.5418,-3.5418,-3.5418,-3.5418,-3.5418,-3.5418,-3.5418,-3.5418,-3.5418,-3.5418,-3.5418,-3.5418,-3.5418,-3.5418,-3.5418,-3.5418,-3.5418,-3.5418,-3.5418,-3.5418,-3.5418,-3.465,-3.48,-3.488,-3.4961,-3.51,-3.5389,-3.5907,-3.6583,-3.7065,-3.7084,-3.7428,-3.7489,-3.6907,-3.6289,-3.5864,-3.5994,-3.5394,-3.5025,-3.5294,-3.5356,-3.5356,-3.5418,-3.5418,-3.5418,-3.5418,-3.5418,-3.5418,-3.5418,-3.5418,-3.5418,-3.5418,-3.5418,-3.6013,-3.7248,-3.8447,-3.9627,-4.0928,-4.2044,-4.2606,-4.255,-4.095,-4.0098,-3.9938,-3.9961,-3.9104,-3.7497,-3.6316,-3.5173,-3.4132,-3.4132,-3.438,-3.4754,-3.4754,-3.4941,-3.5293,-3.5293,-3.5293,-3.5293,-3.5293,-3.5314,-3.5355,-3.5355,-3.5397,-3.5418,-3.5418,-3.5418,-3.5418,-3.5418,-3.5418,-3.5418,-3.5418,-3.5418,-3.5418,-3.5418,-3.5418,-3.5418,-3.5418,-3.5418,-3.5418,-3.5418,-3.5418,-3.5418,-3.5418,-3.5418,-3.5418,-3.5418,-3.5418,-3.5418,-3.5418,-3.5418,-3.5418,-3.5418,-3.5418,-3.5418,-3.5418,-3.5418,-3.5418,-3.5418,-3.5418,-3.5418,-3.5418,-3.5418,-3.5418,-3.5418,-3.5418,-3.5418,-3.5418,-3.5418,-3.5418,-3.5418,-3.5418,-3.5418,-3.4256,-3.4553,-3.5022,-3.5416,-3.5673,-3.5868,-3.5976,-3.6162,-3.6289,-3.6221,-3.6542,-3.6634,-3.6183,-3.6202,-3.6078,-3.5419,-3.5197,-3.5078,-3.5045,-3.4984,-3.5108,-3.5356,-3.5418,-3.5418,-3.5418,-3.5418,-3.5418,-3.5418,-3.5418,-3.5418,-3.5418,-3.5418,-3.6013,-3.7248,-3.755,-3.8328,-3.9569,-3.9522,-3.9484,-3.9484,-3.8741,-3.7734,-3.6409,-3.6789,-3.6172,-3.4917,-3.4644,-3.4369,-3.4132,-3.4132,-3.4194,-3.4277,-3.4277,-3.4279,-3.4362,-3.4362,-3.4362,-3.4362,-3.4362,-3.459,-3.49,-3.49,-3.5128,-3.5418,-3.5418,-3.5418,-3.5418,-3.5418,-3.5418,-3.5418,-3.5418,-3.5418,-3.5418,-3.5418,-3.5418,-3.5418,-3.5418,-3.5418,-3.5418,-3.5418,-3.5418,-3.5418,-3.5418,-3.5418,-3.5418,-3.5418,-3.5418,-3.5418,-3.5418,-3.5418,-3.5418,-3.5418,-3.5418,-3.5418,-3.5418,-3.5418,-3.5418,-3.5418,-3.5418,-3.5418,-3.5418,-3.5418,-3.5418,-3.5418,-3.5418,-3.5418,-3.5418,-3.5418,-3.5418,-3.5418,-3.5418,-3.5418,-3.4548,-3.4964,-3.5387,-3.5962,-3.6068,-3.6016,-3.6016,-3.6016,-3.6016,-3.6016,-3.5975,-3.5961,-3.5924,-3.5706,-3.548,-3.5144,-3.4959,-3.4819,-3.4671,-3.4797,-3.4984,-3.5108,-3.5294,-3.5418,-3.5418,-3.5418,-3.5418,-3.5418,-3.5418,-3.5418,-3.5418,-3.5418,-3.5726,-3.6359,-3.7006,-3.75,-3.7932,-3.8306,-3.8401,-3.8205,-3.7156,-3.5754,-3.409,-3.4346,-3.4049,-3.343,-3.343,-3.343,-3.343,-3.343,-3.3555,-3.3741,-3.3741,-3.3865,-3.4132,-3.4132,-3.4132,-3.4132,-3.4132,-3.4277,-3.4484,-3.4484,-3.4734,-3.5107,-3.5107,-3.5252,-3.5418,-3.5418,-3.5418,-3.5418,-3.5418,-3.5418,-3.5418,-3.5418,-3.5418,-3.5418,-3.5418,-3.5418,-3.5418,-3.5418,-3.5418,-3.5418,-3.5418,-3.5418,-3.5418,-3.5418,-3.5418,-3.5418,-3.5418,-3.5418,-3.5418,-3.5418,-3.5418,-3.5418,-3.5418,-3.5418,-3.5418,-3.5418,-3.5418,-3.5418,-3.5418,-3.5418,-3.5418,-3.5418,-3.5418,-3.5418,-3.5418,-3.5418,-3.5418,-3.5418,-3.5418,-3.5418,-3.4755,-3.5396,-3.5831,-3.6489,-3.6336,-3.6084,-3.6084,-3.6016,-3.6016,-3.6016,-3.5684,-3.5457,-3.5751,-3.5198,-3.4746,-3.4912,-3.4764,-3.458,-3.4378,-3.4608,-3.4879,-3.4922,-3.517,-3.5356,-3.5418,-3.5418,-3.5418,-3.5418,-3.5418,-3.5418,-3.5418,-3.5418,-3.5418,-3.5418,-3.642,-3.6729,-3.6275,-3.7286,-3.7517,-3.7076,-3.5584,-3.409,-3.2669,-3.2669,-3.2669,-3.2669,-3.2669,-3.2669,-3.2669,-3.2669,-3.2934,-3.3265,-3.3265,-3.3492,-3.3844,-3.3844,-3.3844,-3.3844,-3.3844,-3.3886,-3.3969,-3.4051,-3.4443,-3.4837,-3.492,-3.5128,-3.5418,-3.5418,-3.5418,-3.5418,-3.5418,-3.5418,-3.5418,-3.5418,-3.5418,-3.5418,-3.5418,-3.5418,-3.5418,-3.5418,-3.5418,-3.5418,-3.5418,-3.5418,-3.5418,-3.5418,-3.5418,-3.5418,-3.5418,-3.5418,-3.5418,-3.5418,-3.5418,-3.5418,-3.5418,-3.5418,-3.5418,-3.5418,-3.5418,-3.5418,-3.5418,-3.5418,-3.5418,-3.5418,-3.5418,-3.5418,-3.5418,-3.5418,-3.5418,-3.5418,-3.5418,-3.5418,-3.3596,-3.4903,-3.6367,-3.6904,-3.6722,-3.6451,-3.6451,-3.62,-3.6016,-3.6016,-3.5684,-3.5391,-3.5457,-3.5086,-3.4636,-3.4269,-3.4505,-3.453,-3.4041,-3.4386,-3.4676,-3.49,-3.4922,-3.5108,-3.5356,-3.5418,-3.5418,-3.5418,-3.5418,-3.5418,-3.5418,-3.5418,-3.5418,-3.5418,-3.5541,-3.5435,-3.5058,-3.4819,-3.4438,-3.3975,-3.3361,-3.296,-3.2669,-3.2669,-3.2669,-3.2669,-3.2669,-3.2669,-3.2669,-3.2669,-3.2768,-3.2809,-3.2809,-3.2851,-3.2913,-3.2913,-3.2913,-3.2913,-3.2913,-3.3161,-3.3534,-3.3986,-3.4443,-3.4899,-3.5211,-3.5376,-3.5418,-3.5418,-3.5418,-3.5418,-3.5418,-3.5418,-3.5418,-3.5418,-3.5418,-3.5418,-3.5418,-3.5418,-3.5418,-3.5418,-3.5418,-3.5418,-3.5418,-3.5418,-3.5418,-3.5418,-3.5418,-3.5418,-3.5418,-3.5418,-3.5418,-3.5418,-3.5418,-3.5418,-3.5418,-3.5418,-3.5418,-3.5418,-3.5418,-3.5418,-3.5418,-3.5418,-3.5418,-3.5418,-3.5418,-3.5418,-3.5418,-3.5418,-3.5418,-3.5418,-3.5418,-3.5418,-3.3647,-3.482,-3.6061,-3.6826,-3.6696,-3.6423,-3.6459,-3.6384,-3.62,-3.6016,-3.5684,-3.5391,-3.5391,-3.5234,-3.4941,-3.4492,-3.4805,-3.4929,-3.4412,-3.4685,-3.5002,-3.506,-3.5199,-3.5372,-3.5498,-3.5438,-3.5418,-3.5418,-3.5418,-3.5418,-3.5418,-3.5418,-3.5418,-3.5418,-3.519,-3.4838,-3.4443,-3.3906,-3.3451,-3.3016,-3.283,-3.2669,-3.2669,-3.2669,-3.2669,-3.2669,-3.2669,-3.2669,-3.2669,-3.2669,-3.2669,-3.2669,-3.2669,-3.2669,-3.2669,-3.2669,-3.2669,-3.2669,-3.2669,-3.3016,-3.341,-3.3617,-3.4235,-3.4857,-3.4983,-3.5231,-3.5418,-3.5418,-3.5418,-3.5418,-3.5418,-3.5418,-3.5418,-3.5418,-3.5418,-3.5418,-3.5418,-3.5418,-3.5418,-3.5418,-3.5418,-3.5418,-3.5418,-3.5418,-3.5418,-3.5418,-3.5418,-3.5418,-3.5418,-3.5418,-3.5418,-3.5418,-3.5418,-3.5418,-3.5418,-3.5418,-3.5418,-3.5418,-3.5418,-3.5418,-3.5418,-3.5418,-3.5418,-3.5418,-3.5418,-3.5418,-3.5418,-3.5418,-3.5418,-3.5418,-3.5418,-3.5418,-3.3476,-3.4367,-3.5292,-3.6295,-3.6465,-3.642,-3.6596,-3.6574,-3.6451,-3.62,-3.5829,-3.5547,-3.5547,-3.5469,-3.5273,-3.4922,-3.5254,-3.5351,-3.4785,-3.5002,-3.5218,-3.523,-3.5449,-3.5674,-3.5616,-3.5603,-3.5542,-3.5438,-3.5418,-3.5418,-3.5418,-3.5418,-3.5418,-3.5418,-3.4983,-3.4588,-3.4072,-3.3492,-3.3058,-3.2669,-3.2669,-3.2669,-3.2669,-3.2669,-3.2669,-3.2669,-3.2669,-3.2669,-3.2669,-3.2669,-3.2669,-3.2669,-3.2669,-3.2669,-3.2669,-3.2669,-3.2669,-3.2747,-3.2851,-3.3099,-3.341,-3.3658,-3.4256,-3.4837,-3.49,-3.5148,-3.5418,-3.5418,-3.5418,-3.5418,-3.5418,-3.5418,-3.5418,-3.5418,-3.5418,-3.5418,-3.5418,-3.5418,-3.5418,-3.5418,-3.5418,-3.5418,-3.5418,-3.5418,-3.5418,-3.5418,-3.5418,-3.5418,-3.5418,-3.5418,-3.5418,-3.5418,-3.5418,-3.5418,-3.5418,-3.5418,-3.5418,-3.5418,-3.5418,-3.5418,-3.5418,-3.5418,-3.5418,-3.5418,-3.5418,-3.5418,-3.5418,-3.5418,-3.5418,-3.5418,-3.5418,-3.5418,-3.2416,-3.3161,-3.3844,-3.5128,-3.5867,-3.6432,-3.6815,-3.669,-3.6519,-3.6451,-3.618,-3.5996,-3.5996,-3.5664,-3.5391,-3.5351,-3.5703,-3.5684,-3.4824,-3.5078,-3.5328,-3.5205,-3.5536,-3.5763,-3.5572,-3.5891,-3.5894,-3.5459,-3.5418,-3.5418,-3.5418,-3.5418,-3.5418,-3.5418,-3.4983,-3.4588,-3.4072,-3.3203,-3.269,-3.2669,-3.2669,-3.2669,-3.2669,-3.2669,-3.2669,-3.2669,-3.2669,-3.2669,-3.2669,-3.2669,-3.2669,-3.2669,-3.2669,-3.2669,-3.2669,-3.2669,-3.2669,-3.2789,-3.3203,-3.3348,-3.3513,-3.4463,-3.4774,-3.4899,-3.5252,-3.5397,-3.5418,-3.5418,-3.5418,-3.5418,-3.5418,-3.5418,-3.5418,-3.5418,-3.5418,-3.5418,-3.5418,-3.5418,-3.5418,-3.5418,-3.5418,-3.5418,-3.5418,-3.5418,-3.5418,-3.5418,-3.5418,-3.5418,-3.5418,-3.5418,-3.5418,-3.5418,-3.5418,-3.5418,-3.5418,-3.5418,-3.5418,-3.5418,-3.5418,-3.5418,-3.5418,-3.5418,-3.5418,-3.5418,-3.5418,-3.5418,-3.5418,-3.5418,-3.5418,-3.5418,-3.5418,-3.5418,-3.185,-3.2188,-3.2851,-3.4217,-3.4963,-3.55,-3.5986,-3.6461,-3.6636,-3.6189,-3.6206,-3.6268,-3.6016,-3.5898,-3.5801,-3.5801,-3.5918,-3.5918,-3.5586,-3.5684,-3.581,-3.5701,-3.5958,-3.6078,-3.5679,-3.5949,-3.5914,-3.5459,-3.5418,-3.5418,-3.5418,-3.5418,-3.5293,-3.5004,-3.4548,-3.3948,-3.3223,-3.2892,-3.2669,-3.2669,-3.2669,-3.2669,-3.2669,-3.2669,-3.2669,-3.2669,-3.2669,-3.2669,-3.2669,-3.2669,-3.2669,-3.2669,-3.2669,-3.2669,-3.2669,-3.2669,-3.2913,-3.3161,-3.3327,-3.3762,-3.438,-3.4712,-3.4941,-3.5211,-3.5376,-3.5418,-3.5418,-3.5418,-3.5418,-3.5418,-3.5418,-3.5418,-3.5418,-3.5418,-3.5418,-3.5418,-3.5418,-3.5418,-3.5418,-3.5418,-3.5418,-3.5418,-3.5418,-3.5418,-3.5418,-3.5418,-3.5418,-3.5418,-3.5418,-3.5418,-3.5418,-3.5418,-3.5418,-3.5418,-3.5418,-3.5418,-3.5418,-3.5418,-3.5418,-3.5418,-3.5418,-3.5418,-3.5418,-3.5418,-3.5418,-3.5418,-3.5418,-3.5418,-3.5418,-3.5418,-3.5418,-3.5418,-3.1604,-3.1487,-3.1919,-3.3285,-3.3948,-3.455,-3.5518,-3.6129,-3.6445,-3.6242,-3.639,-3.6428,-3.618,-3.6152,-3.6152,-3.6016,-3.6016,-3.6016,-3.6016,-3.6016,-3.6016,-3.6016,-3.6281,-3.6262,-3.5726,-3.6003,-3.5954,-3.5459,-3.5418,-3.5418,-3.5418,-3.5418,-3.5148,-3.4608,-3.4132,-3.3472,-3.2747,-3.2669,-3.2669,-3.2669,-3.2669,-3.2669,-3.2669,-3.2669,-3.2669,-3.2669,-3.2669,-3.2669,-3.2669,-3.2669,-3.2669,-3.2669,-3.2669,-3.2669,-3.269,-3.2892,-3.3141,-3.343,-3.3741,-3.4297,-3.4837,-3.4941,-3.519,-3.5418,-3.5418,-3.5418,-3.5418,-3.5418,-3.5418,-3.5418,-3.5418,-3.5418,-3.5418,-3.5418,-3.5418,-3.5418,-3.5418,-3.5418,-3.5418,-3.5418,-3.5418,-3.5418,-3.5418,-3.5418,-3.5418,-3.5418,-3.5418,-3.5418,-3.5418,-3.5418,-3.5418,-3.5418,-3.5418,-3.5418,-3.5418,-3.5418,-3.5418,-3.5418,-3.5418,-3.5418,-3.5418,-3.5418,-3.5418,-3.5418,-3.5418,-3.5418,-3.5418,-3.5418,-3.5418,-3.5418,-3.5418,-3.5418,0.0,0.0,0.0,-3.2333,-3.2996,-3.3803,-3.5604,-3.5787,-3.5799,-3.6632,-3.6572,-3.6383,-3.6487,-3.6499,-3.6384,-3.6084,-3.6016,-3.6016,-3.6016,-3.6016,-3.6016,-3.6016,-3.6336,-3.6316,-3.5766,-3.6095,-3.6049,-3.5459,-3.5438,-3.5418,-3.5418,-3.5397,-3.4983,-3.4152,-3.3617,-3.3161,-3.2669,-3.2669,-3.2669,-3.2669,-3.2669,-3.2669,-3.2669,-3.2669,-3.2669,-3.2669,-3.2669,-3.2669,-3.2669,-3.2669,-3.2669,-3.2669,-3.2669,-3.2669,-3.2789,-3.3223,-3.3389,-3.3534,-3.4505,-3.4837,-3.492,-3.5273,-3.5418,-3.5418,-3.5418,-3.5418,-3.5418,-3.5418,-3.5418,-3.5418,-3.5418,-3.5418,-3.5418,-3.5418,-3.5418,-3.5418,-3.5418,-3.5418,-3.5418,-3.5418,-3.5418,-3.5418,-3.5418,-3.5418,-3.5418,-3.5418,-3.5418,-3.5418,-3.5418,-3.5418,-3.5418,-3.5418,-3.5418,-3.5418,-3.5418,-3.5418,-3.5418,-3.5418,-3.5418,-3.5418,-3.5418,-3.5418,-3.5418,-3.5418,-3.5418,-3.5418,-3.5418,-3.5418,-3.5418,-3.5418,-3.5418,-3.5418,-3.2022,0.0,0.0,0.0,0.0,0.0,-3.3389,-3.4095,-3.4717,-3.5289,-3.5939,-3.6334,-3.6449,-3.6435,-3.6586,-3.6742,-3.6355,-3.6016,-3.6016,-3.6016,-3.6016,-3.6016,-3.6539,-3.6723,-3.6274,-3.6473,-3.6428,-3.5956,-3.5604,-3.5418,-3.5418,-3.4797,-3.432,-3.4132,-3.3306,-3.2851,-3.2669,-3.2669,-3.2669,-3.2669,-3.2669,-3.2669,-3.2669,-3.2669,-3.2669,-3.2669,-3.2669,-3.2669,-3.2669,-3.2669,-3.2669,-3.2669,-3.2669,-3.2669,-3.2789,-3.3223,-3.3596,-3.3969,-3.4608,-3.4962,-3.5252,-3.5376,-3.5418,-3.5418,-3.5418,-3.5418,-3.5418,-3.5418,-3.5418,-3.5418,-3.5418,-3.5418,-3.5418,-3.5418,-3.5418,-3.5418,-3.5418,-3.5418,-3.5418,-3.5418,-3.5418,-3.5418,-3.5418,-3.5418,-3.5418,-3.5418,-3.5418,-3.5418,-3.5418,-3.5418,-3.5418,-3.5418,-3.5418,-3.5418,-3.5418,-3.5418,-3.5418,-3.5418,-3.5418,-3.5418,-3.5418,-3.5418,-3.5418,-3.5418,-3.5418,-3.5418,-3.5418,-3.5418,-3.5418,-3.5418,-3.5418,-3.5418,-3.3277,-3.2275,-3.1584,-3.1615,0.0,0.0,-3.2706,-3.341,-3.4095,-3.519,-3.5826,-3.6316,-3.6557,-3.6541,-3.6509,-3.6777,-3.6462,-3.6206,-3.618,-3.62,-3.6132,-3.6016,-3.6559,-3.6764,-3.6455,-3.6632,-3.6612,-3.6163,-3.5852,-3.5625,-3.5438,-3.4569,-3.4132,-3.4132,-3.3203,-3.2669,-3.2669,-3.2669,-3.2669,-3.2669,-3.2669,-3.2669,-3.2669,-3.2669,-3.2669,-3.2669,-3.2669,-3.2669,-3.2669,-3.2669,-3.2669,-3.2669,-3.2669,-3.2851,-3.3058,-3.3492,-3.3969,-3.4484,-3.4879,-3.5211,-3.5418,-3.5418,-3.5418,-3.5418,-3.5418,-3.5418,-3.5418,-3.5418,-3.5418,-3.5418,-3.5418,-3.5418,-3.5418,-3.5418,-3.5418,-3.5418,-3.5418,-3.5418,-3.5418,-3.5418,-3.5418,-3.5418,-3.5418,-3.5418,-3.5418,-3.5418,-3.5418,-3.5418,-3.5418,-3.5418,-3.5418,-3.5418,-3.5418,-3.5418,-3.5418,-3.5418,-3.5418,-3.5418,-3.5418,-3.5418,-3.5418,-3.5418,-3.5418,-3.5418,-3.5418,-3.5418,-3.5418,-3.5418,-3.5418,-3.5418,-3.5418,-3.5418,-3.4824,-3.3426,0.0,-3.2792,-3.1881,0.0,-3.2913,-3.3235,-3.3637,-3.5376,-3.5811,-3.6016,-3.6558,-3.6371,-3.6204,-3.6244,-3.634,-3.6429,-3.6527,-3.6586,-3.6451,-3.6084,-3.6403,-3.6649,-3.6515,-3.6765,-3.6725,-3.6182,-3.6101,-3.5852,-3.5438,-3.4569,-3.4132,-3.4132,-3.3203,-3.2669,-3.2669,-3.2669,-3.2669,-3.2669,-3.2669,-3.2669,-3.2669,-3.2669,-3.2669,-3.2669,-3.2669,-3.2669,-3.2669,-3.2669,-3.2669,-3.2669,-3.2669,-3.2996,-3.343,-3.3966,-3.4422,-3.4878,-3.5273,-3.5418,-3.5418,-3.5418,-3.5418,-3.5418,-3.5418,-3.5418,-3.5418,-3.5418,-3.5418,-3.5418,-3.5418,-3.5418,-3.5418,-3.5418,-3.5418,-3.5418,-3.5418,-3.5418,-3.5418,-3.5418,-3.5418,-3.5418,-3.5418,-3.5418,-3.5418,-3.5418,-3.5418,-3.5418,-3.5418,-3.5418,-3.5418,-3.5418,-3.5418,-3.5418,-3.5418,-3.5418,-3.5418,-3.5418,-3.5418,-3.5418,-3.5418,-3.5418,-3.5418,-3.5418,-3.5418,-3.5418,-3.5418,-3.5418,-3.5418,-3.5418,-3.5418,-3.5418,-3.5017,-3.4483,-3.4017,-3.333,-3.2294,0.0,-3.2328,-3.212,-3.2064,-3.3161,-3.3969,-3.4631,-3.5128,-3.519,-3.529,-3.556,-3.5986,-3.6501,-3.6891,-3.7011,-3.6876,-3.6451,-3.7011,-3.7307,-3.6958,-3.7233,-3.7195,-3.6701,-3.5976,-3.5521,-3.5418,-3.4569,-3.4132,-3.4132,-3.3203,-3.2669,-3.2669,-3.2669,-3.2669,-3.2669,-3.2669,-3.2669,-3.2669,-3.2669,-3.2669,-3.2669,-3.2669,-3.2669,-3.2669,-3.2669,-3.2669,-3.2669,-3.2669,-3.2996,-3.343,-3.3966,-3.4422,-3.4878,-3.5273,-3.5418,-3.5418,-3.5418,-3.5418,-3.5418,-3.5418,-3.5418,-3.5418,-3.5418,-3.5418,-3.5418,-3.5418,-3.5418,-3.5418,-3.5418,-3.5418,-3.5418,-3.5418,-3.5418,-3.5418,-3.5418,-3.5418,-3.5418,-3.5418,-3.5418,-3.5418,-3.5418,-3.5418,-3.5418,-3.5418,-3.5418,-3.5418,-3.5418,-3.5418,-3.5418,-3.5418,-3.5418,-3.5418,-3.5418,-3.5418,-3.5418,-3.5418,-3.5418,-3.5418,-3.5418,-3.5418,-3.5418,-3.5418,-3.5418,-3.5418,-3.5418,-3.5418,-3.5418,-3.5763,-3.521,-3.4678,-3.4141,-3.3178,0.0,0.0,-3.2994,-3.3041,-3.3402,-3.3841,-3.4212,-3.4108,-3.3953,-3.412,-3.4983,-3.5356,-3.5867,-3.6799,-3.7197,-3.7213,-3.6876,-3.728,-3.7549,-3.7348,-3.7632,-3.755,-3.6846,-3.5935,-3.5418,-3.5418,-3.4569,-3.4132,-3.4132,-3.3203,-3.2669,-3.2669,-3.2669,-3.2669,-3.2669,-3.2669,-3.2669,-3.2669,-3.2669,-3.2669,-3.2669,-3.2669,-3.2669,-3.2669,-3.2669,-3.2669,-3.2669,-3.2669,-3.3141,-3.38,-3.4049,-3.4507,-3.5128,-3.5335,-3.5418,-3.5418,-3.5418,-3.5418,-3.5418,-3.5418,-3.5418,-3.5418,-3.5418,-3.5418,-3.5418,-3.5418,-3.5418,-3.5418,-3.5418,-3.5418,-3.5418,-3.5418,-3.5418,-3.5418,-3.5418,-3.5418,-3.5418,-3.5418,-3.5418,-3.5418,-3.5418,-3.5418,-3.5418,-3.5418,-3.5418,-3.5418,-3.5418,-3.5418,-3.5418,-3.5418,-3.5418,-3.5418,-3.5418,-3.5418,-3.5418,-3.5418,-3.5418,-3.5418,-3.5418,-3.5418,-3.5418,-3.5418,-3.5418,-3.5418,-3.5418,-3.5418,-3.5542,-3.6405,-3.5763,-3.5114,-3.5114,-3.4288,-3.3615,0.0,0.0,0.0,-3.4262,-3.4119,-3.3849,-3.3407,-3.282,-3.2851,-3.4051,-3.4443,-3.49,-3.6101,-3.6794,-3.7141,-3.7052,-3.736,-3.7601,-3.7616,-3.7806,-3.7612,-3.6867,-3.5935,-3.5418,-3.5418,-3.4569,-3.4132,-3.4132,-3.3203,-3.2669,-3.2669,-3.2669,-3.2669,-3.2669,-3.2669,-3.2669,-3.2669,-3.2669,-3.2669,-3.2669,-3.2669,-3.2669,-3.2669,-3.2669,-3.2669,-3.2669,-3.2669,-3.3223,-3.4007,-3.409,-3.459,-3.5314,-3.5397,-3.5418,-3.5418,-3.5418,-3.5418,-3.5418,-3.5418,-3.5418,-3.5418,-3.5418,-3.5418,-3.5418,-3.5418,-3.5418,-3.5418,-3.5418,-3.5418,-3.5418,-3.5418,-3.5418,-3.5418,-3.5418,-3.5418,-3.5418,-3.5418,-3.5418,-3.5418,-3.5418,-3.5418,-3.5418,-3.5418,-3.5418,-3.5418,-3.5418,-3.5418,-3.5418,-3.5418,-3.5418,-3.5418,-3.5418,-3.5418,-3.5418,-3.5418,-3.5418,-3.5418,-3.5418,-3.5418,-3.5418,-3.5418,-3.55,-3.55,-3.5418,-3.5521,-3.5749,-3.6405,-3.631,-3.6216,-3.6216,-3.5427,-3.4653,-3.4701,0.0,-3.3971,-3.3931,0.0,-3.3019,-3.2976,0.0,0.0,-3.225,-3.3016,-3.3741,-3.436,-3.5087,-3.5994,-3.6815,-3.7287,-3.7518,-3.7575,-3.7229,-3.6908,-3.6804,-3.5935,-3.5418,-3.5418,-3.4569,-3.4132,-3.4132,-3.3203,-3.2669,-3.2669,-3.2669,-3.2669,-3.2669,-3.2669,-3.2669,-3.2669,-3.2669,-3.2669,-3.2669,-3.2669,-3.2669,-3.2669,-3.2669,-3.2669,-3.2669,-3.2669,-3.3037,-3.3513,-3.3986,-3.4463,-3.49,-3.5293,-3.5418,-3.5418,-3.5418,-3.5418,-3.5418,-3.5418,-3.5418,-3.5418,-3.5418,-3.5418,-3.5418,-3.5418,-3.5418,-3.5418,-3.5418,-3.5418,-3.5418,-3.5418,-3.5418,-3.5418,-3.5418,-3.5418,-3.5418,-3.5418,-3.5418,-3.5418,-3.5418,-3.5418,-3.5418,-3.5418,-3.5418,-3.5418,-3.5418,-3.5418,-3.5418,-3.5418,-3.5418,-3.5418,-3.5418,-3.5418,-3.5418,-3.5418,-3.5418,-3.5418,-3.5418,-3.5418,-3.5418,-3.5418,-3.5832,-3.5832,-3.5438,-3.5852,-3.6059,-3.6405,-3.6405,-3.6405,-3.6405,-3.6048,-3.5715,-3.5715,-3.555,-3.5161,-3.457,0.0,0.0,0.0,0.0,0.0,0.0,-3.2582,-3.3244,-3.4028,-3.4403,-3.4984,-3.5889,-3.616,-3.641,-3.6735,-3.6554,-3.639,-3.639,-3.579,-3.5418,-3.5418,-3.4569,-3.4132,-3.4132,-3.3203,-3.2669,-3.2669,-3.2669,-3.2669,-3.2669,-3.2669,-3.2669,-3.2669,-3.2669,-3.2669,-3.2669,-3.2669,-3.2669,-3.2669,-3.2669,-3.2669,-3.2669,-3.2669,-3.2996,-3.343,-3.3966,-3.4422,-3.4878,-3.5273,-3.5418,-3.5418,-3.5418,-3.5418,-3.5418,-3.5418,-3.5418,-3.5418,-3.5418,-3.5418,-3.5418,-3.5418,-3.5418,-3.5418,-3.5418,-3.5418,-3.5418,-3.5418,-3.5418,-3.5418,-3.5418,-3.5418,-3.5418,-3.5418,-3.5418,-3.5418,-3.5418,-3.5418,-3.5418,-3.5418,-3.5418,-3.5418,-3.5418,-3.5418,-3.5418,-3.5418,-3.5666,-3.5832,-3.5832,-3.608,-3.6225,-3.6225,-3.6225,-3.6225,-3.6225,-3.6225,-3.6225,-3.6225,-3.6411,-3.6411,-3.6225,-3.6411,-3.666,-3.6405,-3.6405,-3.6405,-3.6405,-3.6405,-3.6405,-3.6405,-3.6531,-3.6393,-3.5648,-3.5356,0.0,0.0,0.0,-3.2871,-3.2543,0.0,-3.3188,-3.3655,-3.3699,-3.4093,-3.5107,-3.5459,-3.579,-3.6266,-3.608,-3.5976,-3.6101,-3.5687,-3.5418,-3.5418,-3.4797,-3.432,-3.4132,-3.3306,-3.2851,-3.2669,-3.2669,-3.2669,-3.2669,-3.2669,-3.2669,-3.2669,-3.2669,-3.2669,-3.2669,-3.2669,-3.2669,-3.2669,-3.2669,-3.2669,-3.2669,-3.2669,-3.2996,-3.343,-3.3966,-3.4422,-3.4878,-3.5273,-3.5418,-3.5418,-3.5418,-3.5418,-3.5418,-3.5418,-3.5418,-3.5418,-3.5418,-3.5418,-3.5418,-3.5418,-3.5418,-3.5418,-3.5418,-3.5418,-3.5418,-3.5418,-3.5418,-3.5418,-3.5418,-3.5418,-3.5418,-3.5418,-3.5418,-3.5418,-3.5418,-3.5418,-3.5459,-3.5604,-3.5604,-3.5666,-3.579,-3.579,-3.579,-3.579,-3.6101,-3.6308,-3.6308,-3.6618,-3.6804,-3.6804,-3.6804,-3.6804,-3.6804,-3.6804,-3.6804,-3.6804,-3.6929,-3.6991,-3.6991,-3.6991,-3.7177,-3.6405,-3.6405,-3.6405,-3.6405,-3.6405,-3.6405,-3.6405,-3.6832,-3.7161,-3.7113,-3.6702,-3.6314,-3.6264,-3.5423,-3.4494,0.0,-3.377,0.0,0.0,-3.2711,-3.3265,-3.4671,-3.5562,-3.6266,-3.6742,-3.5976,-3.5625,-3.608,-3.5687,-3.5418,-3.5418,-3.5397,-3.4983,-3.4152,-3.3596,-3.3161,-3.2669,-3.2669,-3.2669,-3.2669,-3.2669,-3.2669,-3.2669,-3.2669,-3.2669,-3.2669,-3.2669,-3.2669,-3.2669,-3.2669,-3.2669,-3.2669,-3.2669,-3.2996,-3.343,-3.3966,-3.4422,-3.4878,-3.5273,-3.5418,-3.5418,-3.5418,-3.5418,-3.5418,-3.5418,-3.5418,-3.5418,-3.5418,-3.5418,-3.5418,-3.5418,-3.5418,-3.5418,-3.5418,-3.5418,-3.5418,-3.5418,-3.5418,-3.5418,-3.5418,-3.5418,-3.5418,-3.5418,-3.5418,-3.5418,-3.5418,-3.5418,-3.5583,-3.6039,-3.608,-3.6266,-3.6701,-3.6763,-3.6763,-3.6763,-3.6763,-3.6784,-3.6784,-3.6804,-3.6804,-3.6804,-3.6804,-3.6804,-3.6804,-3.6804,-3.6804,-3.6804,-3.726,-3.7467,-3.7467,-3.7467,-3.7488,-3.6405,-3.6405,-3.6405,-3.6405,-3.6405,-3.6405,-3.6405,-3.6784,-3.7287,-3.7663,-3.7568,-3.7342,-3.7049,-3.6633,0.0,0.0,0.0,-3.4074,0.0,-3.2503,-3.2333,-3.3679,-3.4383,-3.4693,-3.4548,-3.5066,-3.5355,-3.5231,-3.5066,-3.4983,-3.4983,-3.4693,-3.4238,-3.3696,-3.3451,-3.3161,-3.2669,-3.2669,-3.2669,-3.2669,-3.2669,-3.2669,-3.2669,-3.2669,-3.2669,-3.2669,-3.2669,-3.2669,-3.2669,-3.2669,-3.2669,-3.2747,-3.3037,-3.343,-3.3844,-3.401,-3.4422,-3.4878,-3.5273,-3.5418,-3.5418,-3.5418,-3.5418,-3.5418,-3.5418,-3.5418,-3.5418,-3.5418,-3.5418,-3.5418,-3.5418,-3.5418,-3.5418,-3.5418,-3.5418,-3.5418,-3.5418,-3.5418,-3.5418,-3.5418,-3.5666,-3.5873,-3.5873,-3.6121,-3.6225,-3.5914,-3.6142,-3.639,-3.6556,-3.6577,-3.6618,-3.6784,-3.6804,-3.6804,-3.6804,-3.7094,-3.7384,-3.7695,-3.7715,-3.7715,-3.7715,-3.7715,-3.7715,-3.7715,-3.7715,-3.7715,-3.7715,-3.7881,-3.7943,-3.7943,-3.7943,-3.7943,-3.6405,-3.6405,-3.6455,-3.6656,-3.6707,-3.6807,-3.7209,-3.7688,-3.8191,-3.8542,-3.8768,-3.8741,-3.8224,-3.8093,-3.7653,0.0,0.0,0.0,0.0,-3.2526,-3.194,-3.2809,-3.3306,-3.3658,-3.3903,-3.4362,-3.4714,-3.4816,-3.4816,-3.4754,-3.4588,-3.4693,-3.4445,-3.3637,-3.3617,-3.341,-3.2954,-3.2809,-3.2669,-3.2669,-3.2669,-3.2669,-3.2669,-3.2669,-3.2669,-3.2669,-3.2669,-3.2669,-3.2669,-3.2669,-3.2669,-3.2768,-3.3203,-3.3658,-3.4152,-3.4318,-3.461,-3.5045,-3.5314,-3.5418,-3.5418,-3.5418,-3.5418,-3.5418,-3.5418,-3.5418,-3.5418,-3.5418,-3.5418,-3.5418,-3.5418,-3.5418,-3.5418,-3.5418,-3.5418,-3.5418,-3.5418,-3.5562,-3.5666,-3.5666,-3.6039,-3.6349,-3.6349,-3.6742,-3.6887,-3.6432,-3.6618,-3.6867,-3.7032,-3.7053,-3.7115,-3.7281,-3.7301,-3.7301,-3.7301,-3.757,-3.786,-3.8171,-3.8191,-3.8191,-3.8191,-3.8191,-3.8191,-3.8191,-3.8191,-3.8191,-3.8191,-3.8191,-3.8191,-3.8191,-3.8191,-3.8191]},{"header":{"parameterUnit":"m.s-1","parameterCategory":1,"la1":30.6,"la2":29.2853,"lo1":-89.7004,"lo2":-87.6739,"dy":0.0162,"dx":0.0183,"nx":112,"ny":82,"refTime":"2026-04-21T00:00:00:Z","depth":0,"parameterNumber":3,"parameterNumberName":"V-component_of_WINDS"},"data":[0.0,0.0,0.0,0.0,0.0,0.0,0.0,0.0,0.0,0.0,0.0,0.0,0.0,0.0,0.0,0.0,0.0,0.0,0.0,0.0,0.0,0.0,0.0,0.0,0.0,0.0,0.0,0.0,0.0,0.0,0.0,0.0,0.0,0.0,0.0,0.0,0.0,0.0,0.0,0.0,0.0,0.0,0.0,0.0,0.0,0.0,0.0,0.0,0.0,0.0,0.0,0.0,0.0,0.0,0.0,0.0,0.0,0.0,0.0,0.0,0.0,0.0,0.0,0.0,0.0,0.0,0.0,0.0,0.0,0.0,0.0,0.0,0.0,0.0,0.0,0.0,0.0,0.0,0.0,0.0,0.0,0.0,0.0,0.0,0.0,0.0,0.0,0.0,0.0,0.0,2.8113,2.795,2.7559,2.7323,2.7323,2.6227,2.5357,2.4902,0.0,0.0,0.0,0.0,0.0,0.0,0.0,0.0,0.0,0.0,0.0,0.0,0.0,0.0,0.0,0.0,0.0,0.0,0.0,0.0,0.0,0.0,0.0,0.0,0.0,0.0,0.0,0.0,0.0,0.0,0.0,0.0,0.0,0.0,0.0,0.0,0.0,0.0,0.0,0.0,0.0,0.0,0.0,0.0,0.0,0.0,0.0,0.0,0.0,0.0,0.0,0.0,0.0,0.0,0.0,0.0,0.0,0.0,0.0,0.0,0.0,0.0,0.0,0.0,0.0,0.0,0.0,0.0,0.0,0.0,0.0,0.0,0.0,0.0,0.0,0.0,0.0,0.0,0.0,0.0,0.0,0.0,0.0,0.0,0.0,0.0,0.0,0.0,0.0,0.0,0.0,0.0,0.0,0.0,0.0,0.0,0.0,0.0,0.0,0.0,0.0,0.0,0.0,0.0,2.76,2.8223,2.8523,2.8677,2.8677,2.8192,2.7049,2.4996,0.0,0.0,0.0,0.0,0.0,0.0,0.0,0.0,0.0,0.0,0.0,0.0,0.0,0.0,0.0,0.0,0.0,0.0,0.0,0.0,0.0,0.0,0.0,0.0,0.0,0.0,0.0,0.0,0.0,0.0,0.0,0.0,0.0,0.0,0.0,0.0,0.0,0.0,0.0,0.0,0.0,0.0,0.0,0.0,0.0,0.0,0.0,0.0,0.0,0.0,0.0,0.0,0.0,0.0,0.0,0.0,0.0,0.0,0.0,0.0,0.0,0.0,0.0,0.0,0.0,0.0,0.0,0.0,0.0,0.0,0.0,0.0,0.0,0.0,0.0,0.0,0.0,0.0,0.0,0.0,0.0,0.0,0.0,0.0,0.0,0.0,0.0,0.0,0.0,0.0,0.0,0.0,0.0,0.0,0.0,0.0,0.0,0.0,0.0,0.0,0.0,0.0,0.0,2.7636,2.7801,2.8627,2.8883,2.8975,2.8975,2.881,2.8013,2.6292,2.5499,0.0,0.0,0.0,0.0,0.0,0.0,0.0,0.0,0.0,0.0,0.0,0.0,0.0,0.0,0.0,0.0,0.0,0.0,0.0,0.0,0.0,0.0,0.0,0.0,0.0,0.0,0.0,0.0,0.0,0.0,0.0,0.0,0.0,0.0,0.0,0.0,0.0,0.0,0.0,0.0,0.0,0.0,0.0,0.0,0.0,0.0,0.0,0.0,0.0,0.0,0.0,0.0,0.0,0.0,0.0,0.0,0.0,0.0,0.0,0.0,0.0,0.0,0.0,0.0,0.0,0.0,0.0,0.0,0.0,0.0,0.0,0.0,0.0,0.0,0.0,0.0,0.0,0.0,0.0,0.0,0.0,0.0,0.0,0.0,0.0,0.0,0.0,0.0,0.0,0.0,0.0,0.0,0.0,0.0,0.0,0.0,0.0,0.0,0.0,0.0,0.0,0.0,2.8157,2.8302,2.902,2.9035,2.8975,2.8975,2.881,2.826,2.7233,2.6719,0.0,0.0,0.0,0.0,0.0,0.0,0.0,0.0,0.0,0.0,0.0,0.0,0.0,0.0,0.0,0.0,0.0,0.0,0.0,0.0,0.0,0.0,0.0,0.0,0.0,0.0,0.0,0.0,0.0,0.0,0.0,0.0,0.0,0.0,0.0,0.0,0.0,0.0,0.0,0.0,0.0,0.0,0.0,0.0,0.0,0.0,0.0,0.0,0.0,0.0,0.0,0.0,0.0,0.0,0.0,0.0,0.0,0.0,0.0,0.0,0.0,0.0,0.0,0.0,0.0,0.0,0.0,0.0,0.0,0.0,0.0,0.0,0.0,0.0,0.0,0.0,0.0,0.0,0.0,0.0,0.0,0.0,0.0,0.0,0.0,0.0,0.0,0.0,0.0,0.0,0.0,0.0,0.0,0.0,0.0,0.0,0.0,0.0,0.0,0.0,0.0,0.0,2.8445,2.8888,2.9394,2.9213,2.8975,2.8975,2.8297,2.7711,2.7196,2.6499,0.0,0.0,0.0,0.0,0.0,0.0,0.0,0.0,0.0,0.0,0.0,0.0,0.0,0.0,0.0,0.0,0.0,0.0,0.0,0.0,0.0,0.0,0.0,0.0,0.0,0.0,0.0,0.0,0.0,0.0,0.0,0.0,0.0,0.0,0.0,0.0,0.0,0.0,0.0,0.0,0.0,0.0,0.0,0.0,0.0,0.0,0.0,0.0,0.0,0.0,0.0,0.0,0.0,0.0,0.0,0.0,0.0,0.0,0.0,0.0,0.0,0.0,0.0,0.0,0.0,0.0,0.0,0.0,0.0,0.0,0.0,0.0,0.0,0.0,0.0,0.0,0.0,0.0,0.0,0.0,0.0,0.0,0.0,0.0,0.0,0.0,0.0,0.0,0.0,0.0,0.0,0.0,0.0,0.0,0.0,0.0,0.0,0.0,0.0,0.0,0.0,0.0,2.8427,2.8992,2.967,2.9627,2.9474,2.9212,2.9137,2.8538,2.7141,0.0,0.0,0.0,0.0,0.0,0.0,0.0,0.0,0.0,0.0,0.0,0.0,0.0,0.0,0.0,0.0,0.0,0.0,0.0,0.0,0.0,0.0,0.0,0.0,0.0,0.0,0.0,0.0,0.0,0.0,0.0,0.0,0.0,0.0,0.0,0.0,0.0,0.0,0.0,0.0,0.0,0.0,0.0,0.0,0.0,0.0,0.0,0.0,0.0,0.0,0.0,0.0,0.0,0.0,0.0,0.0,0.0,0.0,0.0,0.0,0.0,0.0,0.0,0.0,0.0,0.0,0.0,0.0,0.0,0.0,0.0,0.0,0.0,0.0,0.0,0.0,0.0,0.0,0.0,0.0,0.0,0.0,0.0,0.0,0.0,0.0,0.0,0.0,0.0,0.0,0.0,0.0,0.0,0.0,0.0,0.0,0.0,0.0,0.0,0.0,0.0,0.0,2.7883,2.8422,2.9108,2.9773,2.9905,2.9808,2.9524,2.941,2.8729,2.7414,0.0,0.0,0.0,0.0,0.0,0.0,0.0,0.0,0.0,0.0,0.0,0.0,0.0,0.0,0.0,0.0,0.0,0.0,0.0,0.0,0.0,0.0,0.0,0.0,0.0,0.0,0.0,0.0,0.0,0.0,0.0,0.0,0.0,0.0,0.0,0.0,0.0,0.0,0.0,0.0,0.0,0.0,0.0,0.0,0.0,0.0,0.0,0.0,0.0,0.0,0.0,0.0,0.0,0.0,0.0,0.0,0.0,0.0,0.0,0.0,0.0,0.0,0.0,0.0,0.0,0.0,0.0,0.0,0.0,0.0,0.0,0.0,0.0,0.0,0.0,0.0,0.0,0.0,0.0,0.0,0.0,0.0,0.0,0.0,0.0,0.0,0.0,0.0,0.0,0.0,0.0,0.0,0.0,0.0,0.0,0.0,0.0,0.0,0.0,0.0,0.0,0.0,2.7728,2.8571,2.9352,2.9776,2.9909,2.9922,2.9922,2.8842,2.8121,0.0,0.0,0.0,0.0,0.0,0.0,0.0,0.0,0.0,0.0,0.0,0.0,0.0,0.0,0.0,0.0,0.0,0.0,0.0,0.0,0.0,0.0,0.0,0.0,0.0,0.0,0.0,0.0,0.0,0.0,0.0,0.0,0.0,0.0,0.0,0.0,0.0,0.0,0.0,0.0,0.0,0.0,0.0,0.0,0.0,0.0,0.0,0.0,0.0,0.0,0.0,0.0,0.0,0.0,0.0,0.0,0.0,0.0,0.0,0.0,0.0,0.0,0.0,0.0,0.0,0.0,0.0,0.0,0.0,0.0,0.0,0.0,0.0,0.0,0.0,0.0,0.0,0.0,0.0,0.0,0.0,0.0,0.0,0.0,0.0,0.0,0.0,0.0,0.0,0.0,0.0,0.0,0.0,0.0,0.0,0.0,0.0,0.0,0.0,0.0,0.0,0.0,0.0,3.0448,3.1603,3.2585,3.3015,3.2354,3.1741,3.1398,3.0246,2.8983,2.7573,0.0,0.0,0.0,0.0,0.0,0.0,0.0,0.0,0.0,0.0,0.0,0.0,0.0,0.0,0.0,0.0,0.0,0.0,0.0,0.0,0.0,0.0,0.0,0.0,0.0,0.0,0.0,0.0,0.0,0.0,0.0,0.0,0.0,0.0,0.0,0.0,0.0,0.0,0.0,0.0,0.0,0.0,0.0,0.0,0.0,0.0,0.0,0.0,0.0,0.0,0.0,0.0,0.0,0.0,0.0,0.0,0.0,0.0,0.0,0.0,0.0,0.0,0.0,0.0,0.0,0.0,0.0,0.0,0.0,0.0,0.0,0.0,0.0,0.0,0.0,0.0,0.0,0.0,0.0,0.0,0.0,0.0,0.0,0.0,0.0,0.0,0.0,0.0,0.0,0.0,0.0,0.0,0.0,0.0,0.0,0.0,0.0,0.0,0.0,0.0,0.0,0.0,3.133,3.2752,3.3868,3.4119,3.3669,3.3275,3.2979,3.1954,3.0635,2.9103,0.0,0.0,0.0,0.0,0.0,0.0,0.0,0.0,0.0,0.0,0.0,0.0,0.0,0.0,0.0,0.0,0.0,0.0,0.0,0.0,0.0,0.0,0.0,0.0,0.0,0.0,0.0,0.0,0.0,0.0,0.0,0.0,0.0,0.0,0.0,0.0,0.0,0.0,0.0,0.0,0.0,0.0,0.0,0.0,0.0,0.0,0.0,0.0,0.0,0.0,0.0,0.0,0.0,0.0,0.0,0.0,0.0,0.0,0.0,0.0,0.0,0.0,0.0,0.0,0.0,0.0,0.0,0.0,0.0,0.0,0.0,0.0,0.0,0.0,0.0,0.0,0.0,0.0,0.0,0.0,0.0,0.0,0.0,0.0,0.0,0.0,0.0,0.0,0.0,0.0,0.0,0.0,0.0,0.0,0.0,0.0,0.0,0.0,0.0,0.0,0.0,0.0,3.1257,3.2914,3.4161,3.4206,3.4406,3.4558,3.4558,3.3606,3.2612,3.1746,0.0,0.0,0.0,0.0,0.0,0.0,0.0,0.0,0.0,0.0,0.0,0.0,0.0,0.0,0.0,0.0,0.0,0.0,0.0,0.0,0.0,0.0,0.0,0.0,0.0,0.0,0.0,0.0,0.0,0.0,0.0,0.0,0.0,0.0,0.0,0.0,0.0,0.0,0.0,0.0,0.0,0.0,0.0,0.0,0.0,0.0,0.0,0.0,0.0,0.0,0.0,0.0,0.0,0.0,0.0,0.0,0.0,0.0,0.0,0.0,3.8186,3.7465,0.0,0.0,0.0,0.0,0.0,0.0,0.0,0.0,0.0,0.0,0.0,0.0,0.0,0.0,0.0,0.0,0.0,0.0,0.0,0.0,0.0,0.0,0.0,0.0,0.0,0.0,0.0,0.0,0.0,0.0,0.0,0.0,0.0,0.0,0.0,0.0,0.0,0.0,0.0,0.0,3.3903,3.5463,3.6643,3.7045,3.6325,3.5795,3.5795,3.4092,3.2796,3.2279,3.0379,0.0,0.0,0.0,0.0,0.0,0.0,0.0,0.0,0.0,0.0,0.0,0.0,0.0,0.0,0.0,0.0,0.0,0.0,0.0,0.0,0.0,0.0,0.0,0.0,0.0,0.0,0.0,0.0,0.0,0.0,0.0,0.0,0.0,0.0,0.0,0.0,0.0,0.0,0.0,0.0,0.0,0.0,0.0,0.0,0.0,0.0,0.0,0.0,0.0,0.0,0.0,0.0,0.0,0.0,0.0,0.0,0.0,0.0,0.0,3.9713,3.8887,0.0,0.0,0.0,0.0,0.0,0.0,0.0,0.0,0.0,0.0,0.0,0.0,0.0,0.0,0.0,0.0,0.0,0.0,0.0,0.0,0.0,0.0,0.0,0.0,0.0,0.0,0.0,0.0,0.0,0.0,0.0,0.0,0.0,0.0,0.0,0.0,0.0,0.0,0.0,0.0,3.4969,3.642,3.7605,3.8137,3.7548,3.7042,3.7042,3.5839,3.4687,3.4004,3.2257,0.0,0.0,0.0,0.0,0.0,0.0,0.0,0.0,0.0,0.0,0.0,0.0,0.0,0.0,0.0,0.0,0.0,0.0,0.0,0.0,0.0,0.0,0.0,0.0,0.0,0.0,0.0,0.0,0.0,0.0,0.0,0.0,0.0,0.0,0.0,0.0,0.0,0.0,0.0,0.0,0.0,0.0,0.0,0.0,0.0,0.0,0.0,0.0,0.0,0.0,0.0,0.0,0.0,4.261,4.3218,4.3689,4.3614,4.3514,4.3313,4.1379,4.0651,4.0727,3.9722,0.0,0.0,0.0,0.0,0.0,0.0,0.0,0.0,0.0,0.0,0.0,0.0,0.0,0.0,0.0,0.0,0.0,0.0,0.0,0.0,0.0,0.0,3.8462,3.745,3.8138,3.8367,3.6031,0.0,0.0,0.0,0.0,0.0,0.0,0.0,0.0,0.0,0.0,0.0,3.5405,3.6671,3.7767,3.84,3.8262,3.8157,3.8157,3.765,3.6949,3.5909,3.4438,3.3109,0.0,0.0,0.0,0.0,0.0,0.0,0.0,0.0,0.0,0.0,0.0,0.0,0.0,0.0,0.0,0.0,0.0,0.0,0.0,0.0,0.0,0.0,0.0,0.0,0.0,0.0,0.0,0.0,0.0,0.0,0.0,0.0,4.1075,4.1075,0.0,0.0,0.0,0.0,0.0,0.0,0.0,0.0,0.0,0.0,0.0,0.0,0.0,4.1656,4.2534,4.3162,4.3966,4.4945,4.5497,4.605,4.6577,4.61,4.5623,4.5121,4.4317,0.0,4.1936,4.1279,0.0,0.0,0.0,0.0,0.0,0.0,0.0,0.0,0.0,0.0,0.0,0.0,0.0,0.0,0.0,0.0,0.0,0.0,0.0,0.0,0.0,0.0,4.1409,4.0733,4.0083,3.9371,3.8542,3.7517,3.6327,3.495,3.473,3.4435,0.0,0.0,0.0,0.0,0.0,0.0,3.6088,3.6824,3.7633,3.8638,3.8736,3.8684,3.8684,3.827,3.7706,3.7019,3.5548,3.4369,3.3731,3.2135,0.0,0.0,0.0,0.0,0.0,0.0,0.0,0.0,0.0,0.0,0.0,0.0,0.0,0.0,0.0,0.0,0.0,0.0,0.0,0.0,0.0,0.0,0.0,0.0,0.0,0.0,0.0,0.0,0.0,4.197,4.2693,4.1031,4.2302,4.2437,0.0,0.0,0.0,0.0,0.0,0.0,0.0,0.0,0.0,4.3081,4.3555,4.4454,4.5922,4.721,4.8105,4.8632,4.9127,4.9489,4.9699,4.9147,4.8726,4.8521,4.7885,4.7017,4.5857,4.3318,4.1756,4.0849,0.0,0.0,0.0,0.0,4.0591,4.0459,4.1448,4.1864,4.2011,4.1882,0.0,0.0,0.0,0.0,0.0,0.0,0.0,4.006,4.128,4.1827,4.203,4.2084,4.1981,4.176,4.1182,4.0871,3.9751,3.6784,3.5924,3.5376,3.4234,3.397,0.0,0.0,0.0,3.5489,3.6528,3.7394,3.816,3.8976,3.8893,3.8788,3.8788,3.8644,3.8275,3.7735,3.6456,3.5496,3.493,3.3355,3.2203,0.0,0.0,0.0,0.0,0.0,0.0,0.0,0.0,0.0,0.0,0.0,0.0,0.0,0.0,0.0,0.0,0.0,0.0,0.0,0.0,0.0,0.0,0.0,0.0,0.0,0.0,0.0,0.0,4.386,4.4624,4.2264,4.42,4.4651,0.0,0.0,0.0,0.0,0.0,0.0,4.3782,4.4064,4.4785,4.5956,4.6481,4.738,4.8647,4.9993,5.0775,5.0911,5.1347,5.1588,5.1723,5.1126,5.0854,5.0827,5.0173,4.9576,4.8869,4.5634,4.3724,4.28,4.2235,4.1748,4.1518,4.2653,4.2774,4.2661,4.4161,4.4606,4.4441,4.4117,4.3788,4.3211,4.1398,0.0,0.0,0.0,0.0,4.0728,4.2334,4.2664,4.2677,4.3115,4.3263,4.3286,4.29,4.3009,4.2247,3.9058,3.81,3.7458,3.6328,3.5884,0.0,3.5264,3.5953,3.6776,3.7682,3.8216,3.8739,3.9364,3.9154,3.905,3.905,3.905,3.8827,3.8359,3.7493,3.6776,3.6256,3.4919,3.388,3.3123,0.0,0.0,0.0,0.0,0.0,0.0,0.0,0.0,0.0,0.0,0.0,0.0,0.0,0.0,0.0,0.0,0.0,0.0,0.0,0.0,0.0,0.0,0.0,0.0,0.0,0.0,0.0,0.0,0.0,4.6108,4.7243,0.0,0.0,0.0,0.0,4.6261,4.743,4.811,4.811,4.9171,4.9795,4.9707,4.9737,4.982,4.9788,4.9899,5.0227,5.0739,5.0709,5.1034,5.1602,5.098,5.0682,5.0712,5.0116,4.9576,4.8979,4.8327,4.7622,4.6946,4.643,4.6106,4.5946,4.5508,4.5343,4.5234,4.4847,4.5327,4.6195,4.6785,4.6216,4.4941,4.3127,4.1834,0.0,0.0,4.2418,4.35,4.4496,4.4476,4.4163,4.4219,4.3539,4.2819,4.2792,4.2433,4.1998,4.1795,4.1741,4.1334,4.0205,0.0,3.9247,3.9879,3.8652,3.8329,4.0021,3.9445,3.9069,3.9622,3.9645,3.9645,3.9645,3.9645,3.942,3.8894,3.8818,3.8517,3.789,3.7288,3.6413,3.5105,3.4035,0.0,0.0,0.0,0.0,0.0,0.0,0.0,0.0,0.0,0.0,0.0,0.0,0.0,0.0,0.0,0.0,0.0,0.0,0.0,0.0,0.0,0.0,0.0,0.0,0.0,0.0,0.0,0.0,4.7183,4.9497,0.0,4.8024,4.789,4.8081,4.8326,4.9446,4.9908,4.9471,5.0206,5.0585,5.0414,5.1291,5.1877,5.221,5.3022,5.3523,5.375,5.375,5.3864,5.4006,5.3411,5.2901,5.2448,5.1906,5.1282,5.0687,5.0512,4.942,4.7785,4.7702,4.7376,4.6995,4.756,4.7513,4.7174,4.773,4.8166,4.8431,4.8238,4.7032,4.5585,4.4969,4.3926,4.3076,4.36,4.4062,4.4566,4.5312,4.5467,4.5338,4.5338,4.5064,4.4759,4.4759,4.4635,4.4351,4.3953,4.2195,4.0604,3.9761,3.9761,3.9815,3.967,4.0167,4.0723,4.134,4.1431,4.1505,4.164,4.1667,4.1667,4.1667,4.1667,4.1588,4.1425,4.0444,4.0109,4.0552,3.8964,3.8013,3.7844,3.6726,3.511,0.0,0.0,0.0,0.0,0.0,0.0,0.0,0.0,0.0,0.0,0.0,0.0,0.0,0.0,0.0,0.0,0.0,0.0,0.0,0.0,0.0,0.0,0.0,0.0,0.0,4.9575,5.1038,4.9799,5.1963,5.2667,5.0421,5.0449,5.0617,5.0732,5.1682,5.21,5.1544,5.21,5.2323,5.2128,5.2989,5.3542,5.3768,5.4612,5.5017,5.5017,5.5017,5.5017,5.5017,5.4608,5.4083,5.3442,5.3055,5.2282,5.1424,5.186,5.1012,4.9398,4.9426,4.9011,4.8534,4.9285,4.9143,4.8703,4.9522,4.9815,4.9727,4.9183,4.815,4.704,4.6602,4.5872,4.5259,4.5434,4.5493,4.558,4.6048,4.6075,4.6001,4.6001,4.5956,4.5895,4.5895,4.5895,4.5634,4.4763,4.3044,4.1636,4.1218,4.1163,4.1163,4.1179,4.156,4.1892,4.2084,4.2351,4.2466,4.2466,4.2656,4.2792,4.2792,4.2439,4.2229,4.2466,4.1069,4.0627,4.1598,4.0188,3.9321,3.921,3.7721,3.598,3.4073,0.0,0.0,0.0,0.0,0.0,0.0,0.0,0.0,0.0,0.0,0.0,0.0,0.0,0.0,0.0,0.0,0.0,0.0,0.0,0.0,0.0,0.0,0.0,5.1552,5.3204,5.4311,5.4081,5.4586,5.4627,5.3698,5.3325,5.326,5.3611,5.4433,5.4837,5.457,5.5068,5.5259,5.4884,5.4884,5.472,5.4304,5.4304,5.4304,5.4304,5.4304,5.4304,5.4304,5.4274,5.395,5.336,5.3331,5.2444,5.1061,5.2288,5.2515,5.1988,5.1744,5.1265,5.0763,5.0763,5.0328,4.9766,5.0009,5.0057,5.0017,4.9628,4.9469,4.9233,4.8011,4.7598,4.745,4.6786,4.6609,4.6609,4.6609,4.6403,4.6225,4.6225,4.6046,4.594,4.594,4.594,4.5562,4.4284,4.4487,4.4894,4.4821,4.3805,4.3427,4.4676,4.2993,0.0,4.2357,4.2095,4.1889,4.1889,4.2453,4.2834,4.2861,4.1754,4.1272,4.1862,4.0665,4.0286,4.0955,4.0955,4.0385,3.921,3.6877,3.5437,3.4917,0.0,0.0,0.0,0.0,0.0,0.0,0.0,0.0,0.0,0.0,0.0,0.0,0.0,0.0,0.0,0.0,0.0,0.0,0.0,0.0,0.0,5.1999,5.2931,5.2309,5.347,5.4539,5.4907,5.5907,5.6471,5.6187,5.6118,5.6089,5.6158,5.603,5.5677,5.5072,5.5219,5.5066,5.4495,5.4465,5.4377,5.4304,5.4304,5.4304,5.4304,5.4304,5.4304,5.4274,5.3832,5.3301,5.2653,5.2181,5.1454,5.0669,5.1003,5.1641,5.2356,5.3041,5.2719,5.1903,5.1903,5.1248,5.022,4.9816,4.9993,5.0199,4.9127,4.8791,4.8732,4.8378,4.7611,4.6933,4.7243,4.6963,4.6609,4.6609,4.6535,4.6491,4.6491,4.6476,4.6432,4.6432,4.6432,4.6021,4.4656,4.4539,4.4424,4.3687,4.3224,4.3282,4.4124,4.3705,4.3358,4.3531,4.3484,4.3393,4.3393,4.3564,4.3849,4.4276,4.3592,4.3393,4.3991,4.261,4.2111,4.3092,4.1976,4.1091,4.0557,3.8902,3.7805,0.0,0.0,0.0,0.0,0.0,0.0,0.0,0.0,0.0,0.0,0.0,0.0,0.0,0.0,0.0,0.0,0.0,0.0,0.0,0.0,0.0,0.0,5.3953,5.5015,5.4506,5.5048,5.5619,5.5847,5.6527,5.6947,5.6839,5.6947,5.6828,5.6456,5.6208,5.5706,5.4923,5.4893,5.4768,5.4517,5.4487,5.4539,5.4692,5.4692,5.4692,5.4692,5.4692,5.4692,5.4662,5.4039,5.3386,5.2734,5.2051,5.1302,5.0644,5.091,5.1472,5.2221,0.0,0.0,0.0,0.0,5.1149,5.0412,4.9875,4.9952,5.01,4.9156,4.8846,4.8787,4.852,4.7926,4.7333,4.7451,4.7184,4.6887,4.6887,4.68,4.6712,4.6712,4.6668,4.6609,4.6609,4.6373,4.5872,4.4811,4.4398,0.0,4.3416,4.3286,4.339,4.3642,4.3743,4.3613,4.3224,4.3398,4.3573,4.3573,4.4037,4.4501,4.485,4.4066,0.0,0.0,0.0,4.2253,4.3195,4.198,0.0,0.0,0.0,0.0,0.0,3.8189,0.0,0.0,3.7271,3.7147,0.0,0.0,0.0,0.0,0.0,0.0,0.0,0.0,0.0,0.0,0.0,0.0,0.0,0.0,0.0,0.0,5.5987,5.7214,5.7214,5.7154,5.6989,5.6786,5.6756,5.668,5.6527,5.6687,5.6473,5.5558,5.5649,5.5375,5.4436,5.4406,0.0,0.0,0.0,5.4955,5.5179,5.5179,5.5179,5.5179,5.5179,5.5179,5.5149,5.4431,5.3773,5.3144,5.2396,5.1595,5.0899,5.1476,5.1773,5.1892,5.23,5.2437,5.223,5.1128,5.0655,5.0478,5.0003,0.0,0.0,4.9269,4.9149,4.909,4.8446,4.8297,4.8177,4.7578,4.7429,4.7399,4.7339,4.7106,4.6975,4.6975,4.68,4.6697,4.6697,4.6122,4.5473,4.4794,4.4216,4.3744,4.3685,4.3673,4.362,4.3399,4.3399,4.3123,4.2303,4.2698,4.3076,4.3076,4.4153,0.0,4.4923,4.3761,4.3325,4.395,4.2237,4.1482,4.2063,4.1541,4.1163,4.1105,4.0583,4.0263,4.0089,4.0176,4.0205,4.0176,3.8434,3.8231,0.0,0.0,0.0,0.0,0.0,0.0,0.0,0.0,0.0,0.0,0.0,0.0,0.0,0.0,0.0,5.5658,5.7004,5.7932,5.7932,5.7453,5.7094,5.7042,5.7042,5.7199,5.7713,5.7826,5.7527,5.6818,5.6332,5.5765,5.5057,5.5027,5.5078,5.5128,5.5128,5.5158,5.5179,5.5179,5.5179,5.5179,5.5179,0.0,5.5149,5.3922,5.3294,5.3114,5.1917,5.1302,5.1135,5.1255,5.1613,5.2181,5.2789,5.27,5.2222,5.1954,5.1536,5.0909,4.9791,4.9702,4.9881,4.8237,4.8027,4.8446,4.8327,4.8297,0.0,4.8117,4.8087,4.7967,4.7429,4.7266,4.7222,4.7222,4.7179,4.7179,4.7179,4.6642,4.5943,4.5299,4.4642,4.4005,4.3468,4.3553,4.3661,4.3608,4.3649,4.3384,4.2655,4.3166,4.3578,4.3578,4.4284,4.4875,4.5201,4.4046,4.3494,4.395,4.2673,4.1947,4.2092,4.1976,4.1657,4.1105,4.1482,4.1163,4.0089,4.0641,4.0902,4.0873,3.9973,3.9683,0.0,0.0,0.0,0.0,0.0,0.0,0.0,0.0,0.0,0.0,0.0,5.2516,5.3503,0.0,5.5628,5.6944,5.7693,5.8112,5.8112,5.7513,5.7094,5.7094,5.7094,5.7363,5.8052,5.8411,5.8201,5.7184,5.6795,5.6226,5.5239,5.5179,5.5179,5.5179,5.5179,5.5179,5.5179,5.5179,5.5179,5.5179,5.5179,5.5029,5.467,5.3653,5.2995,5.2636,5.1648,5.1229,5.1229,5.1229,5.1409,5.1768,5.2426,5.2695,5.2606,5.1947,5.1708,5.1528,5.0212,4.9763,4.9523,4.8237,4.7788,4.7788,4.7788,4.8027,4.8207,4.7878,4.8027,4.8147,4.7489,4.7309,4.7309,4.7309,4.7309,4.7309,4.7309,4.68,4.6112,4.5424,4.4766,4.4107,4.3409,4.3666,4.395,4.3856,4.4122,4.4211,4.3761,4.3997,4.4204,4.4204,4.4794,4.5253,4.5447,4.4565,4.3805,4.3357,4.2743,4.2392,4.2392,4.2392,4.2246,4.1895,4.2123,4.1948,4.1397,4.1668,4.1732,4.1732,4.1503,4.1277,0.0,0.0,0.0,0.0,0.0,0.0,0.0,5.2606,5.2995,5.3114,5.3354,5.4042,5.5658,5.5957,5.6466,5.8052,5.8321,5.8321,5.8321,5.7723,5.7334,5.7483,5.7363,5.7573,5.8261,5.88,5.853,5.7184,5.7094,5.6526,5.5269,5.5179,5.5179,5.5179,5.5179,5.5179,5.5179,5.5179,5.5179,5.5179,5.5059,5.473,5.4192,5.3354,5.2695,5.2157,5.1498,5.1229,5.1229,5.1229,5.1229,5.1259,5.1798,5.2426,5.2845,5.1798,5.1648,5.1828,5.0614,4.9793,4.9209,4.8506,4.7848,4.7309,4.7309,4.7848,4.8327,4.7519,4.7878,4.8297,4.7519,4.7309,4.7309,4.7309,4.7309,4.7309,4.7309,4.68,4.6112,4.5424,4.4766,4.4107,4.3409,4.3738,4.4056,4.3894,4.4578,4.4941,4.4655,4.4862,4.5039,4.5039,4.5572,4.5795,4.5516,4.4971,4.4074,4.2777,4.2688,4.2688,4.2688,4.2688,4.2688,4.2688,4.2555,4.2555,4.2688,4.2555,4.2474,4.2474,4.2607,4.2474,4.9868,4.9643,5.0524,5.2396,5.2456,5.2725,0.0,5.5688,5.5897,5.6436,5.7513,5.8411,5.862,5.865,5.874,5.8949,5.9009,5.9009,5.9009,5.8411,5.8231,5.88,5.8351,5.8261,5.8919,5.9069,5.853,5.7184,5.7094,5.6526,5.5269,5.5179,5.5179,5.5179,5.5179,5.5179,5.5179,5.5179,5.5179,5.5179,5.461,5.4281,5.4162,5.2905,5.2276,5.2157,5.1498,5.1229,5.1229,5.1229,5.1229,5.1229,5.1289,5.1738,5.2276,5.2127,5.1768,5.1229,5.0435,4.9793,4.9209,4.8506,4.7848,4.7309,4.7309,4.8177,4.894,4.7668,4.8207,4.891,4.7638,4.7309,4.7309,4.7309,4.7309,4.7309,4.7309,4.68,4.6112,4.5424,4.4766,4.4107,4.3409,4.3349,4.3409,4.3369,4.4456,4.5053,4.4415,4.54,4.6117,4.6117,4.6715,4.6539,4.5179,4.479,4.4074,4.2777,4.2688,4.2688,4.2688,4.2688,4.2688,4.2688,4.2688,4.2688,4.2688,4.2688,4.2648,4.2648,4.2688,4.2474,5.1169,5.1738,5.2845,5.4042,5.4999,5.5927,5.7064,5.7902,5.8411,5.8291,5.871,5.9099,5.9099,5.88,5.865,5.9039,5.9099,5.9099,5.9099,5.886,5.88,5.9069,5.886,5.88,5.9069,5.9099,5.853,5.7184,5.7094,5.6526,5.5269,5.5179,5.5179,5.5179,5.5179,5.5179,5.5179,5.5179,5.4999,5.461,5.4341,5.3803,5.3025,5.2456,5.2007,5.1618,5.1349,5.1229,5.1229,5.1229,5.1229,5.1229,5.1229,5.1379,5.1618,5.1618,5.1708,5.1708,5.0973,5.0122,4.9269,4.9,4.8147,4.7309,4.7309,4.8237,4.903,4.7668,4.8267,4.9,4.7638,4.7309,4.7309,4.7309,4.7309,4.7309,4.7309,4.71,4.6681,4.6022,4.5334,4.4676,4.4018,4.3559,4.329,4.329,4.4137,4.4915,4.5424,4.592,4.6429,4.686,4.713,4.6877,4.5866,4.5305,4.4596,4.3675,4.3259,4.305,4.305,4.305,4.305,4.305,4.293,4.293,4.305,4.293,4.289,4.289,4.301,4.3016,5.2276,5.3443,5.467,5.5508,5.7064,5.8441,5.862,5.9697,6.0505,6.0027,5.9937,5.9877,5.9697,5.9129,5.877,5.9069,5.9099,5.9099,5.9099,5.9099,5.9099,5.9099,5.9099,5.9099,5.9099,5.8949,5.8351,5.7184,5.6944,5.6346,5.5239,5.5179,5.5179,5.5179,5.5179,5.5179,5.5179,5.5179,5.485,5.4221,5.4012,5.3324,5.2187,5.2007,5.1678,5.1229,5.1229,5.1229,5.1229,5.1229,5.1229,5.1229,5.1229,5.1229,5.1229,5.1229,5.1528,5.1858,5.1379,5.0481,4.9494,4.9359,4.8506,4.7549,4.7369,4.8237,4.903,4.7668,4.8267,4.9,4.7638,4.7309,4.7309,4.7309,4.7309,4.7309,4.7309,4.7309,4.71,4.6441,4.5933,4.5304,4.4466,4.3888,4.3499,4.3319,4.3708,4.4526,4.5873,4.6202,4.6441,4.6711,4.6741,4.6561,4.6082,4.5574,4.5005,4.4347,4.3828,4.3469,4.329,4.329,4.329,4.329,4.317,4.317,4.329,4.3349,4.3358,4.3358,4.3698,4.3975,5.2965,5.4132,5.5448,5.6735,5.8052,5.9249,5.9877,6.1074,6.2032,6.2002,6.2002,6.1822,6.1164,6.0505,5.9817,5.9189,5.9099,5.9099,5.9099,5.9099,5.9099,5.9099,5.9099,5.9099,5.9099,5.853,5.7872,5.7154,5.6526,5.5897,5.5239,5.5179,5.5179,5.5179,5.5179,5.5179,5.5179,5.5179,5.485,5.4192,5.3533,5.2845,5.2187,5.1528,5.1229,5.1229,5.1229,5.1229,5.1229,5.1229,5.1229,5.1229,5.1229,5.1229,5.1229,5.1229,5.1229,5.1259,5.1229,5.0734,5.0076,4.9464,4.8805,4.8147,4.7489,4.8237,4.903,4.7668,4.8267,4.9,4.7638,4.7309,4.7309,4.7309,4.7309,4.7309,4.7309,4.7309,4.71,4.6441,4.6279,4.5831,4.4556,4.4287,4.4077,4.3379,4.3319,4.3798,4.5155,4.5903,4.6082,4.5424,4.5364,4.5334,4.5334,4.5304,4.5005,4.4347,4.4287,4.3988,4.3319,4.329,4.329,4.329,4.329,4.329,4.329,4.3947,4.4246,4.4276,4.4945,4.5244,5.4965,5.5972,5.6675,5.7573,5.9129,6.0505,6.0715,6.1792,6.263,6.2181,6.1373,6.0565,5.9907,5.9608,5.9219,5.856,5.9189,5.9608,5.9159,5.9099,5.9099,5.9099,5.9099,5.9099,5.9099,5.8501,5.7842,5.7154,5.6526,5.5897,5.5239,5.5179,5.5179,5.5179,5.5179,5.5179,5.5179,5.5179,5.464,5.3503,5.2426,5.1768,5.1528,5.1319,5.1229,5.1229,5.1229,5.1229,5.1229,5.1229,5.1229,5.1229,5.1229,5.1229,5.1229,5.1229,5.1229,5.1229,5.1229,5.0734,5.0166,4.9972,4.9164,4.8327,4.8536,4.897,4.912,4.8207,4.8596,4.9,4.7638,4.7309,4.7309,4.7309,4.7309,4.7309,4.7309,4.7309,4.7249,4.701,4.6621,4.613,4.5681,4.5274,4.4736,4.4077,4.3947,4.4137,4.4586,4.5214,4.5544,4.5304,4.5693,4.5963,4.5963,4.5963,4.5873,4.5622,4.4796,4.4227,4.3947,4.3529,4.329,4.329,4.3738,4.3947,4.3988,4.4646,4.4975,4.4975,4.5185,4.5304,5.7053,5.806,5.8787,5.9439,6.0464,6.1382,6.1624,6.2014,6.2331,6.2121,6.1014,5.9877,5.9219,5.8919,5.862,5.8201,5.9039,5.9578,5.9159,5.9308,5.9368,5.9129,5.9099,5.9009,5.877,5.8141,5.7573,5.7124,5.6316,5.5628,5.5209,5.5179,5.5179,5.5179,5.5179,5.5179,5.5179,5.497,5.4162,5.2815,5.1738,5.1229,5.1229,5.1229,5.1229,5.1229,5.1229,5.1229,5.1229,5.1229,5.1229,5.1229,5.1229,5.1229,5.1229,5.1229,5.1229,5.1229,5.1229,5.093,5.0495,5.0255,4.9673,4.9015,4.9239,4.9434,4.9434,4.8536,4.8745,4.9,4.7638,4.7309,4.7309,4.7309,4.7309,4.7309,4.7309,4.7309,4.7309,4.7309,4.695,4.6591,4.6309,4.5753,4.5065,4.4407,4.4317,4.4227,4.3947,4.4526,4.4855,4.4616,4.4964,4.5293,4.5532,4.5813,4.5963,4.5963,4.5364,4.4915,4.4676,4.4257,4.3977,4.3977,4.4436,4.4676,4.4676,4.5334,4.5663,4.5663,4.5663,4.5663,5.9158,6.0313,6.1435,6.2098,6.2019,6.1849,6.2495,6.1874,6.1283,6.1912,6.0954,5.9787,5.9219,5.859,5.8171,5.8141,5.874,5.9189,5.9129,5.9638,5.9787,5.9189,5.9099,5.886,5.8201,5.7483,5.7094,5.7064,5.5897,5.5179,5.5179,5.5179,5.5179,5.5179,5.5179,5.5179,5.5179,5.4491,5.3503,5.2187,5.1528,5.1229,5.1229,5.1229,5.1229,5.1229,5.1229,5.1229,5.1229,5.1229,5.1229,5.1229,5.1229,5.1229,5.1229,5.1229,5.1229,5.1229,5.1229,5.1229,5.1109,5.0435,5.0226,5.0076,4.9553,4.9763,4.9927,4.8745,4.888,4.906,4.7698,4.7369,4.7339,4.7309,4.7309,4.7309,4.7309,4.7309,4.7309,4.7309,4.7309,4.71,4.6429,4.5813,4.5125,4.4466,4.4347,4.4077,4.3379,4.3868,4.4018,4.3349,4.3319,4.3589,4.4257,4.4915,4.5304,4.5334,4.5933,4.5992,4.5364,4.5304,4.5304,4.5304,4.5334,4.5334,4.5304,4.5992,4.6249,4.6262,4.6262,4.6219,6.1102,6.1388,6.1119,6.2076,6.2019,6.1726,6.1911,6.151,6.1164,6.1343,5.9907,5.871,5.9039,5.8979,5.871,5.8201,5.9518,6.0236,5.9249,5.9249,5.9279,5.9129,5.9099,5.886,5.8201,5.7483,5.6885,5.6436,5.5658,5.5179,5.5179,5.5179,5.5179,5.5179,5.5179,5.5179,5.5179,5.4042,5.3025,5.2187,5.1528,5.1229,5.1229,5.1229,5.1229,5.1229,5.1229,5.1229,5.1229,5.1229,5.1229,5.1229,5.1229,5.1229,5.1229,5.1229,5.1229,5.1229,5.1229,5.1229,5.1199,5.102,5.0584,5.0255,5.0631,5.0481,5.0136,4.9777,4.9807,4.9673,4.8386,4.8027,4.7908,4.7429,4.7309,4.7309,4.7309,4.7309,4.7309,4.7309,4.7309,4.7249,4.707,4.6501,4.5843,4.5155,4.4616,4.4077,4.3379,4.3439,4.3469,4.3319,4.3738,4.4137,4.4317,4.4915,4.5514,4.6022,4.5753,4.5693,4.6052,4.5574,4.5304,4.5304,4.5813,4.5813,4.5304,4.5992,4.6052,4.5544,4.5544,4.5304,6.2274,6.246,6.2238,6.2826,6.2473,6.1917,6.1605,6.0638,5.9638,5.9069,5.8052,5.7304,5.7363,5.7633,5.7902,5.8082,5.9308,6.0057,5.9608,5.9548,5.9428,5.9129,5.9099,5.874,5.7752,5.7334,5.6705,5.5807,5.5388,5.5179,5.5179,5.5179,5.5179,5.5179,5.5179,5.491,5.4311,5.3563,5.2695,5.1768,5.1379,5.1229,5.1229,5.1229,5.1229,5.1229,5.1229,5.1229,5.1229,5.1229,5.1229,5.1229,5.1229,5.1229,5.1229,5.1229,5.1229,5.1229,5.1229,5.1229,5.1229,5.1229,5.0913,5.0704,5.1109,5.096,5.0554,5.0285,5.0196,4.9956,4.8985,4.8506,4.8207,4.7818,4.7519,4.7309,4.7309,4.7309,4.7309,4.7309,4.7309,4.7309,4.7309,4.701,4.6531,4.5843,4.5185,4.4496,4.3798,4.3469,4.329,4.329,4.3618,4.3858,4.3858,4.4496,4.5035,4.5424,4.5364,4.5454,4.5873,4.5514,4.5304,4.5304,4.5663,4.5693,4.5304,4.5693,4.5663,4.5274,4.5005,4.4676,6.3006,6.3286,6.3483,6.3658,6.2875,6.1869,6.1131,5.941,5.7633,5.6316,5.6098,5.5927,5.5508,5.5987,5.6855,5.8171,5.8949,5.9548,6.0027,6.0086,5.9847,5.9189,5.9099,5.856,5.7214,5.7094,5.6555,5.5299,5.5179,5.5179,5.5179,5.5179,5.5179,5.5179,5.5179,5.4551,5.3204,5.3174,5.2516,5.1229,5.1229,5.1229,5.1229,5.1229,5.1229,5.1229,5.1229,5.1229,5.1229,5.1229,5.1229,5.1229,5.1229,5.1229,5.1229,5.1229,5.1229,5.1229,5.1229,5.1229,5.1229,5.1229,5.1229,5.1229,5.1229,5.1229,5.1109,5.0495,5.0315,5.0166,4.9553,4.8985,4.8506,4.8327,4.7848,4.7429,4.7339,4.7309,4.7309,4.7309,4.7309,4.7309,4.7309,4.7309,4.707,4.6369,4.5813,4.5155,4.4407,4.3708,4.329,4.329,4.329,4.329,4.329,4.3828,4.4227,4.4317,4.4855,4.5214,4.5304,4.5304,4.5304,4.5304,4.5304,4.5244,4.5155,4.5155,4.5125,4.5035,4.4436,4.4197,6.3981,6.2932,6.1489,6.2386,6.179,6.067,5.9402,5.8196,5.6915,5.5628,5.5359,5.5658,5.6585,5.7334,5.8231,5.9548,6.0326,6.0595,6.0146,6.0086,5.9847,5.9189,5.9099,5.856,5.7214,5.7094,5.6555,5.5299,5.5179,5.5179,5.5179,5.5179,5.5179,5.5179,5.5179,5.4551,5.3204,5.3174,5.2516,5.1229,5.1229,5.1229,5.1229,5.1229,5.1229,5.1229,5.1229,5.1229,5.1229,5.1229,5.1229,5.1229,5.1229,5.1229,5.1229,5.1229,5.1229,5.1229,5.1229,5.1229,5.1229,5.1229,5.1229,5.1229,5.1229,5.1229,5.1199,5.1079,5.105,5.0853,5.0196,4.9927,4.9568,4.8536,4.8207,4.7967,4.7429,4.7309,4.7309,4.7309,4.7309,4.7309,4.7309,4.7309,4.707,4.6369,4.619,4.5693,4.4466,4.3708,4.329,4.329,4.329,4.329,4.329,4.3409,4.3708,4.4287,4.4436,4.4736,4.5274,4.5304,4.5304,4.5304,4.5304,4.5035,4.4496,4.4496,4.4197,4.3618,4.3529,4.3469,6.3638,6.2676,6.1236,6.143,6.0834,5.9767,5.8122,5.6859,5.5538,5.3533,5.3653,5.4221,5.4491,5.5388,5.6526,5.7842,5.8321,5.889,5.9937,5.9488,5.9189,5.9578,5.9308,5.856,5.7214,5.7094,5.6555,5.5299,5.5179,5.5179,5.5179,5.5179,5.5179,5.5179,5.485,5.4192,5.3204,5.2845,5.2187,5.1229,5.1229,5.1229,5.1229,5.1229,5.1229,5.1229,5.1229,5.1229,5.1229,5.1229,5.1229,5.1229,5.1229,5.1229,5.1229,5.1229,5.1229,5.1229,5.1229,5.1229,5.1229,5.1229,5.1229,5.1229,5.1229,5.1229,5.1229,5.1229,5.1229,5.1139,5.0794,5.0435,5.0046,4.9434,4.8775,4.8117,4.7459,4.7309,4.7309,4.7309,4.7309,4.7309,4.7309,4.7309,4.7189,4.689,4.6488,4.6082,4.5424,4.4426,4.3678,4.3319,4.329,4.329,4.329,4.329,4.3439,4.3738,4.3768,4.3917,4.4257,4.4287,4.4459,4.4898,4.4459,4.4309,4.4413,4.3978,4.3589,4.329,4.329,4.329,6.2982,6.2333,6.1255,6.0705,5.994,5.8858,5.6886,5.5679,5.4251,5.1738,5.2157,5.2845,5.2486,5.3384,5.467,5.6137,5.6376,5.7244,5.9727,5.9069,5.877,5.9937,5.9518,5.856,5.7214,5.7094,5.6555,5.5299,5.5179,5.5179,5.5179,5.5179,5.5179,5.5179,5.4551,5.3892,5.3204,5.2546,5.1858,5.1229,5.1229,5.1229,5.1229,5.1229,5.1229,5.1229,5.1229,5.1229,5.1229,5.1229,5.1229,5.1229,5.1229,5.1229,5.1229,5.1229,5.1229,5.1229,5.1229,5.1229,5.1229,5.1229,5.1229,5.1229,5.1229,5.1229,5.1246,5.1433,5.1526,5.1526,5.1526,5.1272,5.0925,5.0653,4.9698,4.8624,4.7774,4.7581,4.7581,4.7581,4.7409,4.7409,4.7764,4.7709,4.7624,4.7807,4.7425,4.6989,4.6838,4.5777,4.475,4.4087,4.3558,4.329,4.329,4.329,4.329,4.329,4.329,4.329,4.329,4.329,4.3654,4.4472,4.3888,4.3888,4.451,4.3849,4.3548,4.3499,4.3499,4.3589,6.2514,6.1568,6.0221,6.0161,5.9201,5.7761,5.578,5.483,5.3713,5.1648,5.1798,5.2456,5.2995,5.3713,5.482,5.6705,5.7004,5.7723,5.9787,5.9458,5.9279,5.9997,5.9518,5.856,5.7214,5.7094,5.6555,5.5299,5.5179,5.5179,5.5179,5.5179,5.5179,5.5179,5.4551,5.3892,5.3204,5.2546,5.1858,5.1229,5.1229,5.1229,5.1229,5.1229,5.1229,5.1229,5.1229,5.1229,5.1229,5.1229,5.1229,5.1229,5.1229,5.1229,5.1229,5.1229,5.1229,5.1229,5.1229,5.1229,5.1229,5.1229,5.1229,5.1229,5.1229,5.1229,5.1386,5.22,5.2471,5.2471,5.2471,5.3077,5.331,5.2052,5.1212,5.0254,4.8779,4.849,4.849,4.849,4.7849,4.7764,4.9318,4.8953,4.8708,4.9447,4.9536,4.9253,4.8663,4.7836,4.7046,4.637,4.4497,4.329,4.329,4.329,4.329,4.329,4.329,4.329,4.329,4.329,4.3654,4.4472,4.4434,4.4434,4.451,4.4434,4.4308,4.4227,4.4227,4.4556,6.2257,6.2074,6.1104,6.0296,5.9398,5.8112,5.5748,5.467,5.3653,5.1618,5.1439,5.1678,5.1947,5.2217,5.2935,5.4491,5.473,5.5568,5.7962,5.8052,5.8291,5.9368,5.8919,5.8141,5.7184,5.6765,5.6166,5.5269,5.5179,5.5179,5.5179,5.5179,5.4999,5.461,5.3952,5.3264,5.2606,5.1947,5.1468,5.1229,5.1229,5.1229,5.1229,5.1229,5.1229,5.1229,5.1229,5.1229,5.1229,5.1229,5.1229,5.1229,5.1229,5.1229,5.1229,5.1229,5.1229,5.1229,5.1229,5.1229,5.1229,5.1229,5.1572,5.2048,5.2048,5.1665,5.1526,5.302,5.3051,5.274,5.3284,5.3719,5.3755,5.2786,5.2027,5.1209,5.0191,4.964,4.9318,4.9318,4.9035,4.9035,4.9686,4.9527,4.9407,4.9765,4.9805,4.971,4.9426,4.8773,4.8034,4.7309,4.5566,4.4496,4.4496,4.4496,4.4496,4.4496,4.4496,4.474,4.523,4.478,4.5388,4.7156,4.6251,4.6251,4.7193,4.6251,4.5738,4.5666,4.5131,4.5322,6.1605,6.1921,6.1313,6.0565,5.9428,5.7932,5.5688,5.4521,5.3384,5.1588,5.1229,5.1229,5.1229,5.1229,5.1588,5.2695,5.3054,5.4042,5.6466,5.6825,5.7304,5.865,5.8231,5.7543,5.6885,5.6256,5.5688,5.5239,5.5179,5.5089,5.491,5.491,5.47,5.4221,5.3354,5.2665,5.2187,5.1558,5.1229,5.1229,5.1229,5.1229,5.1229,5.1229,5.1229,5.1229,5.1229,5.1229,5.1229,5.1229,5.1229,5.1229,5.1229,5.1229,5.1229,5.1229,5.1229,5.1229,5.1229,5.1386,5.1618,5.1618,5.2245,5.3064,5.3328,5.2754,5.2336,5.3934,5.3934,5.3601,5.4569,5.4569,5.4252,5.3871,5.3206,5.2389,5.1487,5.0706,5.019,5.019,4.9962,4.9962,5.0499,5.0384,5.0267,5.0538,5.0576,5.0576,5.0576,4.9936,4.9265,4.8678,4.7444,4.6366,4.5716,4.5686,4.5686,4.5686,4.5686,4.5971,4.6581,4.6011,4.6748,4.8969,4.7902,4.7902,4.9004,4.7864,4.7185,4.6889,4.6244,4.6407,6.0386,6.0625,6.0266,6.0924,5.9099,5.6765,5.5478,5.4162,5.2815,5.1498,5.1229,5.1229,5.1229,5.1229,5.1439,5.2097,5.2755,5.3892,5.5948,5.6248,5.6675,5.7992,5.7513,5.6855,5.6308,5.5598,5.5209,5.5179,5.5179,5.491,5.4251,5.4221,5.4221,5.4221,5.2905,5.2217,5.2187,5.1558,5.1229,5.1229,5.1229,5.1229,5.1229,5.1229,5.1229,5.1229,5.1229,5.1229,5.1229,5.1229,5.1229,5.1229,5.1229,5.1229,5.1229,5.1229,5.1229,5.1229,5.1229,5.1819,5.2606,5.2606,5.3196,5.4147,5.5026,5.4653,5.4147,5.5067,5.5312,5.5474,5.6414,5.5988,5.5352,5.5556,5.5019,5.4034,5.2492,5.162,5.1065,5.1065,5.0384,5.0384,5.2053,5.1655,5.1397,5.2266,5.2373,5.2373,5.2373,5.1619,5.1065,5.1065,5.0274,4.8883,4.6784,4.6581,4.6581,4.6581,4.6581,4.6581,4.6581,4.6581,4.7331,4.8969,4.9004,4.9004,4.9004,4.9004,4.8514,4.7598,4.7598,4.7937,5.7393,5.856,5.9249,5.853,5.8082,5.7214,5.5029,5.4192,5.3384,5.1588,5.1229,5.1229,5.1229,5.1229,5.1588,5.2695,5.3054,5.3713,5.5299,5.5897,5.6368,5.6735,5.6585,5.6196,5.5568,5.5299,5.5179,5.5179,5.479,5.4431,5.4221,5.3324,5.2845,5.2845,5.2426,5.1977,5.1528,5.1319,5.1229,5.1229,5.1229,5.1229,5.1229,5.1229,5.1229,5.1229,5.1229,5.1229,5.1229,5.1229,5.1229,5.1229,5.1229,5.1229,5.1229,5.1229,5.1229,5.1293,5.1957,5.2336,5.2695,5.3328,5.419,5.4943,5.5231,5.4694,5.419,5.5035,5.5756,5.6336,5.6641,5.6486,5.627,5.6338,5.5421,5.4386,5.386,5.2836,5.198,5.198,5.1765,5.1729,5.2302,5.2194,5.2053,5.2338,5.2409,5.2409,5.2409,5.2158,5.1762,5.114,5.0876,5.0153,4.8891,4.878,4.8542,4.8009,4.7968,4.7968,4.7968,4.7968,4.8741,5.0385,5.0422,5.075,5.1325,5.075,4.9993,4.9134,4.9716,4.9772,5.6077,5.7064,5.7603,5.7513,5.7064,5.6226,5.4581,5.3832,5.3025,5.1528,5.1229,5.1229,5.1229,5.1229,5.1498,5.2306,5.2845,5.3384,5.3982,5.5059,5.5807,5.5807,5.5807,5.5658,5.5239,5.5179,5.5089,5.485,5.4431,5.3982,5.3473,5.2665,5.2097,5.1828,5.1828,5.1618,5.1229,5.1229,5.1229,5.1229,5.1229,5.1229,5.1229,5.1229,5.1229,5.1229,5.1229,5.1229,0.0,5.1229,5.1229,5.1229,5.1229,5.1229,5.1229,5.1229,5.1229,5.1339,5.2245,5.2829,5.3284,5.419,5.5108,5.5829,5.5829,5.5466,5.5108,5.5708,5.6257,5.668,5.668,5.668,5.6614,5.6349,5.5388,5.439,5.4162,5.3202,5.2409,5.2409,5.2409,5.2409,5.2409,5.2409,5.2409,5.2409,5.2409,5.2409,5.2409,5.2409,5.2194,5.1655,5.1582,5.1397,5.0805,5.0499,5.0073,4.9559,4.9519,4.9519,4.9519,4.9519,5.019,5.1545,5.1582,5.1871,5.2409,5.1508,5.0838,5.0306,5.0838,5.08,0.0,5.5927,5.5478,5.7244,5.5897,5.4132,5.4072,5.3084,0.0,5.1349,5.1229,5.1229,5.1229,5.1229,5.1229,5.1289,5.2366,5.2965,5.2366,5.3922,5.5149,5.5179,5.5179,5.5179,5.5179,5.5179,5.491,5.4251,5.4162,5.3593,5.2336,5.2187,5.1887,5.1319,5.1229,5.1229,5.1229,5.1229,5.1229,5.1229,5.1229,5.1229,5.1229,5.1229,5.1229,5.1229,5.1229,5.1229,5.1229,5.1229,5.1229,5.1229,5.1229,5.1246,5.1293,5.1293,5.1339,5.1526,5.2471,5.3371,5.4232,5.5108,5.5988,5.668,5.668,5.668,5.668,5.668,5.668,5.668,5.6614,5.6614,5.6448,5.5681,5.4953,5.4225,5.3566,5.287,5.2409,5.2409,5.2409,5.2409,5.2409,5.2409,5.2409,5.2409,5.2409,5.2409,5.2409,5.2409,5.2409,5.2409,5.2409,5.2409,5.2409,5.1655,5.1172,5.1102,5.1102,5.1065,5.0989,5.1065,5.1471,5.2302,5.2373,5.2409,5.2409,5.1582,5.1177,5.1177,5.1177,5.1177,5.2995,0.0,5.3653,5.3593,5.3503,5.3294,0.0,5.2426,5.2007,5.1349,5.1229,5.1229,5.1229,5.1229,5.1379,5.1887,5.2665,5.3114,5.2965,5.3803,5.464,5.5119,5.5179,5.5179,5.5179,5.5179,5.491,5.4251,5.3713,5.3294,5.2965,5.2007,5.1618,5.1947,5.1468,5.1229,5.1229,5.1229,5.1229,5.1229,5.1229,5.1229,5.1229,5.1229,5.1229,5.1229,5.1229,5.1229,5.1229,5.1229,5.1229,5.1229,5.1229,5.1665,5.2245,5.2245,5.274,5.3459,5.4369,5.4787,5.5149,5.6067,5.6525,5.668,5.668,5.668,5.668,5.668,5.668,5.6547,5.6017,5.5885,5.5648,5.492,5.4192,5.3632,5.3467,5.287,5.2409,5.2409,5.2409,5.2409,5.2409,5.2409,5.2409,5.2409,5.2409,5.2409,5.2409,5.2409,5.2409,5.2409,5.2409,5.2409,5.2409,5.223,5.1835,5.114,5.1102,5.08,5.0119,5.0761,5.121,5.1397,5.2053,5.2409,5.2409,5.2161,5.2089,5.2089,5.2089,5.2089,5.1648,5.2217,5.2785,5.3054,5.2935,5.2725,5.2665,5.2187,5.1648,5.1289,5.1229,5.1203,5.1334,5.1607,5.1849,5.188,5.307,5.4112,5.4309,5.3977,5.4102,5.5059,5.5179,5.5179,5.5179,5.491,5.4461,5.3773,5.3114,5.2725,5.2725,5.1768,5.1528,5.2187,5.1558,5.1229,5.1229,5.1229,5.1229,5.1229,5.1229,5.1229,5.1229,5.1229,5.1229,5.1229,5.1229,5.1229,5.1229,5.1229,5.1229,5.1229,5.1229,5.1526,5.2002,5.2426,5.2887,5.3545,5.4828,5.5555,5.6027,5.6531,5.668,5.668,5.668,5.668,5.668,5.668,5.668,5.6614,5.6216,5.5852,5.5383,5.4655,5.3964,5.3334,5.3003,5.2638,5.2409,5.2409,5.2409,5.2473,5.2804,5.2572,5.2473,5.2804,5.2572,5.2409,5.2409,5.2409,5.2409,5.2409,5.2409,5.2409,5.2409,5.2409,5.2194,5.1762,5.1692,5.1508,5.0995,5.1471,5.1692,5.1692,5.2158,5.2409,5.2409,5.2409,5.2409,5.2409,5.2409,5.2409,5.1349,5.1922,5.2768,5.3582,5.2965,5.2306,5.2785,5.215,5.1356,5.1079,5.1373,5.1607,5.1536,5.2233,5.263,5.1915,5.3583,5.5194,5.5906,5.4701,5.4231,5.55,5.5501,5.5451,5.5651,5.478,5.3972,5.3477,5.2672,5.2247,5.2336,5.1618,5.1558,5.2336,5.1618,5.1229,5.1229,5.1229,5.1229,5.1229,5.1229,5.1229,5.1229,5.1229,5.1229,5.1229,5.1229,5.1229,5.1229,5.1229,5.1229,5.1229,5.1339,5.1526,5.1727,5.2695,5.3108,5.3459,5.4952,5.6027,5.668,5.668,5.668,5.668,5.668,5.668,5.668,5.668,5.668,5.6647,5.6547,5.6084,5.5383,5.4655,5.3964,5.3235,5.2672,5.244,5.2442,5.2506,5.2539,5.2771,5.3467,5.3003,5.2738,5.3334,5.2837,5.2409,5.2409,5.2409,5.2409,5.2409,5.2409,5.2409,5.2409,5.2409,5.2409,5.2409,5.2409,5.2409,5.2409,5.2409,5.2409,5.2409,5.2409,5.2409,5.2409,5.2409,5.2409,5.2409,5.2409,5.2409,5.1887,5.3152,5.3896,5.2124,5.1947,5.2067,5.1618,5.197,5.2002,5.0619,5.2072,5.3153,5.1845,5.2772,5.3659,5.3357,5.4098,5.5425,5.7447,5.7007,5.6789,5.7527,5.6896,5.6735,5.7606,5.5554,5.4285,5.4465,5.3071,5.2456,5.2995,5.1887,5.1768,5.2995,5.1858,5.1229,5.1229,5.1229,5.1229,5.1229,5.1229,5.1229,5.1229,5.1229,5.1229,5.1229,5.1229,5.1229,5.1229,5.1229,5.1229,5.1246,5.2094,5.2874,5.3675,5.4537,5.5393,5.6139,5.6375,5.6603,5.668,5.668,5.668,5.668,5.668,5.668,5.668,5.668,5.668,5.6547,5.5951,5.5681,5.5383,5.4655,5.3964,5.3367,5.3268,5.2804,5.2572,5.3135,5.3268,5.35,5.4229,5.3732,5.3301,5.34,5.2837,5.2409,5.2409,5.2409,5.2409,5.2409,5.2409,5.2409,5.2409,5.2409,5.2409,5.2409,5.2409,5.2409,5.2409,5.2409,5.2409,5.2409,5.2409,5.2409,5.2409,5.2409,5.2409,5.2409,5.2409,5.2409,5.2239,5.3051,5.3606,5.3866,5.4113,5.419,5.3851,5.3548,5.3178,5.2427,5.3196,5.3829,5.3186,5.4284,5.5537,5.6328,5.5929,5.614,5.8052,5.7624,5.7372,5.8022,5.7354,5.6995,5.747,5.5271,5.3938,5.4114,5.2574,5.1947,5.2606,5.1738,5.1648,5.2606,5.1708,5.1229,5.1229,5.1229,5.1229,5.1229,5.1229,5.1229,5.1229,5.1229,5.1229,5.1229,5.1229,5.1229,5.1229,5.1229,5.1526,5.2002,5.2426,5.3152,5.4105,5.4985,5.5908,5.668,5.668,5.668,5.668,5.668,5.668,5.668,5.668,5.668,5.668,5.668,5.668,5.6614,5.6282,5.5918,5.5516,5.5152,5.4523,5.396,5.396,5.3434,5.3169,5.3864,5.3699,5.3765,5.4887,5.4456,5.4162,5.4523,5.3997,5.3533,5.3533,5.3202,5.2937,5.2937,5.2605,5.2409,5.2409,5.2705,5.2771,5.2407,5.2409,5.2409,5.2409,5.2409,5.2409,5.2409,5.2409,5.2409,5.2409,5.2738,5.2937,5.2937,5.3367,5.3533,5.2555,5.2961,5.3509,5.5669,5.5986,5.5904,5.6423,5.5522,5.456,5.4505,5.4741,5.4842,5.4624,5.5742,5.7125,5.868,5.7816,5.7448,5.8657,5.8259,5.7904,5.8256,5.7586,5.7223,5.7444,5.5315,5.3999,5.4269,5.2551,5.1797,5.2459,5.1653,5.1528,5.2187,5.1558,5.1229,5.1229,5.1229,5.1229,5.1229,5.1229,5.1229,5.1229,5.1229,5.1229,5.1229,5.1229,5.1293,5.1526,5.1526,5.2094,5.2962,5.3152,5.3805,5.4694,5.5393,5.6067,5.668,5.668,5.668,5.668,5.668,5.668,5.668,5.668,5.668,5.668,5.668,5.668,5.668,5.668,5.6282,5.5885,5.5885,5.5322,5.4754,5.4754,5.4158,5.3897,5.4589,5.4328,5.4361,5.5653,5.5256,5.492,5.5516,5.4953,5.449,5.449,5.403,5.3665,5.3665,5.3202,5.287,5.287,5.3367,5.3434,5.2904,5.287,5.287,5.287,5.287,5.287,5.287,5.287,5.287,5.287,5.34,5.3665,5.3699,5.4262,5.449,5.2765,5.3496,5.4535,5.5956,5.5676,5.5588,5.7666,5.7128,5.6186,5.6129,5.6885,5.712,5.5685,5.6487,5.7669,5.8746,5.917,5.948,5.9853,5.9828,5.9556,5.8896,5.7958,5.7758,5.865,5.6413,5.528,5.6131,5.3878,5.2823,5.3453,5.2043,5.1528,5.2187,5.1558,5.1229,5.1229,5.1229,5.1229,5.1229,5.1229,5.1229,5.1229,5.1229,5.1229,5.1229,5.1229,5.1681,5.2516,5.2516,5.302,5.3976,5.4819,5.5708,5.6525,5.6603,5.6641,5.668,5.668,5.668,5.668,5.668,5.668,5.668,5.668,5.668,5.668,5.668,5.668,5.668,5.668,5.6647,5.6614,5.6614,5.6084,5.5516,5.5516,5.492,5.4622,5.535,5.545,5.5719,5.6481,5.6017,5.5516,5.5582,5.4953,5.449,5.449,5.4423,5.439,5.439,5.4394,5.4361,5.4361,5.4357,5.439,5.4361,5.4361,5.4361,5.4361,5.4361,5.4361,5.4361,5.4361,5.4361,5.4361,5.4427,5.439,5.439,5.4494,5.449,5.3026,5.3786,5.4792,5.6741,5.698,5.7199,5.8968,5.8993,5.8757,5.9226,5.9218,5.8852,5.7811,5.7986,5.8593,5.9455,6.01,6.0445,6.0051,5.9993,5.9728,5.8999,5.8188,5.7811,5.8164,5.636,5.5329,5.5701,5.4316,5.3321,5.302,5.2398,5.194,5.1588,5.1349,5.1229,5.1229,5.1229,5.1229,5.1229,5.1229,5.1229,5.1229,5.1229,5.1229,5.1229,5.1229,5.1727,5.2606,5.2606,5.3502,5.4902,5.5829,5.6375,5.668,5.668,5.668,5.668,5.668,5.668,5.668,5.668,5.668,5.668,5.668,5.668,5.668,5.668,5.668,5.668,5.668,5.668,5.668,5.668,5.6481,5.6282,5.6282,5.5719,5.5383,5.615,5.5918,5.5814,5.6547,5.6448,5.6282,5.6282,5.6051,5.5885,5.5885,5.5487,5.5185,5.5185,5.4754,5.4688,5.5118,5.5185,5.5388,5.5852,5.5024,5.449,5.449,5.449,5.449,5.449,5.449,5.449,5.449,5.4953,5.5185,5.5185,5.5653,5.5885,5.332,5.3719,5.4508,5.6332,5.715,5.7991,5.9717,6.0281,6.0746,6.1667,6.1061,5.9993,5.8767,5.8734,5.8999,5.9264,5.9926,6.0158,5.9396,5.9297,5.9032,5.827,5.774,5.7442,5.7442,5.6435,5.5716,5.5716,5.4902,5.4147,5.3502,5.3196,5.2606,5.1635,5.1665,5.1526,5.1229,5.1229,5.1229,5.1229,5.1229,5.1229,5.1229,5.1229,5.1229,5.1229,5.1526,5.2154,5.3064,5.3328,5.4369,5.5829,5.6453,5.668,5.668,5.668,5.668,5.668,5.668,5.668,5.668,5.668,5.668,5.668,5.668,5.668,5.668,5.668,5.668,5.668,5.668,5.668,5.668,5.668,5.668,5.668,5.668,5.6316,5.6117,5.6581,5.6282,5.6117,5.6614,5.668,5.668,5.668,5.668,5.668,5.668,5.6249,5.5951,5.5951,5.5521,5.5421,5.5918,5.5951,5.6183,5.6647,5.5752,5.5189,5.5189,5.5189,5.5189,5.5189,5.5189,5.5189,5.5222,5.5719,5.5951,5.5984,5.6448,5.668,5.3599,5.3434,5.3599,5.4361,5.5771,5.7586,5.9825,6.0891,6.1816,6.3282,6.2282,6.0423,5.8237,5.8403,5.8668,5.7906,5.8436,5.8634,5.7906,5.7806,5.7508,5.6779,5.668,5.668,5.668,5.668,5.668,5.668,5.5829,5.5312,5.5312,5.4485,5.3589,5.2651,5.2606,5.2185,5.1229,5.1229,5.1229,5.1229,5.1229,5.1229,5.1229,5.1229,5.1229,5.1276,5.22,5.3152,5.4062,5.4985,5.5868,5.668,5.668,5.668,5.668,5.668,5.668,5.668,5.668,5.668,5.668,5.668,5.668,5.668,5.668,5.668,5.668,5.668,5.668,5.668,5.668,5.668,5.668,5.668,5.668,5.668,5.668,5.668,5.668,5.668,5.668,5.668,5.668,5.668,5.668,5.668,5.668,5.668,5.668,5.668,5.668,5.668,5.668,5.668,5.668,5.668,5.668,5.668,5.668,5.668,5.668,5.668,5.668,5.668,5.668,5.668,5.668,5.668,5.668,5.668,5.668,5.668,5.3036,5.3798,5.5024,5.541,5.7015,5.8931,6.0449,6.1609,6.249,6.2958,6.2124,6.0968,5.9771,5.9617,5.9429,5.8701,5.9198,5.9231,5.7972,5.7806,5.7508,5.6779,5.668,5.668,5.668,5.668,5.668,5.668,5.6414,5.5988,5.5353,5.5035,5.42,5.2651,5.2606,5.2185,5.1229,5.1229,5.1229,5.1229,5.1229,5.1229,5.1229,5.1865,5.2154,5.2245,5.3152,5.4105,5.4985,5.5908,5.6453,5.668,5.668,5.668,5.668,5.668,5.668,5.668,5.668,5.668,5.668,5.668,5.668,5.668,5.668,5.668,5.668,5.668,5.668,5.668,5.668,5.668,5.668,5.668,5.668,5.668,5.668,5.668,5.668,5.668,5.668,5.668,5.668,5.668,5.668,5.668,5.668,5.668,5.668,5.668,5.668,5.668,5.668,5.668,5.668,5.668,5.668,5.668,5.668,5.668,5.668,5.668,5.668,5.668,5.668,5.668,5.668,5.668,5.668,5.668,5.668,5.668,5.3831,5.4899,5.6203,5.6321,5.794,5.984,6.1267,6.226,6.2937,6.2971,6.2438,6.164,6.0491,6.0011,5.9531,5.8608,5.8681,5.8449,5.7514,5.7342,5.7177,5.6746,5.668,5.668,5.668,5.668,5.668,5.668,5.668,5.6453,5.5908,5.5868,5.519,5.3687,5.3328,5.2695,5.1773,5.1386,5.1229,5.1199,5.1301,5.1334,5.1334,5.1893,5.2229,5.23,5.3281,5.418,5.5018,5.5595,5.5984,5.6249,5.6249,5.6448,5.668,5.668,5.668,5.668,5.668,5.668,5.668,5.668,5.668,5.668,5.668,5.668,5.668,5.668,5.668,5.668,5.668,5.668,5.668,5.668,5.668,5.668,5.668,5.668,5.668,5.668,5.668,5.668,5.668,5.668,5.668,5.668,5.668,5.668,5.668,5.668,5.668,5.668,5.668,5.668,5.668,5.668,5.668,5.668,5.668,5.668,5.668,5.668,5.668,5.668,5.668,5.668,5.668,5.668,5.668,5.668,5.668,5.668,5.5317,5.6236,5.7058,5.7192,5.8705,6.0531,6.2037,6.2729,6.3081,6.3114,6.2911,6.2238,6.0672,5.995,5.9248,5.8024,5.7476,5.7015,5.6757,5.6719,5.6719,5.668,5.668,5.668,5.668,5.668,5.668,5.668,5.668,5.668,5.668,5.668,5.6257,5.5353,5.4527,5.3675,5.274,5.1804,5.1343,5.1389,5.1481,5.1554,5.158,5.1611,5.1775,5.2086,5.2964,5.3776,5.449,5.449,5.4887,5.5483,5.5483,5.5918,5.6481,5.6481,5.6481,5.6481,5.6481,5.6514,5.6581,5.6581,5.6647,5.668,5.668,5.668,5.668,5.668,5.668,5.668,5.668,5.668,5.668,5.668,5.668,5.668,5.668,5.668,5.668,5.668,5.668,5.668,5.668,5.668,5.668,5.668,5.668,5.668,5.668,5.668,5.668,5.668,5.668,5.668,5.668,5.668,5.668,5.668,5.668,5.668,5.668,5.668,5.668,5.668,5.668,5.668,5.668,5.668,5.668,5.668,5.668,5.668,5.4688,5.5837,5.7292,5.8652,6.041,6.197,6.2313,6.2477,6.2539,6.2578,6.2346,6.1883,6.097,6.0549,5.9895,5.8513,5.8146,5.7807,5.7049,5.6949,5.6872,5.6719,5.668,5.668,5.668,5.668,5.668,5.668,5.668,5.668,5.668,5.668,5.6257,5.5353,5.5149,5.4611,5.3719,5.2926,5.2516,5.2516,5.1998,5.1818,5.1997,5.2541,5.3251,5.3896,5.4119,5.434,5.449,5.449,5.4589,5.4721,5.4721,5.4858,5.499,5.499,5.499,5.499,5.499,5.5355,5.5852,5.5852,5.6216,5.668,5.668,5.668,5.668,5.668,5.668,5.668,5.668,5.668,5.668,5.668,5.668,5.668,5.668,5.668,5.668,5.668,5.668,5.668,5.668,5.668,5.668,5.668,5.668,5.668,5.668,5.668,5.668,5.668,5.668,5.668,5.668,5.668,5.668,5.668,5.668,5.668,5.668,5.668,5.668,5.668,5.668,5.668,5.668,5.668,5.668,5.668,5.668,5.668,5.5289,5.6502,5.803,6.0147,6.1537,6.2381,6.2381,6.2381,6.2381,6.2381,6.1998,6.1509,6.0987,6.0617,5.9934,5.8634,5.8471,5.8236,5.7277,5.7063,5.6949,5.6872,5.6757,5.668,5.668,5.668,5.668,5.668,5.668,5.668,5.668,5.668,5.6486,5.5988,5.5515,5.4947,5.4173,5.3333,5.2734,5.2345,5.2091,5.2023,5.2244,5.2637,5.3062,5.35,5.35,5.35,5.35,5.35,5.3699,5.3997,5.3997,5.4195,5.449,5.449,5.449,5.449,5.449,5.4721,5.5052,5.5052,5.5587,5.6183,5.6183,5.6415,5.668,5.668,5.668,5.668,5.668,5.668,5.668,5.668,5.668,5.668,5.668,5.668,5.668,5.668,5.668,5.668,5.668,5.668,5.668,5.668,5.668,5.668,5.668,5.668,5.668,5.668,5.668,5.668,5.668,5.668,5.668,5.668,5.668,5.668,5.668,5.668,5.668,5.668,5.668,5.668,5.668,5.668,5.668,5.668,5.668,5.668,5.562,5.7199,5.8903,6.1333,6.215,6.2341,6.2341,6.2381,6.2381,6.2381,6.1806,6.126,6.0998,6.0507,5.973,5.8681,5.8724,5.856,5.7499,5.7315,5.7196,5.6987,5.6834,5.6719,5.668,5.668,5.668,5.668,5.668,5.668,5.668,5.668,5.668,5.668,5.5948,5.523,5.4547,5.3623,5.284,5.2099,5.214,5.2244,5.2409,5.2409,5.2409,5.2409,5.2409,5.2409,5.2409,5.2409,5.2705,5.3235,5.3235,5.3599,5.4162,5.4162,5.4162,5.4162,5.4162,5.4229,5.4361,5.4494,5.4986,5.5615,5.5747,5.6216,5.668,5.668,5.668,5.668,5.668,5.668,5.668,5.668,5.668,5.668,5.668,5.668,5.668,5.668,5.668,5.668,5.668,5.668,5.668,5.668,5.668,5.668,5.668,5.668,5.668,5.668,5.668,5.668,5.668,5.668,5.668,5.668,5.668,5.668,5.668,5.668,5.668,5.668,5.668,5.668,5.668,5.668,5.668,5.668,5.668,5.668,5.3765,5.6402,5.9491,6.1267,6.1877,6.2037,6.2037,6.2229,6.2381,6.2381,6.1806,6.1298,6.126,6.0617,5.984,5.9059,5.9464,5.9359,5.779,5.8085,5.814,5.7092,5.6987,5.6872,5.6719,5.668,5.668,5.668,5.668,5.668,5.668,5.668,5.668,5.668,5.6603,5.6161,5.543,5.4656,5.3926,5.3202,5.262,5.2365,5.2409,5.2409,5.2409,5.2409,5.2409,5.2409,5.2409,5.2409,5.244,5.2506,5.2506,5.2572,5.2672,5.2672,5.2672,5.2672,5.2672,5.3069,5.3665,5.4258,5.4986,5.5714,5.6349,5.6614,5.668,5.668,5.668,5.668,5.668,5.668,5.668,5.668,5.668,5.668,5.668,5.668,5.668,5.668,5.668,5.668,5.668,5.668,5.668,5.668,5.668,5.668,5.668,5.668,5.668,5.668,5.668,5.668,5.668,5.668,5.668,5.668,5.668,5.668,5.668,5.668,5.668,5.668,5.668,5.668,5.668,5.668,5.668,5.668,5.668,5.668,5.3456,5.6269,5.8991,6.0538,6.1073,6.1373,6.1896,6.2076,6.2229,6.2381,6.1806,6.1298,6.1298,6.1028,6.052,5.9742,6.0283,6.0347,5.9156,5.9178,5.9127,5.8638,5.8007,5.7581,5.7504,5.6989,5.668,5.668,5.668,5.668,5.668,5.668,5.668,5.668,5.6316,5.5752,5.4986,5.4262,5.3533,5.2837,5.2539,5.2409,5.2409,5.2409,5.2409,5.2409,5.2409,5.2409,5.2409,5.2409,5.2409,5.2409,5.2409,5.2409,5.2409,5.2409,5.2409,5.2409,5.2409,5.2837,5.3467,5.3798,5.4655,5.5648,5.5984,5.6382,5.668,5.668,5.668,5.668,5.668,5.668,5.668,5.668,5.668,5.668,5.668,5.668,5.668,5.668,5.668,5.668,5.668,5.668,5.668,5.668,5.668,5.668,5.668,5.668,5.668,5.668,5.668,5.668,5.668,5.668,5.668,5.668,5.668,5.668,5.668,5.668,5.668,5.668,5.668,5.668,5.668,5.668,5.668,5.668,5.668,5.668,5.3056,5.5401,5.731,5.894,5.9798,6.0464,6.1361,6.1782,6.2037,6.2229,6.1902,6.1569,6.1569,6.1434,6.1095,6.0486,6.1061,6.1231,6.025,6.0169,6.0088,5.9809,5.8997,5.8358,5.8119,5.7393,5.6879,5.6713,5.668,5.668,5.668,5.668,5.668,5.668,5.5984,5.5218,5.4527,5.3599,5.2904,5.2409,5.2409,5.2409,5.2409,5.2409,5.2409,5.2409,5.2409,5.2409,5.2409,5.2409,5.2409,5.2409,5.2409,5.2409,5.2409,5.2409,5.2409,5.2407,5.2572,5.297,5.3467,5.3864,5.4688,5.5615,5.5852,5.6249,5.668,5.668,5.668,5.668,5.668,5.668,5.668,5.668,5.668,5.668,5.668,5.668,5.668,5.668,5.668,5.668,5.668,5.668,5.668,5.668,5.668,5.668,5.668,5.668,5.668,5.668,5.668,5.668,5.668,5.668,5.668,5.668,5.668,5.668,5.668,5.668,5.668,5.668,5.668,5.668,5.668,5.668,5.668,5.668,5.668,5.668,5.1877,5.3069,5.4162,5.6354,5.8102,5.9452,6.0224,6.1214,6.1997,6.2037,6.2195,6.2347,6.2347,6.1772,6.1298,6.1231,6.1839,6.1806,6.0317,6.0757,6.0883,5.9915,5.9582,5.9081,5.8191,5.7858,5.7442,5.6746,5.668,5.668,5.668,5.668,5.668,5.668,5.5984,5.5218,5.4527,5.3135,5.2442,5.2409,5.2409,5.2409,5.2409,5.2409,5.2409,5.2409,5.2409,5.2409,5.2409,5.2409,5.2409,5.2409,5.2409,5.2409,5.2409,5.2409,5.2409,5.2473,5.3135,5.3367,5.3632,5.5019,5.5516,5.5714,5.6415,5.6647,5.668,5.668,5.668,5.668,5.668,5.668,5.668,5.668,5.668,5.668,5.668,5.668,5.668,5.668,5.668,5.668,5.668,5.668,5.668,5.668,5.668,5.668,5.668,5.668,5.668,5.668,5.668,5.668,5.668,5.668,5.668,5.668,5.668,5.668,5.668,5.668,5.668,5.668,5.668,5.668,5.668,5.668,5.668,5.668,5.668,5.668,5.0479,5.1512,5.2572,5.4759,5.6089,5.7227,5.858,5.9938,6.0973,6.1284,6.1773,6.2189,6.2381,6.2178,6.2009,6.2009,6.2212,6.2212,6.1637,6.1806,6.1868,6.1525,6.074,5.9895,5.9087,5.8235,5.7475,5.6746,5.668,5.668,5.668,5.668,5.6481,5.6017,5.5289,5.4328,5.3169,5.2638,5.2409,5.2409,5.2409,5.2409,5.2409,5.2409,5.2409,5.2409,5.2409,5.2409,5.2409,5.2409,5.2409,5.2409,5.2409,5.2409,5.2409,5.2409,5.2672,5.3069,5.3334,5.403,5.4887,5.5416,5.5918,5.6349,5.6614,5.668,5.668,5.668,5.668,5.668,5.668,5.668,5.668,5.668,5.668,5.668,5.668,5.668,5.668,5.668,5.668,5.668,5.668,5.668,5.668,5.668,5.668,5.668,5.668,5.668,5.668,5.668,5.668,5.668,5.668,5.668,5.668,5.668,5.668,5.668,5.668,5.668,5.668,5.668,5.668,5.668,5.668,5.668,5.668,5.668,5.668,5.668,4.8782,4.9784,5.1082,5.3268,5.4328,5.5426,5.7537,5.8813,5.9764,6.0617,6.1165,6.1688,6.2195,6.2302,6.2302,6.2381,6.2381,6.2381,6.2381,6.2381,6.2381,6.2381,6.1593,6.065,5.9605,5.8752,5.7819,5.6746,5.668,5.668,5.668,5.668,5.6249,5.5251,5.449,5.3566,5.2407,5.2409,5.2409,5.2409,5.2409,5.2409,5.2409,5.2409,5.2409,5.2409,5.2409,5.2409,5.2409,5.2409,5.2409,5.2409,5.2409,5.2409,5.2442,5.2638,5.3036,5.35,5.3997,5.4754,5.5615,5.5918,5.6316,5.668,5.668,5.668,5.668,5.668,5.668,5.668,5.668,5.668,5.668,5.668,5.668,5.668,5.668,5.668,5.668,5.668,5.668,5.668,5.668,5.668,5.668,5.668,5.668,5.668,5.668,5.668,5.668,5.668,5.668,5.668,5.668,5.668,5.668,5.668,5.668,5.668,5.668,5.668,5.668,5.668,5.668,5.668,5.668,5.668,5.668,5.668,5.668,5.668,0.0,0.0,0.0,5.1744,5.2804,5.4096,5.6978,5.783,5.8419,5.9925,6.0418,6.0851,6.1789,6.1963,6.2076,6.2341,6.2381,6.2381,6.2381,6.2381,6.2381,6.2381,6.215,6.1346,5.9672,5.9337,5.854,5.6884,5.6713,5.668,5.668,5.6647,5.5984,5.4523,5.3798,5.3069,5.2409,5.2409,5.2409,5.2409,5.2409,5.2409,5.2409,5.2409,5.2409,5.2409,5.2409,5.2409,5.2409,5.2409,5.2409,5.2409,5.2409,5.2409,5.2473,5.3169,5.3434,5.3665,5.5085,5.5615,5.5747,5.6448,5.668,5.668,5.668,5.668,5.668,5.668,5.668,5.668,5.668,5.668,5.668,5.668,5.668,5.668,5.668,5.668,5.668,5.668,5.668,5.668,5.668,5.668,5.668,5.668,5.668,5.668,5.668,5.668,5.668,5.668,5.668,5.668,5.668,5.668,5.668,5.668,5.668,5.668,5.668,5.668,5.668,5.668,5.668,5.668,5.668,5.668,5.668,5.668,5.668,5.668,4.6483,0.0,0.0,0.0,0.0,0.0,5.3434,5.4696,5.5966,5.7586,5.8791,5.9877,6.0811,6.1547,6.1957,6.1911,6.2183,6.2381,6.2381,6.2381,6.2381,6.2381,6.203,6.1421,6.037,5.9518,5.8582,5.7541,5.6978,5.668,5.668,5.5686,5.4924,5.449,5.3301,5.2572,5.2409,5.2409,5.2409,5.2409,5.2409,5.2409,5.2409,5.2409,5.2409,5.2409,5.2409,5.2409,5.2409,5.2409,5.2409,5.2409,5.2409,5.2409,5.2473,5.3169,5.3765,5.4361,5.5251,5.5951,5.6415,5.6614,5.668,5.668,5.668,5.668,5.668,5.668,5.668,5.668,5.668,5.668,5.668,5.668,5.668,5.668,5.668,5.668,5.668,5.668,5.668,5.668,5.668,5.668,5.668,5.668,5.668,5.668,5.668,5.668,5.668,5.668,5.668,5.668,5.668,5.668,5.668,5.668,5.668,5.668,5.668,5.668,5.668,5.668,5.668,5.668,5.668,5.668,5.668,5.668,5.668,5.668,4.5593,4.6308,4.7158,4.8682,0.0,0.0,5.234,5.3467,5.4696,5.6867,5.8036,5.8973,6.0244,6.0665,6.0912,6.1207,6.144,6.1773,6.2195,6.2229,6.2268,6.2381,6.2064,6.1488,6.0671,5.9925,5.902,5.7873,5.7376,5.7011,5.6713,5.5322,5.449,5.449,5.3135,5.2409,5.2409,5.2409,5.2409,5.2409,5.2409,5.2409,5.2409,5.2409,5.2409,5.2409,5.2409,5.2409,5.2409,5.2409,5.2409,5.2409,5.2409,5.2572,5.2904,5.3599,5.4361,5.5052,5.5819,5.6349,5.668,5.668,5.668,5.668,5.668,5.668,5.668,5.668,5.668,5.668,5.668,5.668,5.668,5.668,5.668,5.668,5.668,5.668,5.668,5.668,5.668,5.668,5.668,5.668,5.668,5.668,5.668,5.668,5.668,5.668,5.668,5.668,5.668,5.668,5.668,5.668,5.668,5.668,5.668,5.668,5.668,5.668,5.668,5.668,5.668,5.668,5.668,5.668,5.668,5.668,5.668,5.668,4.4472,4.5483,0.0,4.8275,4.8742,0.0,5.2164,5.293,5.3831,5.6614,5.7309,5.7918,5.9512,5.9352,5.9225,6.0023,6.033,6.0778,6.1856,6.1957,6.2037,6.2341,6.211,6.1602,6.0772,6.0438,5.9638,5.8045,5.7773,5.7376,5.6713,5.5322,5.449,5.449,5.3135,5.2409,5.2409,5.2409,5.2409,5.2409,5.2409,5.2409,5.2409,5.2409,5.2409,5.2409,5.2409,5.2409,5.2409,5.2409,5.2409,5.2409,5.2409,5.2804,5.35,5.4225,5.4953,5.5681,5.6448,5.668,5.668,5.668,5.668,5.668,5.668,5.668,5.668,5.668,5.668,5.668,5.668,5.668,5.668,5.668,5.668,5.668,5.668,5.668,5.668,5.668,5.668,5.668,5.668,5.668,5.668,5.668,5.668,5.668,5.668,5.668,5.668,5.668,5.668,5.668,5.668,5.668,5.668,5.668,5.668,5.668,5.668,5.668,5.668,5.668,5.668,5.668,5.668,5.668,5.668,5.668,5.668,5.668,4.432,4.4737,4.5142,4.6086,4.677,0.0,4.8727,4.9937,5.1313,5.3069,5.4361,5.5421,5.6354,5.7005,5.7448,5.7465,5.858,6.0004,6.1549,6.175,6.183,6.2037,6.175,6.148,6.1508,6.061,5.9669,5.8734,5.7574,5.6846,5.668,5.5322,5.449,5.449,5.3135,5.2409,5.2409,5.2409,5.2409,5.2409,5.2409,5.2409,5.2409,5.2409,5.2409,5.2409,5.2409,5.2409,5.2409,5.2409,5.2409,5.2409,5.2409,5.2804,5.35,5.4225,5.4953,5.5681,5.6448,5.668,5.668,5.668,5.668,5.668,5.668,5.668,5.668,5.668,5.668,5.668,5.668,5.668,5.668,5.668,5.668,5.668,5.668,5.668,5.668,5.668,5.668,5.668,5.668,5.668,5.668,5.668,5.668,5.668,5.668,5.668,5.668,5.668,5.668,5.668,5.668,5.668,5.668,5.668,5.668,5.668,5.668,5.668,5.668,5.668,5.668,5.668,5.668,5.668,5.668,5.668,5.668,5.668,4.3771,4.4167,4.4586,4.4999,4.5665,0.0,0.0,4.8232,4.9567,5.1434,5.236,5.3189,5.432,5.4601,5.5003,5.5984,5.6857,5.8102,6.0051,6.0998,6.1628,6.183,6.1588,6.1424,6.1547,6.0961,6.0092,5.8966,5.7508,5.668,5.668,5.5322,5.449,5.449,5.3135,5.2409,5.2409,5.2409,5.2409,5.2409,5.2409,5.2409,5.2409,5.2409,5.2409,5.2409,5.2409,5.2409,5.2409,5.2409,5.2409,5.2409,5.2409,5.3036,5.396,5.4357,5.5222,5.6216,5.6547,5.668,5.668,5.668,5.668,5.668,5.668,5.668,5.668,5.668,5.668,5.668,5.668,5.668,5.668,5.668,5.668,5.668,5.668,5.668,5.668,5.668,5.668,5.668,5.668,5.668,5.668,5.668,5.668,5.668,5.668,5.668,5.668,5.668,5.668,5.668,5.668,5.668,5.668,5.668,5.668,5.668,5.668,5.668,5.668,5.668,5.668,5.668,5.668,5.668,5.668,5.668,5.668,5.6879,4.329,4.3771,4.4243,4.4243,4.4887,4.5636,0.0,0.0,0.0,4.9968,5.0584,5.1141,5.2313,5.2269,5.2572,5.4494,5.4986,5.5852,5.7773,5.9458,6.0758,6.1361,6.1265,6.1209,6.1383,6.0945,6.0191,5.8999,5.7508,5.668,5.668,5.5322,5.449,5.449,5.3135,5.2409,5.2409,5.2409,5.2409,5.2409,5.2409,5.2409,5.2409,5.2409,5.2409,5.2409,5.2409,5.2409,5.2409,5.2409,5.2409,5.2409,5.2409,5.3169,5.4291,5.4423,5.5355,5.6514,5.6647,5.668,5.668,5.668,5.668,5.668,5.668,5.668,5.668,5.668,5.668,5.668,5.668,5.668,5.668,5.668,5.668,5.668,5.668,5.668,5.668,5.668,5.668,5.668,5.668,5.668,5.668,5.668,5.668,5.668,5.668,5.668,5.668,5.668,5.668,5.668,5.668,5.668,5.668,5.668,5.668,5.668,5.668,5.668,5.668,5.668,5.668,5.668,5.668,5.6812,5.6812,5.668,5.6846,5.721,4.329,4.3369,4.3448,4.3448,4.4043,4.4655,4.4716,0.0,4.6972,4.7241,0.0,4.93,4.9469,0.0,0.0,5.1612,5.2837,5.3997,5.4854,5.6288,5.8024,6.0224,6.0255,6.048,6.1317,6.0015,5.9065,5.8899,5.7508,5.668,5.668,5.5322,5.449,5.449,5.3135,5.2409,5.2409,5.2409,5.2409,5.2409,5.2409,5.2409,5.2409,5.2409,5.2409,5.2409,5.2409,5.2409,5.2409,5.2409,5.2409,5.2409,5.2409,5.287,5.3632,5.4258,5.5019,5.5852,5.6481,5.668,5.668,5.668,5.668,5.668,5.668,5.668,5.668,5.668,5.668,5.668,5.668,5.668,5.668,5.668,5.668,5.668,5.668,5.668,5.668,5.668,5.668,5.668,5.668,5.668,5.668,5.668,5.668,5.668,5.668,5.668,5.668,5.668,5.668,5.668,5.668,5.668,5.668,5.668,5.668,5.668,5.668,5.668,5.668,5.668,5.668,5.668,5.668,5.7342,5.7342,5.6713,5.7376,5.7707,4.329,4.329,4.329,4.329,4.3536,4.381,4.381,4.4295,4.4903,4.5359,0.0,0.0,0.0,0.0,0.0,0.0,5.2142,5.3202,5.4324,5.5057,5.6122,5.7997,5.815,5.8409,5.9219,5.8641,5.8237,5.8237,5.7276,5.668,5.668,5.5322,5.449,5.449,5.3135,5.2409,5.2409,5.2409,5.2409,5.2409,5.2409,5.2409,5.2409,5.2409,5.2409,5.2409,5.2409,5.2409,5.2409,5.2409,5.2409,5.2409,5.2409,5.2804,5.35,5.4225,5.4953,5.5681,5.6448,5.668,5.668,5.668,5.668,5.668,5.668,5.668,5.668,5.668,5.668,5.668,5.668,5.668,5.668,5.668,5.668,5.668,5.668,5.668,5.668,5.668,5.668,5.668,5.668,5.668,5.668,5.668,5.668,5.668,5.668,5.668,5.668,5.668,5.668,5.668,5.668,5.7077,5.7342,5.7342,5.774,5.7972,5.7972,5.7972,5.7972,5.7972,5.7972,5.7972,5.7972,5.827,5.827,5.7972,5.827,5.8668,4.329,4.329,4.329,4.329,4.329,4.329,4.329,4.3439,4.3758,4.4317,4.4749,0.0,0.0,0.0,4.8505,5.0594,0.0,5.2221,5.3728,5.393,5.456,5.6183,5.6746,5.7276,5.8038,5.774,5.7574,5.7773,5.7111,5.668,5.668,5.5686,5.4924,5.449,5.3301,5.2572,5.2409,5.2409,5.2409,5.2409,5.2409,5.2409,5.2409,5.2409,5.2409,5.2409,5.2409,5.2409,5.2409,5.2409,5.2409,5.2409,5.2409,5.2804,5.35,5.4225,5.4953,5.5681,5.6448,5.668,5.668,5.668,5.668,5.668,5.668,5.668,5.668,5.668,5.668,5.668,5.668,5.668,5.668,5.668,5.668,5.668,5.668,5.668,5.668,5.668,5.668,5.668,5.668,5.668,5.668,5.668,5.668,5.6746,5.6978,5.6978,5.7077,5.7276,5.7276,5.7276,5.7276,5.7773,5.8104,5.8104,5.8601,5.8899,5.8899,5.8899,5.8899,5.8899,5.8899,5.8899,5.8899,5.9098,5.9198,5.9198,5.9198,5.9496,4.329,4.329,4.329,4.329,4.329,4.329,4.329,4.3798,4.4287,4.4327,4.5424,4.648,4.652,4.7114,4.8136,0.0,5.0066,0.0,0.0,5.2475,5.3235,5.535,5.6912,5.8038,5.88,5.7574,5.7011,5.774,5.7111,5.668,5.668,5.6647,5.5984,5.4523,5.3765,5.3069,5.2409,5.2409,5.2409,5.2409,5.2409,5.2409,5.2409,5.2409,5.2409,5.2409,5.2409,5.2409,5.2409,5.2409,5.2409,5.2409,5.2409,5.2804,5.35,5.4225,5.4953,5.5681,5.6448,5.668,5.668,5.668,5.668,5.668,5.668,5.668,5.668,5.668,5.668,5.668,5.668,5.668,5.668,5.668,5.668,5.668,5.668,5.668,5.668,5.668,5.668,5.668,5.668,5.668,5.668,5.668,5.668,5.6945,5.7674,5.774,5.8038,5.8734,5.8833,5.8833,5.8833,5.8833,5.8866,5.8866,5.8899,5.8899,5.8899,5.8899,5.8899,5.8899,5.8899,5.8899,5.8899,5.9628,5.996,5.996,5.996,5.9993,4.329,4.329,4.329,4.329,4.329,4.329,4.329,4.3838,4.4436,4.4885,4.5372,4.6011,4.6996,4.7419,0.0,0.0,0.0,5.0756,0.0,5.0897,5.1744,5.3897,5.5024,5.5521,5.5289,5.6117,5.6581,5.6382,5.6117,5.5984,5.5984,5.5521,5.4792,5.3794,5.3533,5.3069,5.2409,5.2409,5.2409,5.2409,5.2409,5.2409,5.2409,5.2409,5.2409,5.2409,5.2409,5.2409,5.2409,5.2409,5.2409,5.2407,5.287,5.35,5.4162,5.4427,5.4953,5.5681,5.6448,5.668,5.668,5.668,5.668,5.668,5.668,5.668,5.668,5.668,5.668,5.668,5.668,5.668,5.668,5.668,5.668,5.668,5.668,5.668,5.668,5.668,5.7077,5.7409,5.7409,5.7806,5.7972,5.7475,5.7839,5.8237,5.8502,5.8535,5.8601,5.8866,5.8899,5.8899,5.8899,5.9363,5.9827,6.0324,6.0357,6.0357,6.0357,6.0357,6.0357,6.0357,6.0357,6.0357,6.0357,6.0622,6.0721,6.0721,6.0721,6.0721,4.329,4.329,4.3349,4.3589,4.3648,4.3768,4.4246,4.4915,4.5514,4.5933,4.6202,4.6581,4.7308,4.7463,4.7763,0.0,0.0,0.0,0.0,5.0326,5.1115,5.2506,5.3301,5.3864,5.4125,5.499,5.5554,5.5582,5.5582,5.5483,5.5218,5.5521,5.5123,5.3831,5.3798,5.3467,5.2738,5.2506,5.2409,5.2409,5.2409,5.2409,5.2409,5.2409,5.2409,5.2409,5.2409,5.2409,5.2409,5.2409,5.2409,5.244,5.3135,5.3864,5.4523,5.4787,5.5388,5.6084,5.6514,5.668,5.668,5.668,5.668,5.668,5.668,5.668,5.668,5.668,5.668,5.668,5.668,5.668,5.668,5.668,5.668,5.668,5.668,5.6912,5.7077,5.7077,5.7674,5.8171,5.8171,5.88,5.9032,5.8303,5.8601,5.8999,5.9264,5.9297,5.9396,5.9661,5.9694,5.9694,5.9694,6.0125,6.0589,6.1086,6.1119,6.1119,6.1119,6.1119,6.1119,6.1119,6.1119,6.1119,6.1119,6.1119,6.1119,6.1119,6.1119,6.1119]}]]